<?xml version="1.0" encoding="UTF-8" standalone="no" ?>
<gpx xmlns="http://www.topografix.com/GPX/1/1" xmlns:xsi="http://www.w3.org/2001/XMLSchema-instance" xsi:schemaLocation="http://www.topografix.com/GPX/1/1 http://www.topografix.com/GPX/1/1/gpx.xsd" version="1.1" creator="VisuGPX - https://www.visugpx.com">
  <metadata>
    <name>Poncey-Saint-Gengoux-le-National</name>
    <desc><![CDATA[Chemin de Compostelle 2014-2 : Poncey-Saint-Gengoux-le-National]]></desc>
  </metadata>
  <trk>
    <name><![CDATA[21 Poncey-Saint Gengoux]]></name>
    <trkseg>
      <trkpt lat="46.7713" lon="4.7215">
        <ele>252</ele>
        <time>2014-08-13T07:36:17Z</time>
      </trkpt>
      <trkpt lat="46.77125" lon="4.72148">
        <ele>252</ele>
        <time>2014-08-13T07:36:35Z</time>
      </trkpt>
      <trkpt lat="46.77115" lon="4.72141">
        <ele>252</ele>
        <time>2014-08-13T07:36:42Z</time>
      </trkpt>
      <trkpt lat="46.77111" lon="4.72143">
        <ele>252</ele>
        <time>2014-08-13T07:36:45Z</time>
      </trkpt>
      <trkpt lat="46.77096" lon="4.72139">
        <ele>252</ele>
        <time>2014-08-13T07:36:58Z</time>
      </trkpt>
      <trkpt lat="46.77092" lon="4.72135">
        <ele>252</ele>
        <time>2014-08-13T07:37:03Z</time>
      </trkpt>
      <trkpt lat="46.77088" lon="4.7213">
        <ele>252</ele>
        <time>2014-08-13T07:37:08Z</time>
      </trkpt>
      <trkpt lat="46.77091" lon="4.72118">
        <ele>253</ele>
        <time>2014-08-13T07:37:16Z</time>
      </trkpt>
      <trkpt lat="46.7709" lon="4.72109">
        <ele>253</ele>
        <time>2014-08-13T07:37:21Z</time>
      </trkpt>
      <trkpt lat="46.77085" lon="4.72098">
        <ele>253</ele>
        <time>2014-08-13T07:37:30Z</time>
      </trkpt>
      <trkpt lat="46.77088" lon="4.72074">
        <ele>254</ele>
        <time>2014-08-13T07:37:50Z</time>
      </trkpt>
      <trkpt lat="46.7708" lon="4.72018">
        <ele>253</ele>
        <time>2014-08-13T07:38:19Z</time>
      </trkpt>
      <trkpt lat="46.7708" lon="4.72009">
        <ele>253</ele>
        <time>2014-08-13T07:38:23Z</time>
      </trkpt>
      <trkpt lat="46.77081" lon="4.72002">
        <ele>254</ele>
        <time>2014-08-13T07:38:27Z</time>
      </trkpt>
      <trkpt lat="46.77081" lon="4.71995">
        <ele>254</ele>
        <time>2014-08-13T07:38:32Z</time>
      </trkpt>
      <trkpt lat="46.77081" lon="4.71987">
        <ele>254</ele>
        <time>2014-08-13T07:38:36Z</time>
      </trkpt>
      <trkpt lat="46.77079" lon="4.71983">
        <ele>254</ele>
        <time>2014-08-13T07:38:45Z</time>
      </trkpt>
      <trkpt lat="46.77079" lon="4.71975">
        <ele>255</ele>
        <time>2014-08-13T07:38:52Z</time>
      </trkpt>
      <trkpt lat="46.77076" lon="4.71969">
        <ele>255</ele>
        <time>2014-08-13T07:38:55Z</time>
      </trkpt>
      <trkpt lat="46.77075" lon="4.71962">
        <ele>255</ele>
        <time>2014-08-13T07:39:00Z</time>
      </trkpt>
      <trkpt lat="46.77073" lon="4.71949">
        <ele>256</ele>
        <time>2014-08-13T07:39:08Z</time>
      </trkpt>
      <trkpt lat="46.77073" lon="4.71941">
        <ele>256</ele>
        <time>2014-08-13T07:39:13Z</time>
      </trkpt>
      <trkpt lat="46.7707" lon="4.71933">
        <ele>256</ele>
        <time>2014-08-13T07:39:16Z</time>
      </trkpt>
      <trkpt lat="46.77065" lon="4.71928">
        <ele>256</ele>
        <time>2014-08-13T07:39:21Z</time>
      </trkpt>
      <trkpt lat="46.77063" lon="4.7193">
        <ele>256</ele>
        <time>2014-08-13T07:39:29Z</time>
      </trkpt>
      <trkpt lat="46.77058" lon="4.71926">
        <ele>256</ele>
        <time>2014-08-13T07:39:45Z</time>
      </trkpt>
      <trkpt lat="46.77053" lon="4.71924">
        <ele>256</ele>
        <time>2014-08-13T07:39:48Z</time>
      </trkpt>
      <trkpt lat="46.77048" lon="4.71924">
        <ele>255</ele>
        <time>2014-08-13T07:39:51Z</time>
      </trkpt>
      <trkpt lat="46.77043" lon="4.71927">
        <ele>255</ele>
        <time>2014-08-13T07:39:56Z</time>
      </trkpt>
      <trkpt lat="46.77024" lon="4.71926">
        <ele>255</ele>
        <time>2014-08-13T07:40:13Z</time>
      </trkpt>
      <trkpt lat="46.7702" lon="4.71921">
        <ele>254</ele>
        <time>2014-08-13T07:40:18Z</time>
      </trkpt>
      <trkpt lat="46.77008" lon="4.71908">
        <ele>256</ele>
        <time>2014-08-13T07:40:31Z</time>
      </trkpt>
      <trkpt lat="46.76998" lon="4.71903">
        <ele>254</ele>
        <time>2014-08-13T07:40:39Z</time>
      </trkpt>
      <trkpt lat="46.76994" lon="4.71898">
        <ele>254</ele>
        <time>2014-08-13T07:40:42Z</time>
      </trkpt>
      <trkpt lat="46.7699" lon="4.71894">
        <ele>254</ele>
        <time>2014-08-13T07:40:48Z</time>
      </trkpt>
      <trkpt lat="46.76975" lon="4.7189">
        <ele>253</ele>
        <time>2014-08-13T07:40:58Z</time>
      </trkpt>
      <trkpt lat="46.76965" lon="4.71885">
        <ele>253</ele>
        <time>2014-08-13T07:41:03Z</time>
      </trkpt>
      <trkpt lat="46.76958" lon="4.71882">
        <ele>253</ele>
        <time>2014-08-13T07:41:08Z</time>
      </trkpt>
      <trkpt lat="46.76955" lon="4.71873">
        <ele>253</ele>
        <time>2014-08-13T07:41:13Z</time>
      </trkpt>
      <trkpt lat="46.76947" lon="4.71862">
        <ele>253</ele>
        <time>2014-08-13T07:41:22Z</time>
      </trkpt>
      <trkpt lat="46.76936" lon="4.71856">
        <ele>253</ele>
        <time>2014-08-13T07:41:32Z</time>
      </trkpt>
      <trkpt lat="46.76933" lon="4.71851">
        <ele>253</ele>
        <time>2014-08-13T07:41:35Z</time>
      </trkpt>
      <trkpt lat="46.76931" lon="4.71844">
        <ele>253</ele>
        <time>2014-08-13T07:41:39Z</time>
      </trkpt>
      <trkpt lat="46.76926" lon="4.71842">
        <ele>252</ele>
        <time>2014-08-13T07:41:43Z</time>
      </trkpt>
      <trkpt lat="46.76923" lon="4.71837">
        <ele>252</ele>
        <time>2014-08-13T07:41:47Z</time>
      </trkpt>
      <trkpt lat="46.76909" lon="4.71814">
        <ele>252</ele>
        <time>2014-08-13T07:42:09Z</time>
      </trkpt>
      <trkpt lat="46.76905" lon="4.71809">
        <ele>252</ele>
        <time>2014-08-13T07:42:14Z</time>
      </trkpt>
      <trkpt lat="46.76901" lon="4.71804">
        <ele>252</ele>
        <time>2014-08-13T07:42:17Z</time>
      </trkpt>
      <trkpt lat="46.76897" lon="4.718">
        <ele>252</ele>
        <time>2014-08-13T07:42:22Z</time>
      </trkpt>
      <trkpt lat="46.76888" lon="4.71784">
        <ele>252</ele>
        <time>2014-08-13T07:42:35Z</time>
      </trkpt>
      <trkpt lat="46.76883" lon="4.71781">
        <ele>252</ele>
        <time>2014-08-13T07:42:40Z</time>
      </trkpt>
      <trkpt lat="46.76877" lon="4.7177">
        <ele>252</ele>
        <time>2014-08-13T07:42:47Z</time>
      </trkpt>
      <trkpt lat="46.76869" lon="4.7176">
        <ele>251</ele>
        <time>2014-08-13T07:42:56Z</time>
      </trkpt>
      <trkpt lat="46.7686" lon="4.71751">
        <ele>251</ele>
        <time>2014-08-13T07:43:05Z</time>
      </trkpt>
      <trkpt lat="46.76855" lon="4.71747">
        <ele>253</ele>
        <time>2014-08-13T07:43:08Z</time>
      </trkpt>
      <trkpt lat="46.76847" lon="4.7174">
        <ele>253</ele>
        <time>2014-08-13T07:43:17Z</time>
      </trkpt>
      <trkpt lat="46.76843" lon="4.71726">
        <ele>253</ele>
        <time>2014-08-13T07:43:28Z</time>
      </trkpt>
      <trkpt lat="46.7682" lon="4.71707">
        <ele>249</ele>
        <time>2014-08-13T07:43:46Z</time>
      </trkpt>
      <trkpt lat="46.76816" lon="4.71704">
        <ele>249</ele>
        <time>2014-08-13T07:43:50Z</time>
      </trkpt>
      <trkpt lat="46.76811" lon="4.717">
        <ele>249</ele>
        <time>2014-08-13T07:43:53Z</time>
      </trkpt>
      <trkpt lat="46.76806" lon="4.71699">
        <ele>249</ele>
        <time>2014-08-13T07:43:57Z</time>
      </trkpt>
      <trkpt lat="46.76803" lon="4.71692">
        <ele>249</ele>
        <time>2014-08-13T07:44:01Z</time>
      </trkpt>
      <trkpt lat="46.76799" lon="4.71687">
        <ele>249</ele>
        <time>2014-08-13T07:44:06Z</time>
      </trkpt>
      <trkpt lat="46.76797" lon="4.7168">
        <ele>249</ele>
        <time>2014-08-13T07:44:12Z</time>
      </trkpt>
      <trkpt lat="46.76788" lon="4.71663">
        <ele>250</ele>
        <time>2014-08-13T07:44:26Z</time>
      </trkpt>
      <trkpt lat="46.76779" lon="4.71656">
        <ele>249</ele>
        <time>2014-08-13T07:44:35Z</time>
      </trkpt>
      <trkpt lat="46.76775" lon="4.71651">
        <ele>249</ele>
        <time>2014-08-13T07:44:39Z</time>
      </trkpt>
      <trkpt lat="46.7677" lon="4.71648">
        <ele>248</ele>
        <time>2014-08-13T07:44:43Z</time>
      </trkpt>
      <trkpt lat="46.76765" lon="4.71646">
        <ele>248</ele>
        <time>2014-08-13T07:44:46Z</time>
      </trkpt>
      <trkpt lat="46.76761" lon="4.71642">
        <ele>248</ele>
        <time>2014-08-13T07:44:50Z</time>
      </trkpt>
      <trkpt lat="46.76744" lon="4.71635">
        <ele>243</ele>
        <time>2014-08-13T07:45:19Z</time>
      </trkpt>
      <trkpt lat="46.76741" lon="4.71636">
        <ele>243</ele>
        <time>2014-08-13T07:46:00Z</time>
      </trkpt>
      <trkpt lat="46.76734" lon="4.71633">
        <ele>243</ele>
        <time>2014-08-13T07:46:09Z</time>
      </trkpt>
      <trkpt lat="46.7672" lon="4.71621">
        <ele>242</ele>
        <time>2014-08-13T07:46:22Z</time>
      </trkpt>
      <trkpt lat="46.76714" lon="4.71608">
        <ele>242</ele>
        <time>2014-08-13T07:46:30Z</time>
      </trkpt>
      <trkpt lat="46.76703" lon="4.71583">
        <ele>241</ele>
        <time>2014-08-13T07:46:44Z</time>
      </trkpt>
      <trkpt lat="46.767" lon="4.71578">
        <ele>241</ele>
        <time>2014-08-13T07:46:47Z</time>
      </trkpt>
      <trkpt lat="46.76698" lon="4.71572">
        <ele>241</ele>
        <time>2014-08-13T07:46:51Z</time>
      </trkpt>
      <trkpt lat="46.76697" lon="4.71541">
        <ele>241</ele>
        <time>2014-08-13T07:47:08Z</time>
      </trkpt>
      <trkpt lat="46.76701" lon="4.71526">
        <ele>241</ele>
        <time>2014-08-13T07:47:18Z</time>
      </trkpt>
      <trkpt lat="46.76714" lon="4.71478">
        <ele>240</ele>
        <time>2014-08-13T07:47:50Z</time>
      </trkpt>
      <trkpt lat="46.76715" lon="4.7147">
        <ele>240</ele>
        <time>2014-08-13T07:47:54Z</time>
      </trkpt>
      <trkpt lat="46.76715" lon="4.71461">
        <ele>240</ele>
        <time>2014-08-13T07:47:59Z</time>
      </trkpt>
      <trkpt lat="46.76716" lon="4.71453">
        <ele>240</ele>
        <time>2014-08-13T07:48:02Z</time>
      </trkpt>
      <trkpt lat="46.76718" lon="4.71446">
        <ele>240</ele>
        <time>2014-08-13T07:48:09Z</time>
      </trkpt>
      <trkpt lat="46.76725" lon="4.71433">
        <ele>240</ele>
        <time>2014-08-13T07:48:19Z</time>
      </trkpt>
      <trkpt lat="46.76731" lon="4.71431">
        <ele>240</ele>
        <time>2014-08-13T07:48:25Z</time>
      </trkpt>
      <trkpt lat="46.76733" lon="4.71424">
        <ele>240</ele>
        <time>2014-08-13T07:48:46Z</time>
      </trkpt>
      <trkpt lat="46.76732" lon="4.71418">
        <ele>240</ele>
        <time>2014-08-13T07:48:53Z</time>
      </trkpt>
      <trkpt lat="46.76728" lon="4.71413">
        <ele>240</ele>
        <time>2014-08-13T07:48:56Z</time>
      </trkpt>
      <trkpt lat="46.7671" lon="4.71398">
        <ele>240</ele>
        <time>2014-08-13T07:49:16Z</time>
      </trkpt>
      <trkpt lat="46.76701" lon="4.71396">
        <ele>240</ele>
        <time>2014-08-13T07:49:24Z</time>
      </trkpt>
      <trkpt lat="46.76695" lon="4.71398">
        <ele>240</ele>
        <time>2014-08-13T07:49:29Z</time>
      </trkpt>
      <trkpt lat="46.76685" lon="4.71404">
        <ele>240</ele>
        <time>2014-08-13T07:49:36Z</time>
      </trkpt>
      <trkpt lat="46.76682" lon="4.71409">
        <ele>240</ele>
        <time>2014-08-13T07:49:48Z</time>
      </trkpt>
      <trkpt lat="46.76678" lon="4.71402">
        <ele>240</ele>
        <time>2014-08-13T07:49:53Z</time>
      </trkpt>
      <trkpt lat="46.76675" lon="4.71396">
        <ele>240</ele>
        <time>2014-08-13T07:49:57Z</time>
      </trkpt>
      <trkpt lat="46.76645" lon="4.71363">
        <ele>243</ele>
        <time>2014-08-13T07:50:22Z</time>
      </trkpt>
      <trkpt lat="46.76639" lon="4.71359">
        <ele>243</ele>
        <time>2014-08-13T07:50:26Z</time>
      </trkpt>
      <trkpt lat="46.76631" lon="4.71353">
        <ele>243</ele>
        <time>2014-08-13T07:50:35Z</time>
      </trkpt>
      <trkpt lat="46.76626" lon="4.71355">
        <ele>243</ele>
        <time>2014-08-13T07:50:44Z</time>
      </trkpt>
      <trkpt lat="46.76622" lon="4.7136">
        <ele>243</ele>
        <time>2014-08-13T07:50:47Z</time>
      </trkpt>
      <trkpt lat="46.76618" lon="4.71365">
        <ele>243</ele>
        <time>2014-08-13T07:50:51Z</time>
      </trkpt>
      <trkpt lat="46.76616" lon="4.71368">
        <ele>243</ele>
        <time>2014-08-13T07:50:58Z</time>
      </trkpt>
      <trkpt lat="46.76612" lon="4.71372">
        <ele>243</ele>
        <time>2014-08-13T07:51:21Z</time>
      </trkpt>
      <trkpt lat="46.76608" lon="4.71377">
        <ele>243</ele>
        <time>2014-08-13T07:51:24Z</time>
      </trkpt>
      <trkpt lat="46.76604" lon="4.71384">
        <ele>243</ele>
        <time>2014-08-13T07:51:28Z</time>
      </trkpt>
      <trkpt lat="46.76597" lon="4.71394">
        <ele>243</ele>
        <time>2014-08-13T07:51:36Z</time>
      </trkpt>
      <trkpt lat="46.76593" lon="4.71398">
        <ele>244</ele>
        <time>2014-08-13T07:51:39Z</time>
      </trkpt>
      <trkpt lat="46.76581" lon="4.71412">
        <ele>245</ele>
        <time>2014-08-13T07:51:52Z</time>
      </trkpt>
      <trkpt lat="46.76573" lon="4.71421">
        <ele>245</ele>
        <time>2014-08-13T07:52:01Z</time>
      </trkpt>
      <trkpt lat="46.76565" lon="4.7143">
        <ele>246</ele>
        <time>2014-08-13T07:52:10Z</time>
      </trkpt>
      <trkpt lat="46.7656" lon="4.71432">
        <ele>246</ele>
        <time>2014-08-13T07:52:13Z</time>
      </trkpt>
      <trkpt lat="46.76556" lon="4.71436">
        <ele>247</ele>
        <time>2014-08-13T07:52:17Z</time>
      </trkpt>
      <trkpt lat="46.76551" lon="4.71438">
        <ele>247</ele>
        <time>2014-08-13T07:52:21Z</time>
      </trkpt>
      <trkpt lat="46.76546" lon="4.71437">
        <ele>247</ele>
        <time>2014-08-13T07:52:26Z</time>
      </trkpt>
      <trkpt lat="46.76545" lon="4.71431">
        <ele>247</ele>
        <time>2014-08-13T07:52:35Z</time>
      </trkpt>
      <trkpt lat="46.7655" lon="4.71433">
        <ele>247</ele>
        <time>2014-08-13T07:52:51Z</time>
      </trkpt>
      <trkpt lat="46.76548" lon="4.71431">
        <ele>247</ele>
        <time>2014-08-13T07:53:17Z</time>
      </trkpt>
      <trkpt lat="46.76543" lon="4.71432">
        <ele>247</ele>
        <time>2014-08-13T07:53:21Z</time>
      </trkpt>
      <trkpt lat="46.76539" lon="4.71429">
        <ele>248</ele>
        <time>2014-08-13T07:53:25Z</time>
      </trkpt>
      <trkpt lat="46.76533" lon="4.7141">
        <ele>251</ele>
        <time>2014-08-13T07:53:43Z</time>
      </trkpt>
      <trkpt lat="46.76532" lon="4.71402">
        <ele>251</ele>
        <time>2014-08-13T07:53:48Z</time>
      </trkpt>
      <trkpt lat="46.76528" lon="4.71396">
        <ele>252</ele>
        <time>2014-08-13T07:53:52Z</time>
      </trkpt>
      <trkpt lat="46.76524" lon="4.71393">
        <ele>252</ele>
        <time>2014-08-13T07:53:59Z</time>
      </trkpt>
      <trkpt lat="46.76516" lon="4.71384">
        <ele>253</ele>
        <time>2014-08-13T07:54:10Z</time>
      </trkpt>
      <trkpt lat="46.76514" lon="4.71377">
        <ele>253</ele>
        <time>2014-08-13T07:54:17Z</time>
      </trkpt>
      <trkpt lat="46.7651" lon="4.71374">
        <ele>253</ele>
        <time>2014-08-13T07:54:21Z</time>
      </trkpt>
      <trkpt lat="46.76506" lon="4.71372">
        <ele>254</ele>
        <time>2014-08-13T07:54:25Z</time>
      </trkpt>
      <trkpt lat="46.76501" lon="4.71367">
        <ele>254</ele>
        <time>2014-08-13T07:54:30Z</time>
      </trkpt>
      <trkpt lat="46.76493" lon="4.71359">
        <ele>261</ele>
        <time>2014-08-13T07:54:39Z</time>
      </trkpt>
      <trkpt lat="46.76477" lon="4.71334">
        <ele>262</ele>
        <time>2014-08-13T07:55:09Z</time>
      </trkpt>
      <trkpt lat="46.76472" lon="4.71331">
        <ele>267</ele>
        <time>2014-08-13T07:55:18Z</time>
      </trkpt>
      <trkpt lat="46.76467" lon="4.71332">
        <ele>267</ele>
        <time>2014-08-13T07:55:22Z</time>
      </trkpt>
      <trkpt lat="46.76462" lon="4.71334">
        <ele>263</ele>
        <time>2014-08-13T07:55:30Z</time>
      </trkpt>
      <trkpt lat="46.76458" lon="4.71336">
        <ele>263</ele>
        <time>2014-08-13T07:55:33Z</time>
      </trkpt>
      <trkpt lat="46.76434" lon="4.7135">
        <ele>265</ele>
        <time>2014-08-13T07:55:54Z</time>
      </trkpt>
      <trkpt lat="46.76429" lon="4.71351">
        <ele>265</ele>
        <time>2014-08-13T07:56:01Z</time>
      </trkpt>
      <trkpt lat="46.76425" lon="4.71355">
        <ele>265</ele>
        <time>2014-08-13T07:56:05Z</time>
      </trkpt>
      <trkpt lat="46.76419" lon="4.71356">
        <ele>265</ele>
        <time>2014-08-13T07:56:10Z</time>
      </trkpt>
      <trkpt lat="46.7641" lon="4.71361">
        <ele>267</ele>
        <time>2014-08-13T07:56:18Z</time>
      </trkpt>
      <trkpt lat="46.76395" lon="4.71362">
        <ele>267</ele>
        <time>2014-08-13T07:56:31Z</time>
      </trkpt>
      <trkpt lat="46.76392" lon="4.71362">
        <ele>267</ele>
        <time>2014-08-13T07:56:38Z</time>
      </trkpt>
      <trkpt lat="46.76387" lon="4.7136">
        <ele>267</ele>
        <time>2014-08-13T07:56:50Z</time>
      </trkpt>
      <trkpt lat="46.76381" lon="4.71357">
        <ele>267</ele>
        <time>2014-08-13T07:56:55Z</time>
      </trkpt>
      <trkpt lat="46.76377" lon="4.71354">
        <ele>267</ele>
        <time>2014-08-13T07:56:58Z</time>
      </trkpt>
      <trkpt lat="46.76372" lon="4.71353">
        <ele>267</ele>
        <time>2014-08-13T07:57:02Z</time>
      </trkpt>
      <trkpt lat="46.76367" lon="4.71351">
        <ele>267</ele>
        <time>2014-08-13T07:57:07Z</time>
      </trkpt>
      <trkpt lat="46.76363" lon="4.71347">
        <ele>268</ele>
        <time>2014-08-13T07:57:11Z</time>
      </trkpt>
      <trkpt lat="46.76358" lon="4.71348">
        <ele>268</ele>
        <time>2014-08-13T07:57:16Z</time>
      </trkpt>
      <trkpt lat="46.76353" lon="4.71344">
        <ele>268</ele>
        <time>2014-08-13T07:57:21Z</time>
      </trkpt>
      <trkpt lat="46.76338" lon="4.71334">
        <ele>270</ele>
        <time>2014-08-13T07:57:31Z</time>
      </trkpt>
      <trkpt lat="46.76328" lon="4.71329">
        <ele>272</ele>
        <time>2014-08-13T07:57:40Z</time>
      </trkpt>
      <trkpt lat="46.76323" lon="4.71326">
        <ele>272</ele>
        <time>2014-08-13T07:57:46Z</time>
      </trkpt>
      <trkpt lat="46.76308" lon="4.7132">
        <ele>272</ele>
        <time>2014-08-13T07:58:00Z</time>
      </trkpt>
      <trkpt lat="46.76304" lon="4.71317">
        <ele>273</ele>
        <time>2014-08-13T07:58:05Z</time>
      </trkpt>
      <trkpt lat="46.76299" lon="4.71318">
        <ele>272</ele>
        <time>2014-08-13T07:58:09Z</time>
      </trkpt>
      <trkpt lat="46.76296" lon="4.71311">
        <ele>273</ele>
        <time>2014-08-13T07:58:18Z</time>
      </trkpt>
      <trkpt lat="46.76293" lon="4.71307">
        <ele>273</ele>
        <time>2014-08-13T07:58:23Z</time>
      </trkpt>
      <trkpt lat="46.76282" lon="4.71308">
        <ele>273</ele>
        <time>2014-08-13T07:58:36Z</time>
      </trkpt>
      <trkpt lat="46.76277" lon="4.71306">
        <ele>273</ele>
        <time>2014-08-13T07:58:39Z</time>
      </trkpt>
      <trkpt lat="46.76274" lon="4.71302">
        <ele>273</ele>
        <time>2014-08-13T07:58:43Z</time>
      </trkpt>
      <trkpt lat="46.76273" lon="4.71295">
        <ele>273</ele>
        <time>2014-08-13T07:58:49Z</time>
      </trkpt>
      <trkpt lat="46.76277" lon="4.71289">
        <ele>273</ele>
        <time>2014-08-13T07:58:56Z</time>
      </trkpt>
      <trkpt lat="46.7628" lon="4.71286">
        <ele>274</ele>
        <time>2014-08-13T07:59:05Z</time>
      </trkpt>
      <trkpt lat="46.76282" lon="4.71289">
        <ele>274</ele>
        <time>2014-08-13T07:59:31Z</time>
      </trkpt>
      <trkpt lat="46.76287" lon="4.71291">
        <ele>273</ele>
        <time>2014-08-13T07:59:34Z</time>
      </trkpt>
      <trkpt lat="46.76292" lon="4.71287">
        <ele>274</ele>
        <time>2014-08-13T07:59:38Z</time>
      </trkpt>
      <trkpt lat="46.76305" lon="4.71277">
        <ele>274</ele>
        <time>2014-08-13T07:59:50Z</time>
      </trkpt>
      <trkpt lat="46.76313" lon="4.71267">
        <ele>275</ele>
        <time>2014-08-13T07:59:59Z</time>
      </trkpt>
      <trkpt lat="46.7633" lon="4.71226">
        <ele>280</ele>
        <time>2014-08-13T08:00:30Z</time>
      </trkpt>
      <trkpt lat="46.76338" lon="4.71198">
        <ele>281</ele>
        <time>2014-08-13T08:00:47Z</time>
      </trkpt>
      <trkpt lat="46.76341" lon="4.71192">
        <ele>282</ele>
        <time>2014-08-13T08:00:50Z</time>
      </trkpt>
      <trkpt lat="46.76341" lon="4.71185">
        <ele>282</ele>
        <time>2014-08-13T08:00:55Z</time>
      </trkpt>
      <trkpt lat="46.76343" lon="4.71177">
        <ele>283</ele>
        <time>2014-08-13T08:00:59Z</time>
      </trkpt>
      <trkpt lat="46.76338" lon="4.71156">
        <ele>285</ele>
        <time>2014-08-13T08:01:12Z</time>
      </trkpt>
      <trkpt lat="46.76319" lon="4.71116">
        <ele>286</ele>
        <time>2014-08-13T08:01:44Z</time>
      </trkpt>
      <trkpt lat="46.76316" lon="4.71101">
        <ele>287</ele>
        <time>2014-08-13T08:01:52Z</time>
      </trkpt>
      <trkpt lat="46.76313" lon="4.71101">
        <ele>287</ele>
        <time>2014-08-13T08:02:00Z</time>
      </trkpt>
      <trkpt lat="46.76309" lon="4.711">
        <ele>287</ele>
        <time>2014-08-13T08:02:18Z</time>
      </trkpt>
      <trkpt lat="46.76309" lon="4.71092">
        <ele>287</ele>
        <time>2014-08-13T08:02:22Z</time>
      </trkpt>
      <trkpt lat="46.76311" lon="4.71076">
        <ele>290</ele>
        <time>2014-08-13T08:02:30Z</time>
      </trkpt>
      <trkpt lat="46.76312" lon="4.71069">
        <ele>290</ele>
        <time>2014-08-13T08:02:34Z</time>
      </trkpt>
      <trkpt lat="46.76315" lon="4.71063">
        <ele>290</ele>
        <time>2014-08-13T08:02:38Z</time>
      </trkpt>
      <trkpt lat="46.76316" lon="4.71057">
        <ele>290</ele>
        <time>2014-08-13T08:02:42Z</time>
      </trkpt>
      <trkpt lat="46.76316" lon="4.71049">
        <ele>290</ele>
        <time>2014-08-13T08:02:47Z</time>
      </trkpt>
      <trkpt lat="46.76316" lon="4.71043">
        <ele>290</ele>
        <time>2014-08-13T08:02:52Z</time>
      </trkpt>
      <trkpt lat="46.7632" lon="4.71022">
        <ele>291</ele>
        <time>2014-08-13T08:03:12Z</time>
      </trkpt>
      <trkpt lat="46.76322" lon="4.7102">
        <ele>291</ele>
        <time>2014-08-13T08:03:30Z</time>
      </trkpt>
      <trkpt lat="46.76325" lon="4.71013">
        <ele>292</ele>
        <time>2014-08-13T08:03:32Z</time>
      </trkpt>
      <trkpt lat="46.76327" lon="4.71005">
        <ele>293</ele>
        <time>2014-08-13T08:03:36Z</time>
      </trkpt>
      <trkpt lat="46.7633" lon="4.70998">
        <ele>295</ele>
        <time>2014-08-13T08:03:40Z</time>
      </trkpt>
      <trkpt lat="46.76331" lon="4.70983">
        <ele>294</ele>
        <time>2014-08-13T08:03:48Z</time>
      </trkpt>
      <trkpt lat="46.76332" lon="4.70968">
        <ele>294</ele>
        <time>2014-08-13T08:03:58Z</time>
      </trkpt>
      <trkpt lat="46.76334" lon="4.70938">
        <ele>298</ele>
        <time>2014-08-13T08:04:16Z</time>
      </trkpt>
      <trkpt lat="46.76333" lon="4.70922">
        <ele>299</ele>
        <time>2014-08-13T08:04:25Z</time>
      </trkpt>
      <trkpt lat="46.7633" lon="4.70915">
        <ele>300</ele>
        <time>2014-08-13T08:04:30Z</time>
      </trkpt>
      <trkpt lat="46.76327" lon="4.70911">
        <ele>300</ele>
        <time>2014-08-13T08:04:42Z</time>
      </trkpt>
      <trkpt lat="46.76322" lon="4.70909">
        <ele>300</ele>
        <time>2014-08-13T08:04:47Z</time>
      </trkpt>
      <trkpt lat="46.76309" lon="4.70896">
        <ele>300</ele>
        <time>2014-08-13T08:05:00Z</time>
      </trkpt>
      <trkpt lat="46.76305" lon="4.70892">
        <ele>300</ele>
        <time>2014-08-13T08:05:04Z</time>
      </trkpt>
      <trkpt lat="46.76296" lon="4.70886">
        <ele>299</ele>
        <time>2014-08-13T08:05:10Z</time>
      </trkpt>
      <trkpt lat="46.76292" lon="4.70883">
        <ele>299</ele>
        <time>2014-08-13T08:05:14Z</time>
      </trkpt>
      <trkpt lat="46.76288" lon="4.70881">
        <ele>299</ele>
        <time>2014-08-13T08:05:19Z</time>
      </trkpt>
      <trkpt lat="46.76268" lon="4.70871">
        <ele>299</ele>
        <time>2014-08-13T08:05:38Z</time>
      </trkpt>
      <trkpt lat="46.76259" lon="4.70862">
        <ele>299</ele>
        <time>2014-08-13T08:05:46Z</time>
      </trkpt>
      <trkpt lat="46.76252" lon="4.70852">
        <ele>300</ele>
        <time>2014-08-13T08:05:54Z</time>
      </trkpt>
      <trkpt lat="46.76245" lon="4.70841">
        <ele>298</ele>
        <time>2014-08-13T08:06:01Z</time>
      </trkpt>
      <trkpt lat="46.76239" lon="4.70829">
        <ele>299</ele>
        <time>2014-08-13T08:06:09Z</time>
      </trkpt>
      <trkpt lat="46.76234" lon="4.70823">
        <ele>299</ele>
        <time>2014-08-13T08:06:14Z</time>
      </trkpt>
      <trkpt lat="46.76231" lon="4.70817">
        <ele>299</ele>
        <time>2014-08-13T08:06:17Z</time>
      </trkpt>
      <trkpt lat="46.76221" lon="4.70803">
        <ele>298</ele>
        <time>2014-08-13T08:06:32Z</time>
      </trkpt>
      <trkpt lat="46.76217" lon="4.70795">
        <ele>298</ele>
        <time>2014-08-13T08:06:57Z</time>
      </trkpt>
      <trkpt lat="46.76214" lon="4.70788">
        <ele>298</ele>
        <time>2014-08-13T08:07:04Z</time>
      </trkpt>
      <trkpt lat="46.76204" lon="4.7078">
        <ele>297</ele>
        <time>2014-08-13T08:07:12Z</time>
      </trkpt>
      <trkpt lat="46.76202" lon="4.70774">
        <ele>297</ele>
        <time>2014-08-13T08:07:19Z</time>
      </trkpt>
      <trkpt lat="46.76203" lon="4.70766">
        <ele>297</ele>
        <time>2014-08-13T08:07:40Z</time>
      </trkpt>
      <trkpt lat="46.76202" lon="4.7076">
        <ele>297</ele>
        <time>2014-08-13T08:07:42Z</time>
      </trkpt>
      <trkpt lat="46.762" lon="4.70755">
        <ele>297</ele>
        <time>2014-08-13T08:07:44Z</time>
      </trkpt>
      <trkpt lat="46.76195" lon="4.70754">
        <ele>297</ele>
        <time>2014-08-13T08:07:53Z</time>
      </trkpt>
      <trkpt lat="46.76196" lon="4.7076">
        <ele>297</ele>
        <time>2014-08-13T08:08:09Z</time>
      </trkpt>
      <trkpt lat="46.76193" lon="4.70755">
        <ele>296</ele>
        <time>2014-08-13T08:08:48Z</time>
      </trkpt>
      <trkpt lat="46.76182" lon="4.70749">
        <ele>296</ele>
        <time>2014-08-13T08:08:55Z</time>
      </trkpt>
      <trkpt lat="46.76179" lon="4.70743">
        <ele>296</ele>
        <time>2014-08-13T08:08:59Z</time>
      </trkpt>
      <trkpt lat="46.76178" lon="4.70736">
        <ele>296</ele>
        <time>2014-08-13T08:09:02Z</time>
      </trkpt>
      <trkpt lat="46.76177" lon="4.70722">
        <ele>296</ele>
        <time>2014-08-13T08:09:10Z</time>
      </trkpt>
      <trkpt lat="46.76176" lon="4.70715">
        <ele>296</ele>
        <time>2014-08-13T08:09:13Z</time>
      </trkpt>
      <trkpt lat="46.76176" lon="4.70707">
        <ele>296</ele>
        <time>2014-08-13T08:09:15Z</time>
      </trkpt>
      <trkpt lat="46.76179" lon="4.70694">
        <ele>296</ele>
        <time>2014-08-13T08:09:22Z</time>
      </trkpt>
      <trkpt lat="46.76182" lon="4.70687">
        <ele>296</ele>
        <time>2014-08-13T08:09:26Z</time>
      </trkpt>
      <trkpt lat="46.76184" lon="4.70681">
        <ele>295</ele>
        <time>2014-08-13T08:09:29Z</time>
      </trkpt>
      <trkpt lat="46.76186" lon="4.70673">
        <ele>295</ele>
        <time>2014-08-13T08:09:33Z</time>
      </trkpt>
      <trkpt lat="46.76186" lon="4.70667">
        <ele>294</ele>
        <time>2014-08-13T08:09:39Z</time>
      </trkpt>
      <trkpt lat="46.76196" lon="4.70652">
        <ele>296</ele>
        <time>2014-08-13T08:09:53Z</time>
      </trkpt>
      <trkpt lat="46.76196" lon="4.70644">
        <ele>296</ele>
        <time>2014-08-13T08:10:02Z</time>
      </trkpt>
      <trkpt lat="46.76198" lon="4.70636">
        <ele>296</ele>
        <time>2014-08-13T08:10:06Z</time>
      </trkpt>
      <trkpt lat="46.762" lon="4.7063">
        <ele>296</ele>
        <time>2014-08-13T08:10:10Z</time>
      </trkpt>
      <trkpt lat="46.762" lon="4.70623">
        <ele>296</ele>
        <time>2014-08-13T08:10:17Z</time>
      </trkpt>
      <trkpt lat="46.76199" lon="4.70616">
        <ele>296</ele>
        <time>2014-08-13T08:10:21Z</time>
      </trkpt>
      <trkpt lat="46.762" lon="4.70608">
        <ele>296</ele>
        <time>2014-08-13T08:10:26Z</time>
      </trkpt>
      <trkpt lat="46.76197" lon="4.70579">
        <ele>295</ele>
        <time>2014-08-13T08:10:42Z</time>
      </trkpt>
      <trkpt lat="46.76197" lon="4.70557">
        <ele>295</ele>
        <time>2014-08-13T08:10:56Z</time>
      </trkpt>
      <trkpt lat="46.76198" lon="4.70541">
        <ele>295</ele>
        <time>2014-08-13T08:11:07Z</time>
      </trkpt>
      <trkpt lat="46.76199" lon="4.70534">
        <ele>296</ele>
        <time>2014-08-13T08:11:10Z</time>
      </trkpt>
      <trkpt lat="46.76199" lon="4.70527">
        <ele>296</ele>
        <time>2014-08-13T08:11:15Z</time>
      </trkpt>
      <trkpt lat="46.762" lon="4.7052">
        <ele>296</ele>
        <time>2014-08-13T08:11:19Z</time>
      </trkpt>
      <trkpt lat="46.76201" lon="4.70504">
        <ele>296</ele>
        <time>2014-08-13T08:11:26Z</time>
      </trkpt>
      <trkpt lat="46.76201" lon="4.70491">
        <ele>297</ele>
        <time>2014-08-13T08:11:35Z</time>
      </trkpt>
      <trkpt lat="46.762" lon="4.70477">
        <ele>297</ele>
        <time>2014-08-13T08:11:42Z</time>
      </trkpt>
      <trkpt lat="46.76199" lon="4.70434">
        <ele>297</ele>
        <time>2014-08-13T08:12:06Z</time>
      </trkpt>
      <trkpt lat="46.76199" lon="4.70412">
        <ele>299</ele>
        <time>2014-08-13T08:12:20Z</time>
      </trkpt>
      <trkpt lat="46.76205" lon="4.70391">
        <ele>300</ele>
        <time>2014-08-13T08:12:30Z</time>
      </trkpt>
      <trkpt lat="46.76205" lon="4.70384">
        <ele>300</ele>
        <time>2014-08-13T08:12:37Z</time>
      </trkpt>
      <trkpt lat="46.76202" lon="4.70378">
        <ele>300</ele>
        <time>2014-08-13T08:12:40Z</time>
      </trkpt>
      <trkpt lat="46.76203" lon="4.70371">
        <ele>300</ele>
        <time>2014-08-13T08:12:43Z</time>
      </trkpt>
      <trkpt lat="46.76204" lon="4.70349">
        <ele>300</ele>
        <time>2014-08-13T08:12:55Z</time>
      </trkpt>
      <trkpt lat="46.76201" lon="4.70327">
        <ele>300</ele>
        <time>2014-08-13T08:13:07Z</time>
      </trkpt>
      <trkpt lat="46.76198" lon="4.70322">
        <ele>300</ele>
        <time>2014-08-13T08:13:13Z</time>
      </trkpt>
      <trkpt lat="46.76195" lon="4.70308">
        <ele>300</ele>
        <time>2014-08-13T08:13:22Z</time>
      </trkpt>
      <trkpt lat="46.76193" lon="4.70292">
        <ele>300</ele>
        <time>2014-08-13T08:13:30Z</time>
      </trkpt>
      <trkpt lat="46.76192" lon="4.70285">
        <ele>300</ele>
        <time>2014-08-13T08:13:34Z</time>
      </trkpt>
      <trkpt lat="46.7619" lon="4.7027">
        <ele>299</ele>
        <time>2014-08-13T08:13:41Z</time>
      </trkpt>
      <trkpt lat="46.76191" lon="4.70255">
        <ele>299</ele>
        <time>2014-08-13T08:13:50Z</time>
      </trkpt>
      <trkpt lat="46.76189" lon="4.70247">
        <ele>298</ele>
        <time>2014-08-13T08:13:53Z</time>
      </trkpt>
      <trkpt lat="46.76188" lon="4.7024">
        <ele>298</ele>
        <time>2014-08-13T08:13:56Z</time>
      </trkpt>
      <trkpt lat="46.76188" lon="4.70233">
        <ele>299</ele>
        <time>2014-08-13T08:14:01Z</time>
      </trkpt>
      <trkpt lat="46.76185" lon="4.70227">
        <ele>298</ele>
        <time>2014-08-13T08:14:05Z</time>
      </trkpt>
      <trkpt lat="46.76175" lon="4.70221">
        <ele>298</ele>
        <time>2014-08-13T08:14:14Z</time>
      </trkpt>
      <trkpt lat="46.7617" lon="4.70218">
        <ele>298</ele>
        <time>2014-08-13T08:14:18Z</time>
      </trkpt>
      <trkpt lat="46.76167" lon="4.70215">
        <ele>289</ele>
        <time>2014-08-13T08:14:21Z</time>
      </trkpt>
      <trkpt lat="46.76162" lon="4.70211">
        <ele>289</ele>
        <time>2014-08-13T08:14:25Z</time>
      </trkpt>
      <trkpt lat="46.76157" lon="4.70208">
        <ele>288</ele>
        <time>2014-08-13T08:14:31Z</time>
      </trkpt>
      <trkpt lat="46.76154" lon="4.70203">
        <ele>288</ele>
        <time>2014-08-13T08:14:35Z</time>
      </trkpt>
      <trkpt lat="46.7615" lon="4.70198">
        <ele>288</ele>
        <time>2014-08-13T08:14:39Z</time>
      </trkpt>
      <trkpt lat="46.76149" lon="4.70191">
        <ele>288</ele>
        <time>2014-08-13T08:14:45Z</time>
      </trkpt>
      <trkpt lat="46.7615" lon="4.70184">
        <ele>288</ele>
        <time>2014-08-13T08:14:47Z</time>
      </trkpt>
      <trkpt lat="46.76147" lon="4.70133">
        <ele>288</ele>
        <time>2014-08-13T08:15:17Z</time>
      </trkpt>
      <trkpt lat="46.76146" lon="4.70127">
        <ele>288</ele>
        <time>2014-08-13T08:15:25Z</time>
      </trkpt>
      <trkpt lat="46.76144" lon="4.7012">
        <ele>288</ele>
        <time>2014-08-13T08:15:29Z</time>
      </trkpt>
      <trkpt lat="46.7614" lon="4.70115">
        <ele>288</ele>
        <time>2014-08-13T08:15:32Z</time>
      </trkpt>
      <trkpt lat="46.7614" lon="4.70108">
        <ele>288</ele>
        <time>2014-08-13T08:15:38Z</time>
      </trkpt>
      <trkpt lat="46.76142" lon="4.70102">
        <ele>288</ele>
        <time>2014-08-13T08:15:41Z</time>
      </trkpt>
      <trkpt lat="46.7614" lon="4.70095">
        <ele>289</ele>
        <time>2014-08-13T08:15:48Z</time>
      </trkpt>
      <trkpt lat="46.76136" lon="4.7009">
        <ele>288</ele>
        <time>2014-08-13T08:15:53Z</time>
      </trkpt>
      <trkpt lat="46.76134" lon="4.70083">
        <ele>291</ele>
        <time>2014-08-13T08:15:57Z</time>
      </trkpt>
      <trkpt lat="46.76131" lon="4.70077">
        <ele>291</ele>
        <time>2014-08-13T08:16:02Z</time>
      </trkpt>
      <trkpt lat="46.76128" lon="4.70072">
        <ele>291</ele>
        <time>2014-08-13T08:16:06Z</time>
      </trkpt>
      <trkpt lat="46.76124" lon="4.70067">
        <ele>291</ele>
        <time>2014-08-13T08:16:11Z</time>
      </trkpt>
      <trkpt lat="46.76114" lon="4.70052">
        <ele>291</ele>
        <time>2014-08-13T08:16:26Z</time>
      </trkpt>
      <trkpt lat="46.76099" lon="4.70014">
        <ele>293</ele>
        <time>2014-08-13T08:16:59Z</time>
      </trkpt>
      <trkpt lat="46.76096" lon="4.70006">
        <ele>293</ele>
        <time>2014-08-13T08:17:03Z</time>
      </trkpt>
      <trkpt lat="46.76087" lon="4.69988">
        <ele>297</ele>
        <time>2014-08-13T08:17:18Z</time>
      </trkpt>
      <trkpt lat="46.7609" lon="4.69987">
        <ele>297</ele>
        <time>2014-08-13T08:17:35Z</time>
      </trkpt>
      <trkpt lat="46.76089" lon="4.69979">
        <ele>299</ele>
        <time>2014-08-13T08:17:47Z</time>
      </trkpt>
      <trkpt lat="46.76086" lon="4.69972">
        <ele>300</ele>
        <time>2014-08-13T08:17:53Z</time>
      </trkpt>
      <trkpt lat="46.76084" lon="4.69976">
        <ele>299</ele>
        <time>2014-08-13T08:18:09Z</time>
      </trkpt>
      <trkpt lat="46.76081" lon="4.69969">
        <ele>295</ele>
        <time>2014-08-13T08:18:13Z</time>
      </trkpt>
      <trkpt lat="46.76079" lon="4.69962">
        <ele>296</ele>
        <time>2014-08-13T08:18:17Z</time>
      </trkpt>
      <trkpt lat="46.76078" lon="4.69955">
        <ele>297</ele>
        <time>2014-08-13T08:18:25Z</time>
      </trkpt>
      <trkpt lat="46.76077" lon="4.69949">
        <ele>297</ele>
        <time>2014-08-13T08:18:29Z</time>
      </trkpt>
      <trkpt lat="46.76071" lon="4.69936">
        <ele>299</ele>
        <time>2014-08-13T08:18:39Z</time>
      </trkpt>
      <trkpt lat="46.76063" lon="4.69901">
        <ele>305</ele>
        <time>2014-08-13T08:19:05Z</time>
      </trkpt>
      <trkpt lat="46.76055" lon="4.69858">
        <ele>308</ele>
        <time>2014-08-13T08:19:39Z</time>
      </trkpt>
      <trkpt lat="46.76047" lon="4.69809">
        <ele>316</ele>
        <time>2014-08-13T08:20:11Z</time>
      </trkpt>
      <trkpt lat="46.76039" lon="4.69788">
        <ele>317</ele>
        <time>2014-08-13T08:20:26Z</time>
      </trkpt>
      <trkpt lat="46.76025" lon="4.69741">
        <ele>322</ele>
        <time>2014-08-13T08:20:59Z</time>
      </trkpt>
      <trkpt lat="46.76024" lon="4.69734">
        <ele>322</ele>
        <time>2014-08-13T08:21:03Z</time>
      </trkpt>
      <trkpt lat="46.7602" lon="4.6972">
        <ele>323</ele>
        <time>2014-08-13T08:21:13Z</time>
      </trkpt>
      <trkpt lat="46.7602" lon="4.69712">
        <ele>323</ele>
        <time>2014-08-13T08:21:17Z</time>
      </trkpt>
      <trkpt lat="46.76021" lon="4.69705">
        <ele>324</ele>
        <time>2014-08-13T08:21:22Z</time>
      </trkpt>
      <trkpt lat="46.76023" lon="4.69698">
        <ele>324</ele>
        <time>2014-08-13T08:21:25Z</time>
      </trkpt>
      <trkpt lat="46.7602" lon="4.69678">
        <ele>324</ele>
        <time>2014-08-13T08:21:35Z</time>
      </trkpt>
      <trkpt lat="46.76019" lon="4.69671">
        <ele>323</ele>
        <time>2014-08-13T08:21:39Z</time>
      </trkpt>
      <trkpt lat="46.76023" lon="4.69659">
        <ele>328</ele>
        <time>2014-08-13T08:21:56Z</time>
      </trkpt>
      <trkpt lat="46.76022" lon="4.69652">
        <ele>328</ele>
        <time>2014-08-13T08:22:01Z</time>
      </trkpt>
      <trkpt lat="46.7602" lon="4.69637">
        <ele>329</ele>
        <time>2014-08-13T08:22:08Z</time>
      </trkpt>
      <trkpt lat="46.76017" lon="4.69631">
        <ele>329</ele>
        <time>2014-08-13T08:22:15Z</time>
      </trkpt>
      <trkpt lat="46.76016" lon="4.69624">
        <ele>330</ele>
        <time>2014-08-13T08:22:20Z</time>
      </trkpt>
      <trkpt lat="46.76015" lon="4.69617">
        <ele>330</ele>
        <time>2014-08-13T08:22:23Z</time>
      </trkpt>
      <trkpt lat="46.76013" lon="4.69603">
        <ele>330</ele>
        <time>2014-08-13T08:22:34Z</time>
      </trkpt>
      <trkpt lat="46.76012" lon="4.69574">
        <ele>332</ele>
        <time>2014-08-13T08:22:48Z</time>
      </trkpt>
      <trkpt lat="46.7601" lon="4.69568">
        <ele>333</ele>
        <time>2014-08-13T08:22:52Z</time>
      </trkpt>
      <trkpt lat="46.76008" lon="4.69566">
        <ele>333</ele>
        <time>2014-08-13T08:22:57Z</time>
      </trkpt>
      <trkpt lat="46.76005" lon="4.69559">
        <ele>334</ele>
        <time>2014-08-13T08:23:12Z</time>
      </trkpt>
      <trkpt lat="46.76005" lon="4.69552">
        <ele>335</ele>
        <time>2014-08-13T08:23:20Z</time>
      </trkpt>
      <trkpt lat="46.76003" lon="4.69545">
        <ele>335</ele>
        <time>2014-08-13T08:23:25Z</time>
      </trkpt>
      <trkpt lat="46.76003" lon="4.69537">
        <ele>336</ele>
        <time>2014-08-13T08:23:30Z</time>
      </trkpt>
      <trkpt lat="46.76001" lon="4.69531">
        <ele>336</ele>
        <time>2014-08-13T08:23:35Z</time>
      </trkpt>
      <trkpt lat="46.75997" lon="4.69526">
        <ele>325</ele>
        <time>2014-08-13T08:23:38Z</time>
      </trkpt>
      <trkpt lat="46.75989" lon="4.69519">
        <ele>325</ele>
        <time>2014-08-13T08:23:45Z</time>
      </trkpt>
      <trkpt lat="46.75985" lon="4.69515">
        <ele>325</ele>
        <time>2014-08-13T08:23:50Z</time>
      </trkpt>
      <trkpt lat="46.75985" lon="4.69508">
        <ele>326</ele>
        <time>2014-08-13T08:23:52Z</time>
      </trkpt>
      <trkpt lat="46.75985" lon="4.69501">
        <ele>327</ele>
        <time>2014-08-13T08:23:55Z</time>
      </trkpt>
      <trkpt lat="46.75982" lon="4.69487">
        <ele>329</ele>
        <time>2014-08-13T08:24:04Z</time>
      </trkpt>
      <trkpt lat="46.7598" lon="4.69481">
        <ele>329</ele>
        <time>2014-08-13T08:24:06Z</time>
      </trkpt>
      <trkpt lat="46.75973" lon="4.69471">
        <ele>328</ele>
        <time>2014-08-13T08:24:14Z</time>
      </trkpt>
      <trkpt lat="46.75972" lon="4.69463">
        <ele>328</ele>
        <time>2014-08-13T08:24:18Z</time>
      </trkpt>
      <trkpt lat="46.75963" lon="4.69453">
        <ele>328</ele>
        <time>2014-08-13T08:24:25Z</time>
      </trkpt>
      <trkpt lat="46.75962" lon="4.69447">
        <ele>328</ele>
        <time>2014-08-13T08:24:30Z</time>
      </trkpt>
      <trkpt lat="46.75959" lon="4.69439">
        <ele>328</ele>
        <time>2014-08-13T08:24:33Z</time>
      </trkpt>
      <trkpt lat="46.75957" lon="4.69433">
        <ele>328</ele>
        <time>2014-08-13T08:24:38Z</time>
      </trkpt>
      <trkpt lat="46.75955" lon="4.69418">
        <ele>328</ele>
        <time>2014-08-13T08:24:46Z</time>
      </trkpt>
      <trkpt lat="46.75956" lon="4.69411">
        <ele>331</ele>
        <time>2014-08-13T08:24:49Z</time>
      </trkpt>
      <trkpt lat="46.75956" lon="4.694">
        <ele>331</ele>
        <time>2014-08-13T08:24:52Z</time>
      </trkpt>
      <trkpt lat="46.75956" lon="4.69392">
        <ele>332</ele>
        <time>2014-08-13T08:24:56Z</time>
      </trkpt>
      <trkpt lat="46.75951" lon="4.69387">
        <ele>331</ele>
        <time>2014-08-13T08:25:02Z</time>
      </trkpt>
      <trkpt lat="46.75947" lon="4.69383">
        <ele>331</ele>
        <time>2014-08-13T08:25:06Z</time>
      </trkpt>
      <trkpt lat="46.75946" lon="4.69376">
        <ele>331</ele>
        <time>2014-08-13T08:25:10Z</time>
      </trkpt>
      <trkpt lat="46.75942" lon="4.69354">
        <ele>330</ele>
        <time>2014-08-13T08:25:24Z</time>
      </trkpt>
      <trkpt lat="46.75937" lon="4.69341">
        <ele>329</ele>
        <time>2014-08-13T08:25:33Z</time>
      </trkpt>
      <trkpt lat="46.75936" lon="4.69334">
        <ele>328</ele>
        <time>2014-08-13T08:25:37Z</time>
      </trkpt>
      <trkpt lat="46.75935" lon="4.69326">
        <ele>329</ele>
        <time>2014-08-13T08:25:43Z</time>
      </trkpt>
      <trkpt lat="46.75938" lon="4.69319">
        <ele>330</ele>
        <time>2014-08-13T08:25:47Z</time>
      </trkpt>
      <trkpt lat="46.75938" lon="4.69312">
        <ele>331</ele>
        <time>2014-08-13T08:25:52Z</time>
      </trkpt>
      <trkpt lat="46.75941" lon="4.69306">
        <ele>331</ele>
        <time>2014-08-13T08:25:58Z</time>
      </trkpt>
      <trkpt lat="46.75939" lon="4.69301">
        <ele>331</ele>
        <time>2014-08-13T08:26:24Z</time>
      </trkpt>
      <trkpt lat="46.75931" lon="4.69288">
        <ele>331</ele>
        <time>2014-08-13T08:26:33Z</time>
      </trkpt>
      <trkpt lat="46.75931" lon="4.69281">
        <ele>331</ele>
        <time>2014-08-13T08:26:37Z</time>
      </trkpt>
      <trkpt lat="46.75926" lon="4.69259">
        <ele>328</ele>
        <time>2014-08-13T08:26:48Z</time>
      </trkpt>
      <trkpt lat="46.75926" lon="4.69244">
        <ele>327</ele>
        <time>2014-08-13T08:26:53Z</time>
      </trkpt>
      <trkpt lat="46.75925" lon="4.69236">
        <ele>328</ele>
        <time>2014-08-13T08:26:59Z</time>
      </trkpt>
      <trkpt lat="46.75924" lon="4.6923">
        <ele>328</ele>
        <time>2014-08-13T08:27:03Z</time>
      </trkpt>
      <trkpt lat="46.75922" lon="4.69223">
        <ele>328</ele>
        <time>2014-08-13T08:27:07Z</time>
      </trkpt>
      <trkpt lat="46.75919" lon="4.6921">
        <ele>328</ele>
        <time>2014-08-13T08:27:13Z</time>
      </trkpt>
      <trkpt lat="46.75918" lon="4.69202">
        <ele>328</ele>
        <time>2014-08-13T08:27:18Z</time>
      </trkpt>
      <trkpt lat="46.7592" lon="4.69181">
        <ele>325</ele>
        <time>2014-08-13T08:27:54Z</time>
      </trkpt>
      <trkpt lat="46.75919" lon="4.69173">
        <ele>324</ele>
        <time>2014-08-13T08:28:00Z</time>
      </trkpt>
      <trkpt lat="46.75917" lon="4.6916">
        <ele>323</ele>
        <time>2014-08-13T08:28:10Z</time>
      </trkpt>
      <trkpt lat="46.75918" lon="4.69152">
        <ele>325</ele>
        <time>2014-08-13T08:28:14Z</time>
      </trkpt>
      <trkpt lat="46.75916" lon="4.69145">
        <ele>317</ele>
        <time>2014-08-13T08:28:17Z</time>
      </trkpt>
      <trkpt lat="46.75916" lon="4.69138">
        <ele>316</ele>
        <time>2014-08-13T08:28:21Z</time>
      </trkpt>
      <trkpt lat="46.75913" lon="4.69123">
        <ele>315</ele>
        <time>2014-08-13T08:28:30Z</time>
      </trkpt>
      <trkpt lat="46.75912" lon="4.69117">
        <ele>315</ele>
        <time>2014-08-13T08:28:34Z</time>
      </trkpt>
      <trkpt lat="46.7591" lon="4.6911">
        <ele>316</ele>
        <time>2014-08-13T08:28:41Z</time>
      </trkpt>
      <trkpt lat="46.75908" lon="4.69082">
        <ele>317</ele>
        <time>2014-08-13T08:28:54Z</time>
      </trkpt>
      <trkpt lat="46.75907" lon="4.69075">
        <ele>316</ele>
        <time>2014-08-13T08:28:59Z</time>
      </trkpt>
      <trkpt lat="46.75903" lon="4.69068">
        <ele>315</ele>
        <time>2014-08-13T08:29:04Z</time>
      </trkpt>
      <trkpt lat="46.75902" lon="4.6906">
        <ele>314</ele>
        <time>2014-08-13T08:29:08Z</time>
      </trkpt>
      <trkpt lat="46.75902" lon="4.69053">
        <ele>313</ele>
        <time>2014-08-13T08:29:12Z</time>
      </trkpt>
      <trkpt lat="46.75905" lon="4.69047">
        <ele>313</ele>
        <time>2014-08-13T08:29:16Z</time>
      </trkpt>
      <trkpt lat="46.75903" lon="4.69041">
        <ele>313</ele>
        <time>2014-08-13T08:29:31Z</time>
      </trkpt>
      <trkpt lat="46.759" lon="4.69034">
        <ele>313</ele>
        <time>2014-08-13T08:29:36Z</time>
      </trkpt>
      <trkpt lat="46.75897" lon="4.69012">
        <ele>313</ele>
        <time>2014-08-13T08:29:47Z</time>
      </trkpt>
      <trkpt lat="46.75899" lon="4.68995">
        <ele>312</ele>
        <time>2014-08-13T08:29:53Z</time>
      </trkpt>
      <trkpt lat="46.75901" lon="4.68989">
        <ele>312</ele>
        <time>2014-08-13T08:30:05Z</time>
      </trkpt>
      <trkpt lat="46.75898" lon="4.68984">
        <ele>311</ele>
        <time>2014-08-13T08:30:09Z</time>
      </trkpt>
      <trkpt lat="46.7589" lon="4.68972">
        <ele>309</ele>
        <time>2014-08-13T08:30:18Z</time>
      </trkpt>
      <trkpt lat="46.75889" lon="4.68966">
        <ele>309</ele>
        <time>2014-08-13T08:30:24Z</time>
      </trkpt>
      <trkpt lat="46.75889" lon="4.68959">
        <ele>309</ele>
        <time>2014-08-13T08:30:29Z</time>
      </trkpt>
      <trkpt lat="46.75883" lon="4.68944">
        <ele>308</ele>
        <time>2014-08-13T08:30:35Z</time>
      </trkpt>
      <trkpt lat="46.75877" lon="4.68931">
        <ele>307</ele>
        <time>2014-08-13T08:30:42Z</time>
      </trkpt>
      <trkpt lat="46.75879" lon="4.68924">
        <ele>307</ele>
        <time>2014-08-13T08:30:46Z</time>
      </trkpt>
      <trkpt lat="46.75877" lon="4.68916">
        <ele>305</ele>
        <time>2014-08-13T08:30:51Z</time>
      </trkpt>
      <trkpt lat="46.75874" lon="4.68909">
        <ele>304</ele>
        <time>2014-08-13T08:30:54Z</time>
      </trkpt>
      <trkpt lat="46.75868" lon="4.68898">
        <ele>304</ele>
        <time>2014-08-13T08:31:00Z</time>
      </trkpt>
      <trkpt lat="46.75866" lon="4.6889">
        <ele>304</ele>
        <time>2014-08-13T08:31:04Z</time>
      </trkpt>
      <trkpt lat="46.75864" lon="4.68883">
        <ele>303</ele>
        <time>2014-08-13T08:31:08Z</time>
      </trkpt>
      <trkpt lat="46.75861" lon="4.68878">
        <ele>303</ele>
        <time>2014-08-13T08:31:11Z</time>
      </trkpt>
      <trkpt lat="46.75858" lon="4.68873">
        <ele>303</ele>
        <time>2014-08-13T08:31:14Z</time>
      </trkpt>
      <trkpt lat="46.75849" lon="4.68864">
        <ele>302</ele>
        <time>2014-08-13T08:31:21Z</time>
      </trkpt>
      <trkpt lat="46.75845" lon="4.6886">
        <ele>302</ele>
        <time>2014-08-13T08:31:24Z</time>
      </trkpt>
      <trkpt lat="46.75816" lon="4.68832">
        <ele>297</ele>
        <time>2014-08-13T08:31:57Z</time>
      </trkpt>
      <trkpt lat="46.7581" lon="4.68829">
        <ele>297</ele>
        <time>2014-08-13T08:32:00Z</time>
      </trkpt>
      <trkpt lat="46.75802" lon="4.68825">
        <ele>297</ele>
        <time>2014-08-13T08:32:03Z</time>
      </trkpt>
      <trkpt lat="46.75799" lon="4.68817">
        <ele>297</ele>
        <time>2014-08-13T08:32:12Z</time>
      </trkpt>
      <trkpt lat="46.75795" lon="4.68814">
        <ele>297</ele>
        <time>2014-08-13T08:32:17Z</time>
      </trkpt>
      <trkpt lat="46.75791" lon="4.68813">
        <ele>297</ele>
        <time>2014-08-13T08:32:19Z</time>
      </trkpt>
      <trkpt lat="46.75783" lon="4.68802">
        <ele>297</ele>
        <time>2014-08-13T08:32:31Z</time>
      </trkpt>
      <trkpt lat="46.75779" lon="4.68798">
        <ele>297</ele>
        <time>2014-08-13T08:32:35Z</time>
      </trkpt>
      <trkpt lat="46.75774" lon="4.68795">
        <ele>296</ele>
        <time>2014-08-13T08:32:39Z</time>
      </trkpt>
      <trkpt lat="46.75759" lon="4.68792">
        <ele>296</ele>
        <time>2014-08-13T08:32:52Z</time>
      </trkpt>
      <trkpt lat="46.75746" lon="4.68807">
        <ele>296</ele>
        <time>2014-08-13T08:33:04Z</time>
      </trkpt>
      <trkpt lat="46.75741" lon="4.68808">
        <ele>296</ele>
        <time>2014-08-13T08:33:07Z</time>
      </trkpt>
      <trkpt lat="46.75736" lon="4.68809">
        <ele>296</ele>
        <time>2014-08-13T08:33:10Z</time>
      </trkpt>
      <trkpt lat="46.75731" lon="4.68808">
        <ele>296</ele>
        <time>2014-08-13T08:33:13Z</time>
      </trkpt>
      <trkpt lat="46.75727" lon="4.68804">
        <ele>297</ele>
        <time>2014-08-13T08:33:17Z</time>
      </trkpt>
      <trkpt lat="46.75723" lon="4.68806">
        <ele>297</ele>
        <time>2014-08-13T08:33:23Z</time>
      </trkpt>
      <trkpt lat="46.75718" lon="4.68803">
        <ele>297</ele>
        <time>2014-08-13T08:33:29Z</time>
      </trkpt>
      <trkpt lat="46.75691" lon="4.68782">
        <ele>297</ele>
        <time>2014-08-13T08:33:54Z</time>
      </trkpt>
      <trkpt lat="46.75685" lon="4.68782">
        <ele>297</ele>
        <time>2014-08-13T08:33:58Z</time>
      </trkpt>
      <trkpt lat="46.7568" lon="4.68778">
        <ele>297</ele>
        <time>2014-08-13T08:34:03Z</time>
      </trkpt>
      <trkpt lat="46.75676" lon="4.68773">
        <ele>297</ele>
        <time>2014-08-13T08:34:07Z</time>
      </trkpt>
      <trkpt lat="46.75672" lon="4.68771">
        <ele>298</ele>
        <time>2014-08-13T08:34:10Z</time>
      </trkpt>
      <trkpt lat="46.75665" lon="4.68762">
        <ele>297</ele>
        <time>2014-08-13T08:34:16Z</time>
      </trkpt>
      <trkpt lat="46.7566" lon="4.68759">
        <ele>297</ele>
        <time>2014-08-13T08:34:20Z</time>
      </trkpt>
      <trkpt lat="46.75646" lon="4.68749">
        <ele>296</ele>
        <time>2014-08-13T08:34:35Z</time>
      </trkpt>
      <trkpt lat="46.75636" lon="4.68752">
        <ele>295</ele>
        <time>2014-08-13T08:34:40Z</time>
      </trkpt>
      <trkpt lat="46.75608" lon="4.68735">
        <ele>294</ele>
        <time>2014-08-13T08:35:05Z</time>
      </trkpt>
      <trkpt lat="46.75597" lon="4.68735">
        <ele>294</ele>
        <time>2014-08-13T08:35:13Z</time>
      </trkpt>
      <trkpt lat="46.75591" lon="4.68735">
        <ele>294</ele>
        <time>2014-08-13T08:35:17Z</time>
      </trkpt>
      <trkpt lat="46.75586" lon="4.68736">
        <ele>294</ele>
        <time>2014-08-13T08:35:21Z</time>
      </trkpt>
      <trkpt lat="46.75581" lon="4.68737">
        <ele>290</ele>
        <time>2014-08-13T08:35:24Z</time>
      </trkpt>
      <trkpt lat="46.75576" lon="4.68737">
        <ele>290</ele>
        <time>2014-08-13T08:35:28Z</time>
      </trkpt>
      <trkpt lat="46.75571" lon="4.68737">
        <ele>289</ele>
        <time>2014-08-13T08:35:32Z</time>
      </trkpt>
      <trkpt lat="46.75554" lon="4.68733">
        <ele>287</ele>
        <time>2014-08-13T08:35:43Z</time>
      </trkpt>
      <trkpt lat="46.75549" lon="4.68734">
        <ele>287</ele>
        <time>2014-08-13T08:35:46Z</time>
      </trkpt>
      <trkpt lat="46.75534" lon="4.68738">
        <ele>285</ele>
        <time>2014-08-13T08:36:04Z</time>
      </trkpt>
      <trkpt lat="46.75529" lon="4.68737">
        <ele>285</ele>
        <time>2014-08-13T08:36:07Z</time>
      </trkpt>
      <trkpt lat="46.75524" lon="4.68736">
        <ele>285</ele>
        <time>2014-08-13T08:36:10Z</time>
      </trkpt>
      <trkpt lat="46.75519" lon="4.68732">
        <ele>284</ele>
        <time>2014-08-13T08:36:14Z</time>
      </trkpt>
      <trkpt lat="46.75515" lon="4.6873">
        <ele>284</ele>
        <time>2014-08-13T08:36:18Z</time>
      </trkpt>
      <trkpt lat="46.75509" lon="4.68727">
        <ele>284</ele>
        <time>2014-08-13T08:36:21Z</time>
      </trkpt>
      <trkpt lat="46.75504" lon="4.68717">
        <ele>284</ele>
        <time>2014-08-13T08:36:36Z</time>
      </trkpt>
      <trkpt lat="46.75502" lon="4.68702">
        <ele>283</ele>
        <time>2014-08-13T08:36:45Z</time>
      </trkpt>
      <trkpt lat="46.75498" lon="4.68698">
        <ele>276</ele>
        <time>2014-08-13T08:36:49Z</time>
      </trkpt>
      <trkpt lat="46.75494" lon="4.68685">
        <ele>276</ele>
        <time>2014-08-13T08:36:59Z</time>
      </trkpt>
      <trkpt lat="46.7549" lon="4.68633">
        <ele>274</ele>
        <time>2014-08-13T08:37:25Z</time>
      </trkpt>
      <trkpt lat="46.75492" lon="4.68626">
        <ele>274</ele>
        <time>2014-08-13T08:37:29Z</time>
      </trkpt>
      <trkpt lat="46.75493" lon="4.6862">
        <ele>274</ele>
        <time>2014-08-13T08:37:33Z</time>
      </trkpt>
      <trkpt lat="46.75494" lon="4.68612">
        <ele>274</ele>
        <time>2014-08-13T08:37:36Z</time>
      </trkpt>
      <trkpt lat="46.75493" lon="4.68605">
        <ele>274</ele>
        <time>2014-08-13T08:37:41Z</time>
      </trkpt>
      <trkpt lat="46.75489" lon="4.686">
        <ele>274</ele>
        <time>2014-08-13T08:37:45Z</time>
      </trkpt>
      <trkpt lat="46.75485" lon="4.686">
        <ele>273</ele>
        <time>2014-08-13T08:37:53Z</time>
      </trkpt>
      <trkpt lat="46.7548" lon="4.68597">
        <ele>273</ele>
        <time>2014-08-13T08:37:59Z</time>
      </trkpt>
      <trkpt lat="46.75472" lon="4.68588">
        <ele>273</ele>
        <time>2014-08-13T08:38:05Z</time>
      </trkpt>
      <trkpt lat="46.75445" lon="4.68611">
        <ele>271</ele>
        <time>2014-08-13T08:38:20Z</time>
      </trkpt>
      <trkpt lat="46.7544" lon="4.68608">
        <ele>271</ele>
        <time>2014-08-13T08:38:30Z</time>
      </trkpt>
      <trkpt lat="46.75435" lon="4.68609">
        <ele>270</ele>
        <time>2014-08-13T08:38:36Z</time>
      </trkpt>
      <trkpt lat="46.75431" lon="4.68611">
        <ele>270</ele>
        <time>2014-08-13T08:38:39Z</time>
      </trkpt>
      <trkpt lat="46.75428" lon="4.68617">
        <ele>270</ele>
        <time>2014-08-13T08:38:47Z</time>
      </trkpt>
      <trkpt lat="46.75419" lon="4.68619">
        <ele>270</ele>
        <time>2014-08-13T08:38:56Z</time>
      </trkpt>
      <trkpt lat="46.75413" lon="4.68618">
        <ele>265</ele>
        <time>2014-08-13T08:38:59Z</time>
      </trkpt>
      <trkpt lat="46.75408" lon="4.68614">
        <ele>264</ele>
        <time>2014-08-13T08:39:02Z</time>
      </trkpt>
      <trkpt lat="46.75402" lon="4.68599">
        <ele>265</ele>
        <time>2014-08-13T08:39:08Z</time>
      </trkpt>
      <trkpt lat="46.75394" lon="4.68592">
        <ele>264</ele>
        <time>2014-08-13T08:39:15Z</time>
      </trkpt>
      <trkpt lat="46.7539" lon="4.68588">
        <ele>264</ele>
        <time>2014-08-13T08:39:18Z</time>
      </trkpt>
      <trkpt lat="46.75385" lon="4.68586">
        <ele>264</ele>
        <time>2014-08-13T08:39:23Z</time>
      </trkpt>
      <trkpt lat="46.75381" lon="4.68583">
        <ele>264</ele>
        <time>2014-08-13T08:39:29Z</time>
      </trkpt>
      <trkpt lat="46.75377" lon="4.68577">
        <ele>264</ele>
        <time>2014-08-13T08:39:32Z</time>
      </trkpt>
      <trkpt lat="46.75375" lon="4.68571">
        <ele>264</ele>
        <time>2014-08-13T08:39:36Z</time>
      </trkpt>
      <trkpt lat="46.75362" lon="4.68558">
        <ele>263</ele>
        <time>2014-08-13T08:39:50Z</time>
      </trkpt>
      <trkpt lat="46.75344" lon="4.68524">
        <ele>263</ele>
        <time>2014-08-13T08:40:25Z</time>
      </trkpt>
      <trkpt lat="46.7534" lon="4.6851">
        <ele>262</ele>
        <time>2014-08-13T08:40:33Z</time>
      </trkpt>
      <trkpt lat="46.75333" lon="4.68498">
        <ele>261</ele>
        <time>2014-08-13T08:40:40Z</time>
      </trkpt>
      <trkpt lat="46.7533" lon="4.68483">
        <ele>262</ele>
        <time>2014-08-13T08:40:48Z</time>
      </trkpt>
      <trkpt lat="46.75327" lon="4.68478">
        <ele>263</ele>
        <time>2014-08-13T08:40:56Z</time>
      </trkpt>
      <trkpt lat="46.75324" lon="4.68463">
        <ele>263</ele>
        <time>2014-08-13T08:41:06Z</time>
      </trkpt>
      <trkpt lat="46.75322" lon="4.68457">
        <ele>264</ele>
        <time>2014-08-13T08:41:10Z</time>
      </trkpt>
      <trkpt lat="46.75319" lon="4.68443">
        <ele>264</ele>
        <time>2014-08-13T08:41:18Z</time>
      </trkpt>
      <trkpt lat="46.75317" lon="4.68437">
        <ele>264</ele>
        <time>2014-08-13T08:41:21Z</time>
      </trkpt>
      <trkpt lat="46.75318" lon="4.68422">
        <ele>265</ele>
        <time>2014-08-13T08:41:31Z</time>
      </trkpt>
      <trkpt lat="46.75317" lon="4.68415">
        <ele>267</ele>
        <time>2014-08-13T08:41:34Z</time>
      </trkpt>
      <trkpt lat="46.75313" lon="4.6841">
        <ele>267</ele>
        <time>2014-08-13T08:41:39Z</time>
      </trkpt>
      <trkpt lat="46.75309" lon="4.68405">
        <ele>267</ele>
        <time>2014-08-13T08:41:45Z</time>
      </trkpt>
      <trkpt lat="46.75305" lon="4.68402">
        <ele>268</ele>
        <time>2014-08-13T08:41:49Z</time>
      </trkpt>
      <trkpt lat="46.75299" lon="4.68397">
        <ele>268</ele>
        <time>2014-08-13T08:42:05Z</time>
      </trkpt>
      <trkpt lat="46.75294" lon="4.68395">
        <ele>268</ele>
        <time>2014-08-13T08:42:08Z</time>
      </trkpt>
      <trkpt lat="46.7529" lon="4.68392">
        <ele>268</ele>
        <time>2014-08-13T08:42:10Z</time>
      </trkpt>
      <trkpt lat="46.75287" lon="4.68386">
        <ele>269</ele>
        <time>2014-08-13T08:42:16Z</time>
      </trkpt>
      <trkpt lat="46.75251" lon="4.68362">
        <ele>270</ele>
        <time>2014-08-13T08:42:49Z</time>
      </trkpt>
      <trkpt lat="46.75247" lon="4.68358">
        <ele>275</ele>
        <time>2014-08-13T08:42:53Z</time>
      </trkpt>
      <trkpt lat="46.75246" lon="4.68352">
        <ele>275</ele>
        <time>2014-08-13T08:43:03Z</time>
      </trkpt>
      <trkpt lat="46.75241" lon="4.68349">
        <ele>275</ele>
        <time>2014-08-13T08:43:09Z</time>
      </trkpt>
      <trkpt lat="46.75236" lon="4.68347">
        <ele>276</ele>
        <time>2014-08-13T08:43:13Z</time>
      </trkpt>
      <trkpt lat="46.7523" lon="4.68346">
        <ele>276</ele>
        <time>2014-08-13T08:43:18Z</time>
      </trkpt>
      <trkpt lat="46.75222" lon="4.68338">
        <ele>277</ele>
        <time>2014-08-13T08:43:26Z</time>
      </trkpt>
      <trkpt lat="46.75218" lon="4.68334">
        <ele>277</ele>
        <time>2014-08-13T08:43:29Z</time>
      </trkpt>
      <trkpt lat="46.75209" lon="4.68327">
        <ele>281</ele>
        <time>2014-08-13T08:43:37Z</time>
      </trkpt>
      <trkpt lat="46.75205" lon="4.68324">
        <ele>282</ele>
        <time>2014-08-13T08:43:41Z</time>
      </trkpt>
      <trkpt lat="46.75191" lon="4.68319">
        <ele>283</ele>
        <time>2014-08-13T08:43:50Z</time>
      </trkpt>
      <trkpt lat="46.75184" lon="4.68309">
        <ele>283</ele>
        <time>2014-08-13T08:43:59Z</time>
      </trkpt>
      <trkpt lat="46.7518" lon="4.68295">
        <ele>284</ele>
        <time>2014-08-13T08:44:11Z</time>
      </trkpt>
      <trkpt lat="46.7518" lon="4.68288">
        <ele>284</ele>
        <time>2014-08-13T08:44:14Z</time>
      </trkpt>
      <trkpt lat="46.75177" lon="4.68282">
        <ele>284</ele>
        <time>2014-08-13T08:44:18Z</time>
      </trkpt>
      <trkpt lat="46.75173" lon="4.68278">
        <ele>285</ele>
        <time>2014-08-13T08:44:22Z</time>
      </trkpt>
      <trkpt lat="46.75169" lon="4.68272">
        <ele>285</ele>
        <time>2014-08-13T08:44:26Z</time>
      </trkpt>
      <trkpt lat="46.75168" lon="4.68258">
        <ele>288</ele>
        <time>2014-08-13T08:44:35Z</time>
      </trkpt>
      <trkpt lat="46.75169" lon="4.68251">
        <ele>289</ele>
        <time>2014-08-13T08:44:40Z</time>
      </trkpt>
      <trkpt lat="46.75174" lon="4.68247">
        <ele>289</ele>
        <time>2014-08-13T08:44:44Z</time>
      </trkpt>
      <trkpt lat="46.75179" lon="4.68245">
        <ele>288</ele>
        <time>2014-08-13T08:44:49Z</time>
      </trkpt>
      <trkpt lat="46.75176" lon="4.68239">
        <ele>288</ele>
        <time>2014-08-13T08:44:54Z</time>
      </trkpt>
      <trkpt lat="46.7517" lon="4.68226">
        <ele>288</ele>
        <time>2014-08-13T08:45:06Z</time>
      </trkpt>
      <trkpt lat="46.75167" lon="4.68221">
        <ele>288</ele>
        <time>2014-08-13T08:45:09Z</time>
      </trkpt>
      <trkpt lat="46.75162" lon="4.68207">
        <ele>293</ele>
        <time>2014-08-13T08:45:20Z</time>
      </trkpt>
      <trkpt lat="46.7516" lon="4.68201">
        <ele>293</ele>
        <time>2014-08-13T08:45:24Z</time>
      </trkpt>
      <trkpt lat="46.7516" lon="4.68194">
        <ele>293</ele>
        <time>2014-08-13T08:45:27Z</time>
      </trkpt>
      <trkpt lat="46.75158" lon="4.68188">
        <ele>293</ele>
        <time>2014-08-13T08:45:32Z</time>
      </trkpt>
      <trkpt lat="46.75153" lon="4.68184">
        <ele>293</ele>
        <time>2014-08-13T08:45:37Z</time>
      </trkpt>
      <trkpt lat="46.75149" lon="4.68179">
        <ele>294</ele>
        <time>2014-08-13T08:45:41Z</time>
      </trkpt>
      <trkpt lat="46.75151" lon="4.68172">
        <ele>294</ele>
        <time>2014-08-13T08:45:47Z</time>
      </trkpt>
      <trkpt lat="46.75149" lon="4.68164">
        <ele>297</ele>
        <time>2014-08-13T08:45:54Z</time>
      </trkpt>
      <trkpt lat="46.75149" lon="4.6815">
        <ele>298</ele>
        <time>2014-08-13T08:46:07Z</time>
      </trkpt>
      <trkpt lat="46.75146" lon="4.68145">
        <ele>299</ele>
        <time>2014-08-13T08:46:11Z</time>
      </trkpt>
      <trkpt lat="46.75141" lon="4.68133">
        <ele>300</ele>
        <time>2014-08-13T08:46:20Z</time>
      </trkpt>
      <trkpt lat="46.75147" lon="4.68133">
        <ele>300</ele>
        <time>2014-08-13T08:46:26Z</time>
      </trkpt>
      <trkpt lat="46.75149" lon="4.68127">
        <ele>300</ele>
        <time>2014-08-13T08:46:31Z</time>
      </trkpt>
      <trkpt lat="46.75148" lon="4.68119">
        <ele>301</ele>
        <time>2014-08-13T08:46:36Z</time>
      </trkpt>
      <trkpt lat="46.75144" lon="4.68114">
        <ele>301</ele>
        <time>2014-08-13T08:46:40Z</time>
      </trkpt>
      <trkpt lat="46.75142" lon="4.68109">
        <ele>302</ele>
        <time>2014-08-13T08:46:44Z</time>
      </trkpt>
      <trkpt lat="46.75143" lon="4.68094">
        <ele>303</ele>
        <time>2014-08-13T08:46:55Z</time>
      </trkpt>
      <trkpt lat="46.75151" lon="4.68083">
        <ele>307</ele>
        <time>2014-08-13T08:47:01Z</time>
      </trkpt>
      <trkpt lat="46.75151" lon="4.68076">
        <ele>308</ele>
        <time>2014-08-13T08:47:06Z</time>
      </trkpt>
      <trkpt lat="46.75142" lon="4.6805">
        <ele>310</ele>
        <time>2014-08-13T08:47:24Z</time>
      </trkpt>
      <trkpt lat="46.75141" lon="4.68029">
        <ele>310</ele>
        <time>2014-08-13T08:47:42Z</time>
      </trkpt>
      <trkpt lat="46.75136" lon="4.68027">
        <ele>311</ele>
        <time>2014-08-13T08:47:48Z</time>
      </trkpt>
      <trkpt lat="46.7511" lon="4.68025">
        <ele>312</ele>
        <time>2014-08-13T08:48:10Z</time>
      </trkpt>
      <trkpt lat="46.75108" lon="4.68023">
        <ele>312</ele>
        <time>2014-08-13T08:48:17Z</time>
      </trkpt>
      <trkpt lat="46.75113" lon="4.68021">
        <ele>312</ele>
        <time>2014-08-13T08:48:21Z</time>
      </trkpt>
      <trkpt lat="46.75113" lon="4.68011">
        <ele>313</ele>
        <time>2014-08-13T08:48:46Z</time>
      </trkpt>
      <trkpt lat="46.75118" lon="4.68004">
        <ele>313</ele>
        <time>2014-08-13T08:48:59Z</time>
      </trkpt>
      <trkpt lat="46.75119" lon="4.68009">
        <ele>312</ele>
        <time>2014-08-13T08:49:17Z</time>
      </trkpt>
      <trkpt lat="46.75119" lon="4.68016">
        <ele>312</ele>
        <time>2014-08-13T08:49:21Z</time>
      </trkpt>
      <trkpt lat="46.75119" lon="4.68023">
        <ele>312</ele>
        <time>2014-08-13T08:49:23Z</time>
      </trkpt>
      <trkpt lat="46.75116" lon="4.68029">
        <ele>312</ele>
        <time>2014-08-13T08:49:26Z</time>
      </trkpt>
      <trkpt lat="46.75114" lon="4.68024">
        <ele>312</ele>
        <time>2014-08-13T08:49:37Z</time>
      </trkpt>
      <trkpt lat="46.75117" lon="4.68018">
        <ele>312</ele>
        <time>2014-08-13T08:50:01Z</time>
      </trkpt>
      <trkpt lat="46.7512" lon="4.68014">
        <ele>312</ele>
        <time>2014-08-13T08:50:25Z</time>
      </trkpt>
      <trkpt lat="46.75117" lon="4.68017">
        <ele>312</ele>
        <time>2014-08-13T08:51:22Z</time>
      </trkpt>
      <trkpt lat="46.75117" lon="4.68018">
        <ele>312</ele>
        <time>2014-08-13T08:52:06Z</time>
      </trkpt>
      <trkpt lat="46.75118" lon="4.68026">
        <ele>312</ele>
        <time>2014-08-13T08:52:16Z</time>
      </trkpt>
      <trkpt lat="46.75118" lon="4.68021">
        <ele>312</ele>
        <time>2014-08-13T08:52:42Z</time>
      </trkpt>
      <trkpt lat="46.75123" lon="4.6802">
        <ele>312</ele>
        <time>2014-08-13T08:52:47Z</time>
      </trkpt>
      <trkpt lat="46.75125" lon="4.68031">
        <ele>311</ele>
        <time>2014-08-13T08:52:48Z</time>
      </trkpt>
      <trkpt lat="46.75124" lon="4.68073">
        <ele>309</ele>
        <time>2014-08-13T08:52:50Z</time>
      </trkpt>
      <trkpt lat="46.75124" lon="4.68073">
        <ele>309</ele>
        <time>2014-08-13T08:52:56Z</time>
      </trkpt>
      <trkpt lat="46.7512" lon="4.68053">
        <ele>310</ele>
        <time>2014-08-13T08:53:02Z</time>
      </trkpt>
      <trkpt lat="46.75118" lon="4.68033">
        <ele>311</ele>
        <time>2014-08-13T08:53:31Z</time>
      </trkpt>
      <trkpt lat="46.75118" lon="4.68026">
        <ele>312</ele>
        <time>2014-08-13T08:53:43Z</time>
      </trkpt>
      <trkpt lat="46.75116" lon="4.68026">
        <ele>312</ele>
        <time>2014-08-13T08:54:50Z</time>
      </trkpt>
      <trkpt lat="46.75115" lon="4.68019">
        <ele>312</ele>
        <time>2014-08-13T08:54:56Z</time>
      </trkpt>
      <trkpt lat="46.75109" lon="4.68015">
        <ele>313</ele>
        <time>2014-08-13T08:55:41Z</time>
      </trkpt>
      <trkpt lat="46.75111" lon="4.68012">
        <ele>313</ele>
        <time>2014-08-13T08:56:41Z</time>
      </trkpt>
      <trkpt lat="46.75112" lon="4.68016">
        <ele>313</ele>
        <time>2014-08-13T08:58:31Z</time>
      </trkpt>
      <trkpt lat="46.75115" lon="4.68014">
        <ele>312</ele>
        <time>2014-08-13T08:59:17Z</time>
      </trkpt>
      <trkpt lat="46.7512" lon="4.68008">
        <ele>312</ele>
        <time>2014-08-13T08:59:29Z</time>
      </trkpt>
      <trkpt lat="46.75118" lon="4.68003">
        <ele>313</ele>
        <time>2014-08-13T08:59:55Z</time>
      </trkpt>
      <trkpt lat="46.75113" lon="4.68014">
        <ele>313</ele>
        <time>2014-08-13T09:00:15Z</time>
      </trkpt>
      <trkpt lat="46.75108" lon="4.68015">
        <ele>313</ele>
        <time>2014-08-13T09:00:22Z</time>
      </trkpt>
      <trkpt lat="46.7511" lon="4.68008">
        <ele>313</ele>
        <time>2014-08-13T09:01:02Z</time>
      </trkpt>
      <trkpt lat="46.75114" lon="4.68013">
        <ele>313</ele>
        <time>2014-08-13T09:01:16Z</time>
      </trkpt>
      <trkpt lat="46.75118" lon="4.68015">
        <ele>312</ele>
        <time>2014-08-13T09:02:17Z</time>
      </trkpt>
      <trkpt lat="46.75116" lon="4.68013">
        <ele>312</ele>
        <time>2014-08-13T09:02:43Z</time>
      </trkpt>
      <trkpt lat="46.75113" lon="4.68014">
        <ele>313</ele>
        <time>2014-08-13T09:03:00Z</time>
      </trkpt>
      <trkpt lat="46.7511" lon="4.68013">
        <ele>313</ele>
        <time>2014-08-13T09:04:11Z</time>
      </trkpt>
      <trkpt lat="46.75108" lon="4.68021">
        <ele>313</ele>
        <time>2014-08-13T09:06:15Z</time>
      </trkpt>
      <trkpt lat="46.75102" lon="4.68041">
        <ele>311</ele>
        <time>2014-08-13T09:06:21Z</time>
      </trkpt>
      <trkpt lat="46.75112" lon="4.6801">
        <ele>313</ele>
        <time>2014-08-13T09:07:42Z</time>
      </trkpt>
      <trkpt lat="46.75112" lon="4.68014">
        <ele>313</ele>
        <time>2014-08-13T09:08:51Z</time>
      </trkpt>
      <trkpt lat="46.75109" lon="4.68018">
        <ele>313</ele>
        <time>2014-08-13T09:09:00Z</time>
      </trkpt>
      <trkpt lat="46.75106" lon="4.68019">
        <ele>313</ele>
        <time>2014-08-13T09:09:18Z</time>
      </trkpt>
      <trkpt lat="46.75101" lon="4.68017">
        <ele>314</ele>
        <time>2014-08-13T09:09:24Z</time>
      </trkpt>
      <trkpt lat="46.75097" lon="4.68012">
        <ele>314</ele>
        <time>2014-08-13T09:09:29Z</time>
      </trkpt>
      <trkpt lat="46.75099" lon="4.68009">
        <ele>315</ele>
        <time>2014-08-13T09:09:34Z</time>
      </trkpt>
      <trkpt lat="46.75093" lon="4.68009">
        <ele>315</ele>
        <time>2014-08-13T09:09:42Z</time>
      </trkpt>
      <trkpt lat="46.75087" lon="4.68008">
        <ele>316</ele>
        <time>2014-08-13T09:09:46Z</time>
      </trkpt>
      <trkpt lat="46.75075" lon="4.67996">
        <ele>318</ele>
        <time>2014-08-13T09:09:58Z</time>
      </trkpt>
      <trkpt lat="46.75072" lon="4.67989">
        <ele>318</ele>
        <time>2014-08-13T09:10:04Z</time>
      </trkpt>
      <trkpt lat="46.75072" lon="4.67976">
        <ele>318</ele>
        <time>2014-08-13T09:10:11Z</time>
      </trkpt>
      <trkpt lat="46.75071" lon="4.6797">
        <ele>318</ele>
        <time>2014-08-13T09:10:16Z</time>
      </trkpt>
      <trkpt lat="46.7507" lon="4.67955">
        <ele>319</ele>
        <time>2014-08-13T09:10:26Z</time>
      </trkpt>
      <trkpt lat="46.75073" lon="4.6795">
        <ele>320</ele>
        <time>2014-08-13T09:10:31Z</time>
      </trkpt>
      <trkpt lat="46.75072" lon="4.67947">
        <ele>320</ele>
        <time>2014-08-13T09:10:38Z</time>
      </trkpt>
      <trkpt lat="46.75074" lon="4.67938">
        <ele>321</ele>
        <time>2014-08-13T09:10:48Z</time>
      </trkpt>
      <trkpt lat="46.75075" lon="4.67931">
        <ele>322</ele>
        <time>2014-08-13T09:10:51Z</time>
      </trkpt>
      <trkpt lat="46.75072" lon="4.67925">
        <ele>323</ele>
        <time>2014-08-13T09:10:56Z</time>
      </trkpt>
      <trkpt lat="46.75072" lon="4.67916">
        <ele>326</ele>
        <time>2014-08-13T09:11:00Z</time>
      </trkpt>
      <trkpt lat="46.75074" lon="4.67909">
        <ele>326</ele>
        <time>2014-08-13T09:11:04Z</time>
      </trkpt>
      <trkpt lat="46.75074" lon="4.67901">
        <ele>326</ele>
        <time>2014-08-13T09:11:09Z</time>
      </trkpt>
      <trkpt lat="46.75077" lon="4.67899">
        <ele>326</ele>
        <time>2014-08-13T09:11:19Z</time>
      </trkpt>
      <trkpt lat="46.75082" lon="4.67895">
        <ele>326</ele>
        <time>2014-08-13T09:11:25Z</time>
      </trkpt>
      <trkpt lat="46.7509" lon="4.67879">
        <ele>328</ele>
        <time>2014-08-13T09:11:34Z</time>
      </trkpt>
      <trkpt lat="46.75095" lon="4.67859">
        <ele>330</ele>
        <time>2014-08-13T09:11:52Z</time>
      </trkpt>
      <trkpt lat="46.75093" lon="4.67853">
        <ele>330</ele>
        <time>2014-08-13T09:11:56Z</time>
      </trkpt>
      <trkpt lat="46.75093" lon="4.67846">
        <ele>331</ele>
        <time>2014-08-13T09:12:02Z</time>
      </trkpt>
      <trkpt lat="46.75098" lon="4.67826">
        <ele>333</ele>
        <time>2014-08-13T09:12:19Z</time>
      </trkpt>
      <trkpt lat="46.75094" lon="4.67814">
        <ele>333</ele>
        <time>2014-08-13T09:12:26Z</time>
      </trkpt>
      <trkpt lat="46.75096" lon="4.67806">
        <ele>334</ele>
        <time>2014-08-13T09:12:31Z</time>
      </trkpt>
      <trkpt lat="46.75098" lon="4.678">
        <ele>334</ele>
        <time>2014-08-13T09:12:34Z</time>
      </trkpt>
      <trkpt lat="46.75099" lon="4.67793">
        <ele>334</ele>
        <time>2014-08-13T09:12:37Z</time>
      </trkpt>
      <trkpt lat="46.75098" lon="4.67786">
        <ele>334</ele>
        <time>2014-08-13T09:12:42Z</time>
      </trkpt>
      <trkpt lat="46.75095" lon="4.67778">
        <ele>334</ele>
        <time>2014-08-13T09:12:45Z</time>
      </trkpt>
      <trkpt lat="46.75095" lon="4.67771">
        <ele>335</ele>
        <time>2014-08-13T09:12:48Z</time>
      </trkpt>
      <trkpt lat="46.75096" lon="4.67763">
        <ele>335</ele>
        <time>2014-08-13T09:12:54Z</time>
      </trkpt>
      <trkpt lat="46.75088" lon="4.67753">
        <ele>336</ele>
        <time>2014-08-13T09:12:58Z</time>
      </trkpt>
      <trkpt lat="46.75083" lon="4.67738">
        <ele>337</ele>
        <time>2014-08-13T09:13:03Z</time>
      </trkpt>
      <trkpt lat="46.75077" lon="4.67724">
        <ele>337</ele>
        <time>2014-08-13T09:13:26Z</time>
      </trkpt>
      <trkpt lat="46.75074" lon="4.67718">
        <ele>337</ele>
        <time>2014-08-13T09:13:32Z</time>
      </trkpt>
      <trkpt lat="46.75072" lon="4.67712">
        <ele>337</ele>
        <time>2014-08-13T09:13:37Z</time>
      </trkpt>
      <trkpt lat="46.75062" lon="4.67697">
        <ele>338</ele>
        <time>2014-08-13T09:13:51Z</time>
      </trkpt>
      <trkpt lat="46.7506" lon="4.6769">
        <ele>338</ele>
        <time>2014-08-13T09:13:56Z</time>
      </trkpt>
      <trkpt lat="46.75058" lon="4.67683">
        <ele>338</ele>
        <time>2014-08-13T09:14:00Z</time>
      </trkpt>
      <trkpt lat="46.75055" lon="4.67676">
        <ele>338</ele>
        <time>2014-08-13T09:14:02Z</time>
      </trkpt>
      <trkpt lat="46.75035" lon="4.67633">
        <ele>341</ele>
        <time>2014-08-13T09:14:31Z</time>
      </trkpt>
      <trkpt lat="46.75032" lon="4.67628">
        <ele>341</ele>
        <time>2014-08-13T09:14:36Z</time>
      </trkpt>
      <trkpt lat="46.75021" lon="4.67612">
        <ele>342</ele>
        <time>2014-08-13T09:14:50Z</time>
      </trkpt>
      <trkpt lat="46.75017" lon="4.67606">
        <ele>342</ele>
        <time>2014-08-13T09:14:54Z</time>
      </trkpt>
      <trkpt lat="46.75014" lon="4.67602">
        <ele>342</ele>
        <time>2014-08-13T09:14:57Z</time>
      </trkpt>
      <trkpt lat="46.7501" lon="4.67598">
        <ele>343</ele>
        <time>2014-08-13T09:15:01Z</time>
      </trkpt>
      <trkpt lat="46.74979" lon="4.67574">
        <ele>341</ele>
        <time>2014-08-13T09:15:32Z</time>
      </trkpt>
      <trkpt lat="46.74963" lon="4.67556">
        <ele>340</ele>
        <time>2014-08-13T09:15:55Z</time>
      </trkpt>
      <trkpt lat="46.7495" lon="4.67546">
        <ele>340</ele>
        <time>2014-08-13T09:16:04Z</time>
      </trkpt>
      <trkpt lat="46.74946" lon="4.67548">
        <ele>339</ele>
        <time>2014-08-13T09:16:11Z</time>
      </trkpt>
      <trkpt lat="46.74941" lon="4.67545">
        <ele>339</ele>
        <time>2014-08-13T09:16:16Z</time>
      </trkpt>
      <trkpt lat="46.74922" lon="4.6752">
        <ele>339</ele>
        <time>2014-08-13T09:16:34Z</time>
      </trkpt>
      <trkpt lat="46.74917" lon="4.67517">
        <ele>339</ele>
        <time>2014-08-13T09:16:37Z</time>
      </trkpt>
      <trkpt lat="46.74913" lon="4.67511">
        <ele>335</ele>
        <time>2014-08-13T09:16:41Z</time>
      </trkpt>
      <trkpt lat="46.74909" lon="4.67505">
        <ele>335</ele>
        <time>2014-08-13T09:16:45Z</time>
      </trkpt>
      <trkpt lat="46.74895" lon="4.67466">
        <ele>334</ele>
        <time>2014-08-13T09:17:09Z</time>
      </trkpt>
      <trkpt lat="46.7489" lon="4.67453">
        <ele>333</ele>
        <time>2014-08-13T09:17:15Z</time>
      </trkpt>
      <trkpt lat="46.74877" lon="4.67433">
        <ele>333</ele>
        <time>2014-08-13T09:17:24Z</time>
      </trkpt>
      <trkpt lat="46.74868" lon="4.67388">
        <ele>333</ele>
        <time>2014-08-13T09:17:58Z</time>
      </trkpt>
      <trkpt lat="46.74867" lon="4.67381">
        <ele>333</ele>
        <time>2014-08-13T09:18:01Z</time>
      </trkpt>
      <trkpt lat="46.74855" lon="4.67346">
        <ele>333</ele>
        <time>2014-08-13T09:18:18Z</time>
      </trkpt>
      <trkpt lat="46.74855" lon="4.67333">
        <ele>333</ele>
        <time>2014-08-13T09:18:26Z</time>
      </trkpt>
      <trkpt lat="46.74851" lon="4.67325">
        <ele>333</ele>
        <time>2014-08-13T09:18:33Z</time>
      </trkpt>
      <trkpt lat="46.74849" lon="4.67304">
        <ele>333</ele>
        <time>2014-08-13T09:18:46Z</time>
      </trkpt>
      <trkpt lat="46.74846" lon="4.67297">
        <ele>333</ele>
        <time>2014-08-13T09:18:50Z</time>
      </trkpt>
      <trkpt lat="46.74844" lon="4.67291">
        <ele>332</ele>
        <time>2014-08-13T09:18:55Z</time>
      </trkpt>
      <trkpt lat="46.74835" lon="4.67283">
        <ele>333</ele>
        <time>2014-08-13T09:19:02Z</time>
      </trkpt>
      <trkpt lat="46.74828" lon="4.67272">
        <ele>332</ele>
        <time>2014-08-13T09:19:09Z</time>
      </trkpt>
      <trkpt lat="46.74823" lon="4.6727">
        <ele>332</ele>
        <time>2014-08-13T09:19:13Z</time>
      </trkpt>
      <trkpt lat="46.74819" lon="4.67266">
        <ele>332</ele>
        <time>2014-08-13T09:19:18Z</time>
      </trkpt>
      <trkpt lat="46.7481" lon="4.67256">
        <ele>332</ele>
        <time>2014-08-13T09:19:27Z</time>
      </trkpt>
      <trkpt lat="46.74805" lon="4.67255">
        <ele>332</ele>
        <time>2014-08-13T09:19:32Z</time>
      </trkpt>
      <trkpt lat="46.74788" lon="4.67237">
        <ele>333</ele>
        <time>2014-08-13T09:19:48Z</time>
      </trkpt>
      <trkpt lat="46.74774" lon="4.67224">
        <ele>333</ele>
        <time>2014-08-13T09:19:58Z</time>
      </trkpt>
      <trkpt lat="46.74769" lon="4.67222">
        <ele>333</ele>
        <time>2014-08-13T09:20:02Z</time>
      </trkpt>
      <trkpt lat="46.74765" lon="4.67218">
        <ele>333</ele>
        <time>2014-08-13T09:20:06Z</time>
      </trkpt>
      <trkpt lat="46.74754" lon="4.67203">
        <ele>333</ele>
        <time>2014-08-13T09:20:16Z</time>
      </trkpt>
      <trkpt lat="46.74751" lon="4.67197">
        <ele>333</ele>
        <time>2014-08-13T09:20:22Z</time>
      </trkpt>
      <trkpt lat="46.74747" lon="4.67194">
        <ele>334</ele>
        <time>2014-08-13T09:20:27Z</time>
      </trkpt>
      <trkpt lat="46.74743" lon="4.67189">
        <ele>334</ele>
        <time>2014-08-13T09:20:30Z</time>
      </trkpt>
      <trkpt lat="46.74736" lon="4.67177">
        <ele>334</ele>
        <time>2014-08-13T09:20:38Z</time>
      </trkpt>
      <trkpt lat="46.74715" lon="4.67142">
        <ele>333</ele>
        <time>2014-08-13T09:21:01Z</time>
      </trkpt>
      <trkpt lat="46.74708" lon="4.67131">
        <ele>332</ele>
        <time>2014-08-13T09:21:09Z</time>
      </trkpt>
      <trkpt lat="46.74692" lon="4.67124">
        <ele>332</ele>
        <time>2014-08-13T09:21:20Z</time>
      </trkpt>
      <trkpt lat="46.74688" lon="4.67122">
        <ele>332</ele>
        <time>2014-08-13T09:21:25Z</time>
      </trkpt>
      <trkpt lat="46.74684" lon="4.67119">
        <ele>332</ele>
        <time>2014-08-13T09:21:30Z</time>
      </trkpt>
      <trkpt lat="46.74674" lon="4.67115">
        <ele>332</ele>
        <time>2014-08-13T09:21:42Z</time>
      </trkpt>
      <trkpt lat="46.74664" lon="4.67101">
        <ele>333</ele>
        <time>2014-08-13T09:21:53Z</time>
      </trkpt>
      <trkpt lat="46.74636" lon="4.67098">
        <ele>334</ele>
        <time>2014-08-13T09:22:15Z</time>
      </trkpt>
      <trkpt lat="46.74627" lon="4.67092">
        <ele>334</ele>
        <time>2014-08-13T09:22:22Z</time>
      </trkpt>
      <trkpt lat="46.74618" lon="4.67089">
        <ele>335</ele>
        <time>2014-08-13T09:22:29Z</time>
      </trkpt>
      <trkpt lat="46.74613" lon="4.67086">
        <ele>335</ele>
        <time>2014-08-13T09:22:33Z</time>
      </trkpt>
      <trkpt lat="46.74609" lon="4.67082">
        <ele>334</ele>
        <time>2014-08-13T09:22:37Z</time>
      </trkpt>
      <trkpt lat="46.74593" lon="4.67065">
        <ele>334</ele>
        <time>2014-08-13T09:22:55Z</time>
      </trkpt>
      <trkpt lat="46.74584" lon="4.67058">
        <ele>334</ele>
        <time>2014-08-13T09:23:05Z</time>
      </trkpt>
      <trkpt lat="46.74579" lon="4.67057">
        <ele>336</ele>
        <time>2014-08-13T09:23:08Z</time>
      </trkpt>
      <trkpt lat="46.74574" lon="4.67056">
        <ele>337</ele>
        <time>2014-08-13T09:23:11Z</time>
      </trkpt>
      <trkpt lat="46.74558" lon="4.67055">
        <ele>337</ele>
        <time>2014-08-13T09:23:23Z</time>
      </trkpt>
      <trkpt lat="46.7455" lon="4.67045">
        <ele>337</ele>
        <time>2014-08-13T09:23:29Z</time>
      </trkpt>
      <trkpt lat="46.74549" lon="4.67049">
        <ele>337</ele>
        <time>2014-08-13T09:23:51Z</time>
      </trkpt>
      <trkpt lat="46.74543" lon="4.6705">
        <ele>337</ele>
        <time>2014-08-13T09:23:59Z</time>
      </trkpt>
      <trkpt lat="46.74539" lon="4.67049">
        <ele>337</ele>
        <time>2014-08-13T09:24:03Z</time>
      </trkpt>
      <trkpt lat="46.74533" lon="4.6705">
        <ele>337</ele>
        <time>2014-08-13T09:24:08Z</time>
      </trkpt>
      <trkpt lat="46.74491" lon="4.67039">
        <ele>340</ele>
        <time>2014-08-13T09:24:40Z</time>
      </trkpt>
      <trkpt lat="46.74471" lon="4.67041">
        <ele>340</ele>
        <time>2014-08-13T09:24:55Z</time>
      </trkpt>
      <trkpt lat="46.74466" lon="4.67036">
        <ele>340</ele>
        <time>2014-08-13T09:24:59Z</time>
      </trkpt>
      <trkpt lat="46.74461" lon="4.67031">
        <ele>340</ele>
        <time>2014-08-13T09:25:01Z</time>
      </trkpt>
      <trkpt lat="46.74456" lon="4.67029">
        <ele>340</ele>
        <time>2014-08-13T09:25:06Z</time>
      </trkpt>
      <trkpt lat="46.7444" lon="4.67024">
        <ele>340</ele>
        <time>2014-08-13T09:25:17Z</time>
      </trkpt>
      <trkpt lat="46.74435" lon="4.67024">
        <ele>340</ele>
        <time>2014-08-13T09:25:21Z</time>
      </trkpt>
      <trkpt lat="46.7442" lon="4.67025">
        <ele>340</ele>
        <time>2014-08-13T09:25:37Z</time>
      </trkpt>
      <trkpt lat="46.74405" lon="4.67022">
        <ele>341</ele>
        <time>2014-08-13T09:25:47Z</time>
      </trkpt>
      <trkpt lat="46.74402" lon="4.67026">
        <ele>342</ele>
        <time>2014-08-13T09:25:56Z</time>
      </trkpt>
      <trkpt lat="46.74397" lon="4.67024">
        <ele>342</ele>
        <time>2014-08-13T09:26:19Z</time>
      </trkpt>
      <trkpt lat="46.74395" lon="4.67022">
        <ele>342</ele>
        <time>2014-08-13T09:26:27Z</time>
      </trkpt>
      <trkpt lat="46.74389" lon="4.67022">
        <ele>342</ele>
        <time>2014-08-13T09:26:33Z</time>
      </trkpt>
      <trkpt lat="46.74373" lon="4.67019">
        <ele>342</ele>
        <time>2014-08-13T09:26:41Z</time>
      </trkpt>
      <trkpt lat="46.74322" lon="4.67024">
        <ele>344</ele>
        <time>2014-08-13T09:27:15Z</time>
      </trkpt>
      <trkpt lat="46.74313" lon="4.67028">
        <ele>345</ele>
        <time>2014-08-13T09:27:22Z</time>
      </trkpt>
      <trkpt lat="46.74298" lon="4.67031">
        <ele>345</ele>
        <time>2014-08-13T09:27:33Z</time>
      </trkpt>
      <trkpt lat="46.74292" lon="4.67032">
        <ele>345</ele>
        <time>2014-08-13T09:27:36Z</time>
      </trkpt>
      <trkpt lat="46.74282" lon="4.67031">
        <ele>345</ele>
        <time>2014-08-13T09:27:46Z</time>
      </trkpt>
      <trkpt lat="46.74277" lon="4.67031">
        <ele>345</ele>
        <time>2014-08-13T09:27:50Z</time>
      </trkpt>
      <trkpt lat="46.74272" lon="4.67033">
        <ele>346</ele>
        <time>2014-08-13T09:27:54Z</time>
      </trkpt>
      <trkpt lat="46.74268" lon="4.67032">
        <ele>346</ele>
        <time>2014-08-13T09:28:03Z</time>
      </trkpt>
      <trkpt lat="46.74264" lon="4.67035">
        <ele>346</ele>
        <time>2014-08-13T09:30:27Z</time>
      </trkpt>
      <trkpt lat="46.74263" lon="4.67027">
        <ele>346</ele>
        <time>2014-08-13T09:30:30Z</time>
      </trkpt>
      <trkpt lat="46.74258" lon="4.67024">
        <ele>346</ele>
        <time>2014-08-13T09:30:34Z</time>
      </trkpt>
      <trkpt lat="46.74253" lon="4.67025">
        <ele>346</ele>
        <time>2014-08-13T09:30:39Z</time>
      </trkpt>
      <trkpt lat="46.74248" lon="4.67025">
        <ele>348</ele>
        <time>2014-08-13T09:30:43Z</time>
      </trkpt>
      <trkpt lat="46.74243" lon="4.67024">
        <ele>348</ele>
        <time>2014-08-13T09:30:47Z</time>
      </trkpt>
      <trkpt lat="46.74237" lon="4.67023">
        <ele>348</ele>
        <time>2014-08-13T09:30:51Z</time>
      </trkpt>
      <trkpt lat="46.74227" lon="4.67025">
        <ele>349</ele>
        <time>2014-08-13T09:30:58Z</time>
      </trkpt>
      <trkpt lat="46.74223" lon="4.67024">
        <ele>349</ele>
        <time>2014-08-13T09:31:04Z</time>
      </trkpt>
      <trkpt lat="46.74182" lon="4.67011">
        <ele>350</ele>
        <time>2014-08-13T09:31:34Z</time>
      </trkpt>
      <trkpt lat="46.74172" lon="4.67017">
        <ele>350</ele>
        <time>2014-08-13T09:31:47Z</time>
      </trkpt>
      <trkpt lat="46.74167" lon="4.67019">
        <ele>350</ele>
        <time>2014-08-13T09:31:51Z</time>
      </trkpt>
      <trkpt lat="46.74159" lon="4.67026">
        <ele>353</ele>
        <time>2014-08-13T09:31:59Z</time>
      </trkpt>
      <trkpt lat="46.74154" lon="4.67026">
        <ele>353</ele>
        <time>2014-08-13T09:32:02Z</time>
      </trkpt>
      <trkpt lat="46.74145" lon="4.67031">
        <ele>353</ele>
        <time>2014-08-13T09:32:13Z</time>
      </trkpt>
      <trkpt lat="46.7414" lon="4.67034">
        <ele>353</ele>
        <time>2014-08-13T09:32:16Z</time>
      </trkpt>
      <trkpt lat="46.74122" lon="4.67047">
        <ele>354</ele>
        <time>2014-08-13T09:32:32Z</time>
      </trkpt>
      <trkpt lat="46.74117" lon="4.6705">
        <ele>354</ele>
        <time>2014-08-13T09:32:36Z</time>
      </trkpt>
      <trkpt lat="46.74107" lon="4.67057">
        <ele>354</ele>
        <time>2014-08-13T09:32:45Z</time>
      </trkpt>
      <trkpt lat="46.74103" lon="4.67062">
        <ele>354</ele>
        <time>2014-08-13T09:32:47Z</time>
      </trkpt>
      <trkpt lat="46.74092" lon="4.67078">
        <ele>355</ele>
        <time>2014-08-13T09:32:56Z</time>
      </trkpt>
      <trkpt lat="46.74089" lon="4.67084">
        <ele>356</ele>
        <time>2014-08-13T09:33:00Z</time>
      </trkpt>
      <trkpt lat="46.74071" lon="4.67114">
        <ele>359</ele>
        <time>2014-08-13T09:33:25Z</time>
      </trkpt>
      <trkpt lat="46.74063" lon="4.67124">
        <ele>359</ele>
        <time>2014-08-13T09:33:32Z</time>
      </trkpt>
      <trkpt lat="46.74058" lon="4.67126">
        <ele>359</ele>
        <time>2014-08-13T09:33:36Z</time>
      </trkpt>
      <trkpt lat="46.74043" lon="4.67129">
        <ele>360</ele>
        <time>2014-08-13T09:33:51Z</time>
      </trkpt>
      <trkpt lat="46.74034" lon="4.6714">
        <ele>360</ele>
        <time>2014-08-13T09:34:10Z</time>
      </trkpt>
      <trkpt lat="46.74015" lon="4.67152">
        <ele>361</ele>
        <time>2014-08-13T09:34:26Z</time>
      </trkpt>
      <trkpt lat="46.74001" lon="4.67165">
        <ele>363</ele>
        <time>2014-08-13T09:34:38Z</time>
      </trkpt>
      <trkpt lat="46.74001" lon="4.67174">
        <ele>363</ele>
        <time>2014-08-13T09:34:41Z</time>
      </trkpt>
      <trkpt lat="46.73995" lon="4.67178">
        <ele>364</ele>
        <time>2014-08-13T09:34:47Z</time>
      </trkpt>
      <trkpt lat="46.7398" lon="4.6718">
        <ele>365</ele>
        <time>2014-08-13T09:34:58Z</time>
      </trkpt>
      <trkpt lat="46.73974" lon="4.67182">
        <ele>365</ele>
        <time>2014-08-13T09:35:01Z</time>
      </trkpt>
      <trkpt lat="46.73965" lon="4.67185">
        <ele>365</ele>
        <time>2014-08-13T09:35:08Z</time>
      </trkpt>
      <trkpt lat="46.73962" lon="4.67192">
        <ele>365</ele>
        <time>2014-08-13T09:35:13Z</time>
      </trkpt>
      <trkpt lat="46.7396" lon="4.67198">
        <ele>365</ele>
        <time>2014-08-13T09:35:16Z</time>
      </trkpt>
      <trkpt lat="46.73956" lon="4.67206">
        <ele>366</ele>
        <time>2014-08-13T09:35:21Z</time>
      </trkpt>
      <trkpt lat="46.73948" lon="4.67224">
        <ele>366</ele>
        <time>2014-08-13T09:35:33Z</time>
      </trkpt>
      <trkpt lat="46.73943" lon="4.67227">
        <ele>366</ele>
        <time>2014-08-13T09:35:37Z</time>
      </trkpt>
      <trkpt lat="46.73929" lon="4.67229">
        <ele>366</ele>
        <time>2014-08-13T09:35:50Z</time>
      </trkpt>
      <trkpt lat="46.73925" lon="4.67233">
        <ele>366</ele>
        <time>2014-08-13T09:35:54Z</time>
      </trkpt>
      <trkpt lat="46.7392" lon="4.67234">
        <ele>366</ele>
        <time>2014-08-13T09:35:59Z</time>
      </trkpt>
      <trkpt lat="46.73913" lon="4.67244">
        <ele>368</ele>
        <time>2014-08-13T09:36:06Z</time>
      </trkpt>
      <trkpt lat="46.73908" lon="4.67243">
        <ele>368</ele>
        <time>2014-08-13T09:36:09Z</time>
      </trkpt>
      <trkpt lat="46.73902" lon="4.67241">
        <ele>368</ele>
        <time>2014-08-13T09:36:13Z</time>
      </trkpt>
      <trkpt lat="46.73887" lon="4.67246">
        <ele>369</ele>
        <time>2014-08-13T09:36:23Z</time>
      </trkpt>
      <trkpt lat="46.73873" lon="4.67241">
        <ele>369</ele>
        <time>2014-08-13T09:36:39Z</time>
      </trkpt>
      <trkpt lat="46.73868" lon="4.67241">
        <ele>369</ele>
        <time>2014-08-13T09:36:45Z</time>
      </trkpt>
      <trkpt lat="46.73858" lon="4.67243">
        <ele>370</ele>
        <time>2014-08-13T09:36:53Z</time>
      </trkpt>
      <trkpt lat="46.73853" lon="4.67244">
        <ele>370</ele>
        <time>2014-08-13T09:36:56Z</time>
      </trkpt>
      <trkpt lat="46.73849" lon="4.67248">
        <ele>370</ele>
        <time>2014-08-13T09:37:02Z</time>
      </trkpt>
      <trkpt lat="46.73844" lon="4.67249">
        <ele>370</ele>
        <time>2014-08-13T09:37:07Z</time>
      </trkpt>
      <trkpt lat="46.73839" lon="4.67247">
        <ele>370</ele>
        <time>2014-08-13T09:37:14Z</time>
      </trkpt>
      <trkpt lat="46.73828" lon="4.67247">
        <ele>371</ele>
        <time>2014-08-13T09:37:22Z</time>
      </trkpt>
      <trkpt lat="46.73823" lon="4.67247">
        <ele>371</ele>
        <time>2014-08-13T09:37:27Z</time>
      </trkpt>
      <trkpt lat="46.73819" lon="4.67246">
        <ele>372</ele>
        <time>2014-08-13T09:37:34Z</time>
      </trkpt>
      <trkpt lat="46.73809" lon="4.67252">
        <ele>371</ele>
        <time>2014-08-13T09:37:42Z</time>
      </trkpt>
      <trkpt lat="46.73805" lon="4.67254">
        <ele>371</ele>
        <time>2014-08-13T09:37:47Z</time>
      </trkpt>
      <trkpt lat="46.73799" lon="4.67256">
        <ele>371</ele>
        <time>2014-08-13T09:37:51Z</time>
      </trkpt>
      <trkpt lat="46.73789" lon="4.67255">
        <ele>371</ele>
        <time>2014-08-13T09:38:00Z</time>
      </trkpt>
      <trkpt lat="46.73779" lon="4.6726">
        <ele>372</ele>
        <time>2014-08-13T09:38:08Z</time>
      </trkpt>
      <trkpt lat="46.73765" lon="4.67259">
        <ele>372</ele>
        <time>2014-08-13T09:38:21Z</time>
      </trkpt>
      <trkpt lat="46.7376" lon="4.67259">
        <ele>373</ele>
        <time>2014-08-13T09:38:26Z</time>
      </trkpt>
      <trkpt lat="46.73756" lon="4.67259">
        <ele>373</ele>
        <time>2014-08-13T09:38:31Z</time>
      </trkpt>
      <trkpt lat="46.73751" lon="4.67261">
        <ele>373</ele>
        <time>2014-08-13T09:38:37Z</time>
      </trkpt>
      <trkpt lat="46.73747" lon="4.67262">
        <ele>374</ele>
        <time>2014-08-13T09:38:42Z</time>
      </trkpt>
      <trkpt lat="46.73743" lon="4.67265">
        <ele>374</ele>
        <time>2014-08-13T09:38:47Z</time>
      </trkpt>
      <trkpt lat="46.73737" lon="4.67266">
        <ele>374</ele>
        <time>2014-08-13T09:38:52Z</time>
      </trkpt>
      <trkpt lat="46.73733" lon="4.67266">
        <ele>375</ele>
        <time>2014-08-13T09:38:55Z</time>
      </trkpt>
      <trkpt lat="46.73727" lon="4.67265">
        <ele>375</ele>
        <time>2014-08-13T09:38:59Z</time>
      </trkpt>
      <trkpt lat="46.73712" lon="4.67266">
        <ele>375</ele>
        <time>2014-08-13T09:39:12Z</time>
      </trkpt>
      <trkpt lat="46.73706" lon="4.67266">
        <ele>375</ele>
        <time>2014-08-13T09:39:15Z</time>
      </trkpt>
      <trkpt lat="46.73701" lon="4.67265">
        <ele>376</ele>
        <time>2014-08-13T09:39:19Z</time>
      </trkpt>
      <trkpt lat="46.73696" lon="4.67268">
        <ele>376</ele>
        <time>2014-08-13T09:39:22Z</time>
      </trkpt>
      <trkpt lat="46.73692" lon="4.67268">
        <ele>376</ele>
        <time>2014-08-13T09:39:27Z</time>
      </trkpt>
      <trkpt lat="46.73687" lon="4.6727">
        <ele>376</ele>
        <time>2014-08-13T09:39:31Z</time>
      </trkpt>
      <trkpt lat="46.73684" lon="4.67275">
        <ele>376</ele>
        <time>2014-08-13T09:39:35Z</time>
      </trkpt>
      <trkpt lat="46.73669" lon="4.67278">
        <ele>376</ele>
        <time>2014-08-13T09:39:50Z</time>
      </trkpt>
      <trkpt lat="46.73657" lon="4.67274">
        <ele>377</ele>
        <time>2014-08-13T09:39:55Z</time>
      </trkpt>
      <trkpt lat="46.7364" lon="4.67257">
        <ele>377</ele>
        <time>2014-08-13T09:39:57Z</time>
      </trkpt>
      <trkpt lat="46.7364" lon="4.67261">
        <ele>377</ele>
        <time>2014-08-13T09:39:58Z</time>
      </trkpt>
      <trkpt lat="46.73643" lon="4.67264">
        <ele>377</ele>
        <time>2014-08-13T09:39:59Z</time>
      </trkpt>
      <trkpt lat="46.73643" lon="4.67273">
        <ele>377</ele>
        <time>2014-08-13T09:40:01Z</time>
      </trkpt>
      <trkpt lat="46.73644" lon="4.67277">
        <ele>377</ele>
        <time>2014-08-13T09:40:02Z</time>
      </trkpt>
      <trkpt lat="46.73646" lon="4.67285">
        <ele>377</ele>
        <time>2014-08-13T09:40:05Z</time>
      </trkpt>
      <trkpt lat="46.7365" lon="4.67313">
        <ele>376</ele>
        <time>2014-08-13T09:40:21Z</time>
      </trkpt>
      <trkpt lat="46.73649" lon="4.6732">
        <ele>376</ele>
        <time>2014-08-13T09:40:26Z</time>
      </trkpt>
      <trkpt lat="46.7365" lon="4.67328">
        <ele>376</ele>
        <time>2014-08-13T09:40:30Z</time>
      </trkpt>
      <trkpt lat="46.73653" lon="4.67334">
        <ele>375</ele>
        <time>2014-08-13T09:40:36Z</time>
      </trkpt>
      <trkpt lat="46.73652" lon="4.67347">
        <ele>375</ele>
        <time>2014-08-13T09:40:44Z</time>
      </trkpt>
      <trkpt lat="46.73651" lon="4.67355">
        <ele>374</ele>
        <time>2014-08-13T09:40:48Z</time>
      </trkpt>
      <trkpt lat="46.73653" lon="4.6737">
        <ele>374</ele>
        <time>2014-08-13T09:40:58Z</time>
      </trkpt>
      <trkpt lat="46.73654" lon="4.67378">
        <ele>374</ele>
        <time>2014-08-13T09:41:02Z</time>
      </trkpt>
      <trkpt lat="46.73657" lon="4.67384">
        <ele>374</ele>
        <time>2014-08-13T09:41:08Z</time>
      </trkpt>
      <trkpt lat="46.73657" lon="4.67392">
        <ele>374</ele>
        <time>2014-08-13T09:41:13Z</time>
      </trkpt>
      <trkpt lat="46.73655" lon="4.674">
        <ele>374</ele>
        <time>2014-08-13T09:41:17Z</time>
      </trkpt>
      <trkpt lat="46.73651" lon="4.67406">
        <ele>374</ele>
        <time>2014-08-13T09:41:21Z</time>
      </trkpt>
      <trkpt lat="46.73651" lon="4.67414">
        <ele>374</ele>
        <time>2014-08-13T09:41:26Z</time>
      </trkpt>
      <trkpt lat="46.73652" lon="4.67421">
        <ele>374</ele>
        <time>2014-08-13T09:41:30Z</time>
      </trkpt>
      <trkpt lat="46.73652" lon="4.67439">
        <ele>374</ele>
        <time>2014-08-13T09:41:38Z</time>
      </trkpt>
      <trkpt lat="46.73648" lon="4.67444">
        <ele>374</ele>
        <time>2014-08-13T09:41:42Z</time>
      </trkpt>
      <trkpt lat="46.73643" lon="4.67446">
        <ele>374</ele>
        <time>2014-08-13T09:41:48Z</time>
      </trkpt>
      <trkpt lat="46.73623" lon="4.6744">
        <ele>374</ele>
        <time>2014-08-13T09:42:05Z</time>
      </trkpt>
      <trkpt lat="46.73613" lon="4.67439">
        <ele>374</ele>
        <time>2014-08-13T09:42:13Z</time>
      </trkpt>
      <trkpt lat="46.73601" lon="4.67439">
        <ele>374</ele>
        <time>2014-08-13T09:42:21Z</time>
      </trkpt>
      <trkpt lat="46.73596" lon="4.67441">
        <ele>374</ele>
        <time>2014-08-13T09:42:26Z</time>
      </trkpt>
      <trkpt lat="46.73581" lon="4.67434">
        <ele>373</ele>
        <time>2014-08-13T09:42:40Z</time>
      </trkpt>
      <trkpt lat="46.73575" lon="4.67436">
        <ele>373</ele>
        <time>2014-08-13T09:42:45Z</time>
      </trkpt>
      <trkpt lat="46.73571" lon="4.67438">
        <ele>372</ele>
        <time>2014-08-13T09:42:53Z</time>
      </trkpt>
      <trkpt lat="46.7356" lon="4.67432">
        <ele>372</ele>
        <time>2014-08-13T09:43:03Z</time>
      </trkpt>
      <trkpt lat="46.73556" lon="4.67433">
        <ele>372</ele>
        <time>2014-08-13T09:43:07Z</time>
      </trkpt>
      <trkpt lat="46.73547" lon="4.6743">
        <ele>372</ele>
        <time>2014-08-13T09:43:12Z</time>
      </trkpt>
      <trkpt lat="46.73543" lon="4.67432">
        <ele>371</ele>
        <time>2014-08-13T09:43:15Z</time>
      </trkpt>
      <trkpt lat="46.73538" lon="4.67437">
        <ele>371</ele>
        <time>2014-08-13T09:43:19Z</time>
      </trkpt>
      <trkpt lat="46.73528" lon="4.67442">
        <ele>371</ele>
        <time>2014-08-13T09:43:25Z</time>
      </trkpt>
      <trkpt lat="46.73523" lon="4.67454">
        <ele>371</ele>
        <time>2014-08-13T09:43:30Z</time>
      </trkpt>
      <trkpt lat="46.73517" lon="4.67467">
        <ele>370</ele>
        <time>2014-08-13T09:43:39Z</time>
      </trkpt>
      <trkpt lat="46.73512" lon="4.67467">
        <ele>370</ele>
        <time>2014-08-13T09:43:48Z</time>
      </trkpt>
      <trkpt lat="46.7351" lon="4.6746">
        <ele>370</ele>
        <time>2014-08-13T09:43:53Z</time>
      </trkpt>
      <trkpt lat="46.73505" lon="4.67457">
        <ele>370</ele>
        <time>2014-08-13T09:44:00Z</time>
      </trkpt>
      <trkpt lat="46.735" lon="4.67453">
        <ele>368</ele>
        <time>2014-08-13T09:44:05Z</time>
      </trkpt>
      <trkpt lat="46.73496" lon="4.67449">
        <ele>368</ele>
        <time>2014-08-13T09:44:09Z</time>
      </trkpt>
      <trkpt lat="46.73492" lon="4.67445">
        <ele>368</ele>
        <time>2014-08-13T09:44:12Z</time>
      </trkpt>
      <trkpt lat="46.7348" lon="4.6743">
        <ele>368</ele>
        <time>2014-08-13T09:44:25Z</time>
      </trkpt>
      <trkpt lat="46.73478" lon="4.67423">
        <ele>368</ele>
        <time>2014-08-13T09:44:56Z</time>
      </trkpt>
      <trkpt lat="46.73473" lon="4.67422">
        <ele>368</ele>
        <time>2014-08-13T09:45:00Z</time>
      </trkpt>
      <trkpt lat="46.73468" lon="4.6742">
        <ele>368</ele>
        <time>2014-08-13T09:45:03Z</time>
      </trkpt>
      <trkpt lat="46.7345" lon="4.6741">
        <ele>369</ele>
        <time>2014-08-13T09:45:20Z</time>
      </trkpt>
      <trkpt lat="46.73443" lon="4.67396">
        <ele>369</ele>
        <time>2014-08-13T09:45:25Z</time>
      </trkpt>
      <trkpt lat="46.73439" lon="4.67379">
        <ele>369</ele>
        <time>2014-08-13T09:45:29Z</time>
      </trkpt>
      <trkpt lat="46.73437" lon="4.67376">
        <ele>369</ele>
        <time>2014-08-13T09:45:30Z</time>
      </trkpt>
      <trkpt lat="46.73435" lon="4.67386">
        <ele>369</ele>
        <time>2014-08-13T09:45:33Z</time>
      </trkpt>
      <trkpt lat="46.73436" lon="4.67398">
        <ele>369</ele>
        <time>2014-08-13T09:45:37Z</time>
      </trkpt>
      <trkpt lat="46.73431" lon="4.67398">
        <ele>369</ele>
        <time>2014-08-13T09:45:48Z</time>
      </trkpt>
      <trkpt lat="46.73422" lon="4.67392">
        <ele>369</ele>
        <time>2014-08-13T09:45:59Z</time>
      </trkpt>
      <trkpt lat="46.73414" lon="4.67385">
        <ele>369</ele>
        <time>2014-08-13T09:46:06Z</time>
      </trkpt>
      <trkpt lat="46.73409" lon="4.67382">
        <ele>369</ele>
        <time>2014-08-13T09:46:10Z</time>
      </trkpt>
      <trkpt lat="46.73404" lon="4.67379">
        <ele>369</ele>
        <time>2014-08-13T09:46:15Z</time>
      </trkpt>
      <trkpt lat="46.73391" lon="4.67372">
        <ele>369</ele>
        <time>2014-08-13T09:46:27Z</time>
      </trkpt>
      <trkpt lat="46.73386" lon="4.67368">
        <ele>369</ele>
        <time>2014-08-13T09:46:30Z</time>
      </trkpt>
      <trkpt lat="46.73372" lon="4.67358">
        <ele>369</ele>
        <time>2014-08-13T09:46:42Z</time>
      </trkpt>
      <trkpt lat="46.73368" lon="4.67352">
        <ele>369</ele>
        <time>2014-08-13T09:46:45Z</time>
      </trkpt>
      <trkpt lat="46.73363" lon="4.67353">
        <ele>369</ele>
        <time>2014-08-13T09:46:51Z</time>
      </trkpt>
      <trkpt lat="46.73353" lon="4.67348">
        <ele>369</ele>
        <time>2014-08-13T09:46:58Z</time>
      </trkpt>
      <trkpt lat="46.73349" lon="4.67343">
        <ele>369</ele>
        <time>2014-08-13T09:47:02Z</time>
      </trkpt>
      <trkpt lat="46.73346" lon="4.67338">
        <ele>370</ele>
        <time>2014-08-13T09:47:05Z</time>
      </trkpt>
      <trkpt lat="46.73337" lon="4.67332">
        <ele>370</ele>
        <time>2014-08-13T09:47:13Z</time>
      </trkpt>
      <trkpt lat="46.73329" lon="4.67325">
        <ele>371</ele>
        <time>2014-08-13T09:47:19Z</time>
      </trkpt>
      <trkpt lat="46.73324" lon="4.67323">
        <ele>371</ele>
        <time>2014-08-13T09:47:23Z</time>
      </trkpt>
      <trkpt lat="46.73314" lon="4.67318">
        <ele>371</ele>
        <time>2014-08-13T09:47:32Z</time>
      </trkpt>
      <trkpt lat="46.73299" lon="4.67307">
        <ele>372</ele>
        <time>2014-08-13T09:47:45Z</time>
      </trkpt>
      <trkpt lat="46.73286" lon="4.67298">
        <ele>372</ele>
        <time>2014-08-13T09:47:57Z</time>
      </trkpt>
      <trkpt lat="46.73282" lon="4.67295">
        <ele>372</ele>
        <time>2014-08-13T09:48:01Z</time>
      </trkpt>
      <trkpt lat="46.73277" lon="4.67292">
        <ele>372</ele>
        <time>2014-08-13T09:48:04Z</time>
      </trkpt>
      <trkpt lat="46.73272" lon="4.67289">
        <ele>372</ele>
        <time>2014-08-13T09:48:09Z</time>
      </trkpt>
      <trkpt lat="46.73259" lon="4.67279">
        <ele>373</ele>
        <time>2014-08-13T09:48:21Z</time>
      </trkpt>
      <trkpt lat="46.73256" lon="4.67275">
        <ele>373</ele>
        <time>2014-08-13T09:48:24Z</time>
      </trkpt>
      <trkpt lat="46.73252" lon="4.6727">
        <ele>373</ele>
        <time>2014-08-13T09:48:32Z</time>
      </trkpt>
      <trkpt lat="46.73248" lon="4.67269">
        <ele>373</ele>
        <time>2014-08-13T09:48:36Z</time>
      </trkpt>
      <trkpt lat="46.73224" lon="4.67251">
        <ele>373</ele>
        <time>2014-08-13T09:48:55Z</time>
      </trkpt>
      <trkpt lat="46.7322" lon="4.67247">
        <ele>376</ele>
        <time>2014-08-13T09:48:59Z</time>
      </trkpt>
      <trkpt lat="46.73211" lon="4.67241">
        <ele>376</ele>
        <time>2014-08-13T09:49:08Z</time>
      </trkpt>
      <trkpt lat="46.73206" lon="4.67238">
        <ele>376</ele>
        <time>2014-08-13T09:49:13Z</time>
      </trkpt>
      <trkpt lat="46.73202" lon="4.67233">
        <ele>376</ele>
        <time>2014-08-13T09:49:17Z</time>
      </trkpt>
      <trkpt lat="46.73197" lon="4.6723">
        <ele>376</ele>
        <time>2014-08-13T09:49:21Z</time>
      </trkpt>
      <trkpt lat="46.7318" lon="4.67214">
        <ele>376</ele>
        <time>2014-08-13T09:49:38Z</time>
      </trkpt>
      <trkpt lat="46.73175" lon="4.6721">
        <ele>377</ele>
        <time>2014-08-13T09:49:42Z</time>
      </trkpt>
      <trkpt lat="46.73172" lon="4.6721">
        <ele>377</ele>
        <time>2014-08-13T09:49:51Z</time>
      </trkpt>
      <trkpt lat="46.73167" lon="4.67202">
        <ele>377</ele>
        <time>2014-08-13T09:50:02Z</time>
      </trkpt>
      <trkpt lat="46.7316" lon="4.67192">
        <ele>378</ele>
        <time>2014-08-13T09:50:08Z</time>
      </trkpt>
      <trkpt lat="46.73156" lon="4.67186">
        <ele>378</ele>
        <time>2014-08-13T09:50:13Z</time>
      </trkpt>
      <trkpt lat="46.73152" lon="4.67182">
        <ele>378</ele>
        <time>2014-08-13T09:50:17Z</time>
      </trkpt>
      <trkpt lat="46.73148" lon="4.67177">
        <ele>378</ele>
        <time>2014-08-13T09:50:21Z</time>
      </trkpt>
      <trkpt lat="46.73144" lon="4.67172">
        <ele>378</ele>
        <time>2014-08-13T09:50:24Z</time>
      </trkpt>
      <trkpt lat="46.7314" lon="4.67167">
        <ele>378</ele>
        <time>2014-08-13T09:50:26Z</time>
      </trkpt>
      <trkpt lat="46.73137" lon="4.67172">
        <ele>378</ele>
        <time>2014-08-13T09:50:29Z</time>
      </trkpt>
      <trkpt lat="46.73132" lon="4.67174">
        <ele>378</ele>
        <time>2014-08-13T09:50:35Z</time>
      </trkpt>
      <trkpt lat="46.7313" lon="4.67168">
        <ele>378</ele>
        <time>2014-08-13T09:50:38Z</time>
      </trkpt>
      <trkpt lat="46.73125" lon="4.67154">
        <ele>381</ele>
        <time>2014-08-13T09:50:45Z</time>
      </trkpt>
      <trkpt lat="46.73121" lon="4.67147">
        <ele>381</ele>
        <time>2014-08-13T09:50:49Z</time>
      </trkpt>
      <trkpt lat="46.73118" lon="4.67141">
        <ele>382</ele>
        <time>2014-08-13T09:50:52Z</time>
      </trkpt>
      <trkpt lat="46.73111" lon="4.6713">
        <ele>382</ele>
        <time>2014-08-13T09:51:01Z</time>
      </trkpt>
      <trkpt lat="46.73107" lon="4.67124">
        <ele>382</ele>
        <time>2014-08-13T09:51:04Z</time>
      </trkpt>
      <trkpt lat="46.73102" lon="4.6712">
        <ele>382</ele>
        <time>2014-08-13T09:51:07Z</time>
      </trkpt>
      <trkpt lat="46.731" lon="4.67113">
        <ele>382</ele>
        <time>2014-08-13T09:51:12Z</time>
      </trkpt>
      <trkpt lat="46.73099" lon="4.67106">
        <ele>382</ele>
        <time>2014-08-13T09:51:16Z</time>
      </trkpt>
      <trkpt lat="46.73095" lon="4.67101">
        <ele>382</ele>
        <time>2014-08-13T09:51:20Z</time>
      </trkpt>
      <trkpt lat="46.73091" lon="4.67098">
        <ele>383</ele>
        <time>2014-08-13T09:51:26Z</time>
      </trkpt>
      <trkpt lat="46.73086" lon="4.67093">
        <ele>383</ele>
        <time>2014-08-13T09:51:31Z</time>
      </trkpt>
      <trkpt lat="46.73083" lon="4.67088">
        <ele>382</ele>
        <time>2014-08-13T09:51:35Z</time>
      </trkpt>
      <trkpt lat="46.73077" lon="4.67076">
        <ele>383</ele>
        <time>2014-08-13T09:51:43Z</time>
      </trkpt>
      <trkpt lat="46.73073" lon="4.6707">
        <ele>383</ele>
        <time>2014-08-13T09:51:47Z</time>
      </trkpt>
      <trkpt lat="46.73071" lon="4.67064">
        <ele>383</ele>
        <time>2014-08-13T09:51:51Z</time>
      </trkpt>
      <trkpt lat="46.7306" lon="4.67048">
        <ele>384</ele>
        <time>2014-08-13T09:52:04Z</time>
      </trkpt>
      <trkpt lat="46.73059" lon="4.67041">
        <ele>384</ele>
        <time>2014-08-13T09:52:10Z</time>
      </trkpt>
      <trkpt lat="46.73055" lon="4.67037">
        <ele>384</ele>
        <time>2014-08-13T09:52:16Z</time>
      </trkpt>
      <trkpt lat="46.73051" lon="4.67032">
        <ele>384</ele>
        <time>2014-08-13T09:52:20Z</time>
      </trkpt>
      <trkpt lat="46.73047" lon="4.67027">
        <ele>384</ele>
        <time>2014-08-13T09:52:24Z</time>
      </trkpt>
      <trkpt lat="46.73044" lon="4.67023">
        <ele>384</ele>
        <time>2014-08-13T09:52:29Z</time>
      </trkpt>
      <trkpt lat="46.73039" lon="4.67019">
        <ele>384</ele>
        <time>2014-08-13T09:52:36Z</time>
      </trkpt>
      <trkpt lat="46.73035" lon="4.67015">
        <ele>384</ele>
        <time>2014-08-13T09:52:41Z</time>
      </trkpt>
      <trkpt lat="46.73033" lon="4.67009">
        <ele>384</ele>
        <time>2014-08-13T09:52:46Z</time>
      </trkpt>
      <trkpt lat="46.73029" lon="4.67004">
        <ele>383</ele>
        <time>2014-08-13T09:52:50Z</time>
      </trkpt>
      <trkpt lat="46.73007" lon="4.66981">
        <ele>386</ele>
        <time>2014-08-13T09:53:09Z</time>
      </trkpt>
      <trkpt lat="46.73002" lon="4.66977">
        <ele>386</ele>
        <time>2014-08-13T09:53:13Z</time>
      </trkpt>
      <trkpt lat="46.72986" lon="4.66962">
        <ele>382</ele>
        <time>2014-08-13T09:53:29Z</time>
      </trkpt>
      <trkpt lat="46.72986" lon="4.66958">
        <ele>383</ele>
        <time>2014-08-13T09:53:43Z</time>
      </trkpt>
      <trkpt lat="46.7298" lon="4.66959">
        <ele>382</ele>
        <time>2014-08-13T09:53:51Z</time>
      </trkpt>
      <trkpt lat="46.72976" lon="4.6696">
        <ele>382</ele>
        <time>2014-08-13T09:53:56Z</time>
      </trkpt>
      <trkpt lat="46.7296" lon="4.66949">
        <ele>382</ele>
        <time>2014-08-13T09:54:08Z</time>
      </trkpt>
      <trkpt lat="46.72944" lon="4.6693">
        <ele>382</ele>
        <time>2014-08-13T09:54:23Z</time>
      </trkpt>
      <trkpt lat="46.7294" lon="4.66927">
        <ele>382</ele>
        <time>2014-08-13T09:54:26Z</time>
      </trkpt>
      <trkpt lat="46.72927" lon="4.66915">
        <ele>384</ele>
        <time>2014-08-13T09:54:38Z</time>
      </trkpt>
      <trkpt lat="46.72917" lon="4.66908">
        <ele>384</ele>
        <time>2014-08-13T09:54:53Z</time>
      </trkpt>
      <trkpt lat="46.72912" lon="4.66906">
        <ele>382</ele>
        <time>2014-08-13T09:54:56Z</time>
      </trkpt>
      <trkpt lat="46.72903" lon="4.66901">
        <ele>381</ele>
        <time>2014-08-13T09:55:03Z</time>
      </trkpt>
      <trkpt lat="46.72899" lon="4.66896">
        <ele>381</ele>
        <time>2014-08-13T09:55:07Z</time>
      </trkpt>
      <trkpt lat="46.72895" lon="4.66891">
        <ele>381</ele>
        <time>2014-08-13T09:55:11Z</time>
      </trkpt>
      <trkpt lat="46.72891" lon="4.66887">
        <ele>381</ele>
        <time>2014-08-13T09:55:14Z</time>
      </trkpt>
      <trkpt lat="46.72886" lon="4.66885">
        <ele>381</ele>
        <time>2014-08-13T09:55:18Z</time>
      </trkpt>
      <trkpt lat="46.72881" lon="4.66882">
        <ele>381</ele>
        <time>2014-08-13T09:55:22Z</time>
      </trkpt>
      <trkpt lat="46.72877" lon="4.66878">
        <ele>381</ele>
        <time>2014-08-13T09:55:27Z</time>
      </trkpt>
      <trkpt lat="46.72854" lon="4.66861">
        <ele>381</ele>
        <time>2014-08-13T09:55:46Z</time>
      </trkpt>
      <trkpt lat="46.72843" lon="4.66858">
        <ele>380</ele>
        <time>2014-08-13T09:55:54Z</time>
      </trkpt>
      <trkpt lat="46.72838" lon="4.66854">
        <ele>380</ele>
        <time>2014-08-13T09:55:58Z</time>
      </trkpt>
      <trkpt lat="46.72834" lon="4.6685">
        <ele>380</ele>
        <time>2014-08-13T09:56:01Z</time>
      </trkpt>
      <trkpt lat="46.72829" lon="4.66847">
        <ele>377</ele>
        <time>2014-08-13T09:56:06Z</time>
      </trkpt>
      <trkpt lat="46.72823" lon="4.66844">
        <ele>377</ele>
        <time>2014-08-13T09:56:10Z</time>
      </trkpt>
      <trkpt lat="46.72818" lon="4.66842">
        <ele>377</ele>
        <time>2014-08-13T09:56:14Z</time>
      </trkpt>
      <trkpt lat="46.72814" lon="4.66837">
        <ele>377</ele>
        <time>2014-08-13T09:56:18Z</time>
      </trkpt>
      <trkpt lat="46.7281" lon="4.66833">
        <ele>379</ele>
        <time>2014-08-13T09:56:22Z</time>
      </trkpt>
      <trkpt lat="46.72805" lon="4.66828">
        <ele>379</ele>
        <time>2014-08-13T09:56:26Z</time>
      </trkpt>
      <trkpt lat="46.72796" lon="4.66818">
        <ele>378</ele>
        <time>2014-08-13T09:56:34Z</time>
      </trkpt>
      <trkpt lat="46.72792" lon="4.66815">
        <ele>378</ele>
        <time>2014-08-13T09:56:38Z</time>
      </trkpt>
      <trkpt lat="46.72788" lon="4.66812">
        <ele>378</ele>
        <time>2014-08-13T09:56:42Z</time>
      </trkpt>
      <trkpt lat="46.72783" lon="4.66808">
        <ele>378</ele>
        <time>2014-08-13T09:56:47Z</time>
      </trkpt>
      <trkpt lat="46.72774" lon="4.66798">
        <ele>378</ele>
        <time>2014-08-13T09:56:54Z</time>
      </trkpt>
      <trkpt lat="46.7277" lon="4.66793">
        <ele>378</ele>
        <time>2014-08-13T09:56:58Z</time>
      </trkpt>
      <trkpt lat="46.72767" lon="4.66789">
        <ele>378</ele>
        <time>2014-08-13T09:57:02Z</time>
      </trkpt>
      <trkpt lat="46.72762" lon="4.66785">
        <ele>378</ele>
        <time>2014-08-13T09:57:06Z</time>
      </trkpt>
      <trkpt lat="46.72749" lon="4.66773">
        <ele>376</ele>
        <time>2014-08-13T09:57:18Z</time>
      </trkpt>
      <trkpt lat="46.72745" lon="4.66767">
        <ele>377</ele>
        <time>2014-08-13T09:57:22Z</time>
      </trkpt>
      <trkpt lat="46.72735" lon="4.66764">
        <ele>377</ele>
        <time>2014-08-13T09:57:31Z</time>
      </trkpt>
      <trkpt lat="46.72732" lon="4.66758">
        <ele>377</ele>
        <time>2014-08-13T09:57:35Z</time>
      </trkpt>
      <trkpt lat="46.72728" lon="4.66751">
        <ele>377</ele>
        <time>2014-08-13T09:57:39Z</time>
      </trkpt>
      <trkpt lat="46.72724" lon="4.66747">
        <ele>378</ele>
        <time>2014-08-13T09:57:44Z</time>
      </trkpt>
      <trkpt lat="46.72704" lon="4.66744">
        <ele>377</ele>
        <time>2014-08-13T09:58:02Z</time>
      </trkpt>
      <trkpt lat="46.727" lon="4.66744">
        <ele>377</ele>
        <time>2014-08-13T09:58:06Z</time>
      </trkpt>
      <trkpt lat="46.72695" lon="4.66742">
        <ele>377</ele>
        <time>2014-08-13T09:58:27Z</time>
      </trkpt>
      <trkpt lat="46.72692" lon="4.66742">
        <ele>377</ele>
        <time>2014-08-13T09:58:32Z</time>
      </trkpt>
      <trkpt lat="46.72688" lon="4.6674">
        <ele>377</ele>
        <time>2014-08-13T09:58:47Z</time>
      </trkpt>
      <trkpt lat="46.7267" lon="4.66734">
        <ele>376</ele>
        <time>2014-08-13T09:58:56Z</time>
      </trkpt>
      <trkpt lat="46.72668" lon="4.66733">
        <ele>376</ele>
        <time>2014-08-13T09:58:58Z</time>
      </trkpt>
      <trkpt lat="46.72668" lon="4.6673">
        <ele>376</ele>
        <time>2014-08-13T09:59:14Z</time>
      </trkpt>
      <trkpt lat="46.72662" lon="4.66729">
        <ele>376</ele>
        <time>2014-08-13T09:59:18Z</time>
      </trkpt>
      <trkpt lat="46.72658" lon="4.6673">
        <ele>376</ele>
        <time>2014-08-13T09:59:23Z</time>
      </trkpt>
      <trkpt lat="46.72653" lon="4.66732">
        <ele>376</ele>
        <time>2014-08-13T09:59:27Z</time>
      </trkpt>
      <trkpt lat="46.72649" lon="4.66726">
        <ele>376</ele>
        <time>2014-08-13T09:59:32Z</time>
      </trkpt>
      <trkpt lat="46.72636" lon="4.66713">
        <ele>377</ele>
        <time>2014-08-13T09:59:42Z</time>
      </trkpt>
      <trkpt lat="46.72631" lon="4.66712">
        <ele>377</ele>
        <time>2014-08-13T09:59:46Z</time>
      </trkpt>
      <trkpt lat="46.72616" lon="4.66707">
        <ele>377</ele>
        <time>2014-08-13T09:59:56Z</time>
      </trkpt>
      <trkpt lat="46.72611" lon="4.6671">
        <ele>377</ele>
        <time>2014-08-13T10:00:00Z</time>
      </trkpt>
      <trkpt lat="46.72601" lon="4.66712">
        <ele>377</ele>
        <time>2014-08-13T10:00:09Z</time>
      </trkpt>
      <trkpt lat="46.72593" lon="4.66718">
        <ele>377</ele>
        <time>2014-08-13T10:00:17Z</time>
      </trkpt>
      <trkpt lat="46.72587" lon="4.6672">
        <ele>377</ele>
        <time>2014-08-13T10:00:20Z</time>
      </trkpt>
      <trkpt lat="46.72583" lon="4.66723">
        <ele>378</ele>
        <time>2014-08-13T10:00:24Z</time>
      </trkpt>
      <trkpt lat="46.72569" lon="4.66736">
        <ele>377</ele>
        <time>2014-08-13T10:00:38Z</time>
      </trkpt>
      <trkpt lat="46.72564" lon="4.66738">
        <ele>378</ele>
        <time>2014-08-13T10:00:43Z</time>
      </trkpt>
      <trkpt lat="46.72559" lon="4.6674">
        <ele>378</ele>
        <time>2014-08-13T10:00:46Z</time>
      </trkpt>
      <trkpt lat="46.72553" lon="4.66741">
        <ele>378</ele>
        <time>2014-08-13T10:00:50Z</time>
      </trkpt>
      <trkpt lat="46.72543" lon="4.66743">
        <ele>378</ele>
        <time>2014-08-13T10:00:58Z</time>
      </trkpt>
      <trkpt lat="46.72539" lon="4.66743">
        <ele>378</ele>
        <time>2014-08-13T10:01:01Z</time>
      </trkpt>
      <trkpt lat="46.72534" lon="4.66742">
        <ele>379</ele>
        <time>2014-08-13T10:01:04Z</time>
      </trkpt>
      <trkpt lat="46.72497" lon="4.66747">
        <ele>381</ele>
        <time>2014-08-13T10:01:35Z</time>
      </trkpt>
      <trkpt lat="46.72492" lon="4.66749">
        <ele>381</ele>
        <time>2014-08-13T10:01:40Z</time>
      </trkpt>
      <trkpt lat="46.72488" lon="4.66752">
        <ele>381</ele>
        <time>2014-08-13T10:01:45Z</time>
      </trkpt>
      <trkpt lat="46.72472" lon="4.66759">
        <ele>382</ele>
        <time>2014-08-13T10:01:58Z</time>
      </trkpt>
      <trkpt lat="46.72467" lon="4.66761">
        <ele>382</ele>
        <time>2014-08-13T10:02:02Z</time>
      </trkpt>
      <trkpt lat="46.72462" lon="4.66762">
        <ele>383</ele>
        <time>2014-08-13T10:02:06Z</time>
      </trkpt>
      <trkpt lat="46.72446" lon="4.66758">
        <ele>383</ele>
        <time>2014-08-13T10:02:19Z</time>
      </trkpt>
      <trkpt lat="46.72436" lon="4.66755">
        <ele>384</ele>
        <time>2014-08-13T10:02:29Z</time>
      </trkpt>
      <trkpt lat="46.72432" lon="4.66753">
        <ele>384</ele>
        <time>2014-08-13T10:02:32Z</time>
      </trkpt>
      <trkpt lat="46.72424" lon="4.66743">
        <ele>385</ele>
        <time>2014-08-13T10:02:43Z</time>
      </trkpt>
      <trkpt lat="46.72419" lon="4.66746">
        <ele>386</ele>
        <time>2014-08-13T10:02:48Z</time>
      </trkpt>
      <trkpt lat="46.72415" lon="4.66749">
        <ele>386</ele>
        <time>2014-08-13T10:02:52Z</time>
      </trkpt>
      <trkpt lat="46.72407" lon="4.66752">
        <ele>386</ele>
        <time>2014-08-13T10:03:03Z</time>
      </trkpt>
      <trkpt lat="46.72403" lon="4.66748">
        <ele>388</ele>
        <time>2014-08-13T10:03:07Z</time>
      </trkpt>
      <trkpt lat="46.72391" lon="4.66742">
        <ele>388</ele>
        <time>2014-08-13T10:03:12Z</time>
      </trkpt>
      <trkpt lat="46.72387" lon="4.66742">
        <ele>389</ele>
        <time>2014-08-13T10:03:15Z</time>
      </trkpt>
      <trkpt lat="46.72379" lon="4.66742">
        <ele>389</ele>
        <time>2014-08-13T10:03:24Z</time>
      </trkpt>
      <trkpt lat="46.72381" lon="4.66735">
        <ele>389</ele>
        <time>2014-08-13T10:03:30Z</time>
      </trkpt>
      <trkpt lat="46.72379" lon="4.66738">
        <ele>389</ele>
        <time>2014-08-13T10:03:56Z</time>
      </trkpt>
      <trkpt lat="46.72381" lon="4.66753">
        <ele>387</ele>
        <time>2014-08-13T10:04:03Z</time>
      </trkpt>
      <trkpt lat="46.7238" lon="4.6676">
        <ele>387</ele>
        <time>2014-08-13T10:04:06Z</time>
      </trkpt>
      <trkpt lat="46.72372" lon="4.66789">
        <ele>387</ele>
        <time>2014-08-13T10:04:23Z</time>
      </trkpt>
      <trkpt lat="46.72367" lon="4.66809">
        <ele>387</ele>
        <time>2014-08-13T10:04:36Z</time>
      </trkpt>
      <trkpt lat="46.72367" lon="4.66816">
        <ele>387</ele>
        <time>2014-08-13T10:04:45Z</time>
      </trkpt>
      <trkpt lat="46.72364" lon="4.66822">
        <ele>387</ele>
        <time>2014-08-13T10:04:50Z</time>
      </trkpt>
      <trkpt lat="46.72361" lon="4.66828">
        <ele>387</ele>
        <time>2014-08-13T10:04:52Z</time>
      </trkpt>
      <trkpt lat="46.72344" lon="4.66862">
        <ele>386</ele>
        <time>2014-08-13T10:05:20Z</time>
      </trkpt>
      <trkpt lat="46.7234" lon="4.66868">
        <ele>386</ele>
        <time>2014-08-13T10:05:23Z</time>
      </trkpt>
      <trkpt lat="46.72338" lon="4.66874">
        <ele>386</ele>
        <time>2014-08-13T10:05:27Z</time>
      </trkpt>
      <trkpt lat="46.72332" lon="4.66887">
        <ele>389</ele>
        <time>2014-08-13T10:05:36Z</time>
      </trkpt>
      <trkpt lat="46.72323" lon="4.66903">
        <ele>389</ele>
        <time>2014-08-13T10:05:45Z</time>
      </trkpt>
      <trkpt lat="46.72318" lon="4.66909">
        <ele>389</ele>
        <time>2014-08-13T10:05:49Z</time>
      </trkpt>
      <trkpt lat="46.72309" lon="4.66914">
        <ele>389</ele>
        <time>2014-08-13T10:05:56Z</time>
      </trkpt>
      <trkpt lat="46.72295" lon="4.66921">
        <ele>392</ele>
        <time>2014-08-13T10:06:05Z</time>
      </trkpt>
      <trkpt lat="46.72292" lon="4.66927">
        <ele>392</ele>
        <time>2014-08-13T10:06:10Z</time>
      </trkpt>
      <trkpt lat="46.72282" lon="4.66943">
        <ele>393</ele>
        <time>2014-08-13T10:06:29Z</time>
      </trkpt>
      <trkpt lat="46.72277" lon="4.66949">
        <ele>393</ele>
        <time>2014-08-13T10:06:32Z</time>
      </trkpt>
      <trkpt lat="46.72274" lon="4.66954">
        <ele>393</ele>
        <time>2014-08-13T10:06:36Z</time>
      </trkpt>
      <trkpt lat="46.72271" lon="4.6696">
        <ele>394</ele>
        <time>2014-08-13T10:06:41Z</time>
      </trkpt>
      <trkpt lat="46.72261" lon="4.66978">
        <ele>395</ele>
        <time>2014-08-13T10:06:57Z</time>
      </trkpt>
      <trkpt lat="46.72248" lon="4.66987">
        <ele>401</ele>
        <time>2014-08-13T10:07:09Z</time>
      </trkpt>
      <trkpt lat="46.72242" lon="4.66987">
        <ele>401</ele>
        <time>2014-08-13T10:07:14Z</time>
      </trkpt>
      <trkpt lat="46.72226" lon="4.66991">
        <ele>402</ele>
        <time>2014-08-13T10:07:26Z</time>
      </trkpt>
      <trkpt lat="46.72225" lon="4.66993">
        <ele>402</ele>
        <time>2014-08-13T10:07:32Z</time>
      </trkpt>
      <trkpt lat="46.72224" lon="4.66996">
        <ele>402</ele>
        <time>2014-08-13T10:07:45Z</time>
      </trkpt>
      <trkpt lat="46.72219" lon="4.66994">
        <ele>402</ele>
        <time>2014-08-13T10:07:57Z</time>
      </trkpt>
      <trkpt lat="46.72215" lon="4.66991">
        <ele>403</ele>
        <time>2014-08-13T10:08:00Z</time>
      </trkpt>
      <trkpt lat="46.7221" lon="4.66989">
        <ele>403</ele>
        <time>2014-08-13T10:08:04Z</time>
      </trkpt>
      <trkpt lat="46.72204" lon="4.6699">
        <ele>404</ele>
        <time>2014-08-13T10:08:07Z</time>
      </trkpt>
      <trkpt lat="46.72195" lon="4.66982">
        <ele>404</ele>
        <time>2014-08-13T10:08:19Z</time>
      </trkpt>
      <trkpt lat="46.72191" lon="4.66982">
        <ele>405</ele>
        <time>2014-08-13T10:08:24Z</time>
      </trkpt>
      <trkpt lat="46.72178" lon="4.66973">
        <ele>405</ele>
        <time>2014-08-13T10:08:32Z</time>
      </trkpt>
      <trkpt lat="46.72167" lon="4.66976">
        <ele>406</ele>
        <time>2014-08-13T10:08:42Z</time>
      </trkpt>
      <trkpt lat="46.72157" lon="4.66973">
        <ele>410</ele>
        <time>2014-08-13T10:08:50Z</time>
      </trkpt>
      <trkpt lat="46.72152" lon="4.66971">
        <ele>410</ele>
        <time>2014-08-13T10:08:54Z</time>
      </trkpt>
      <trkpt lat="46.72148" lon="4.66966">
        <ele>410</ele>
        <time>2014-08-13T10:08:59Z</time>
      </trkpt>
      <trkpt lat="46.72143" lon="4.66966">
        <ele>410</ele>
        <time>2014-08-13T10:09:03Z</time>
      </trkpt>
      <trkpt lat="46.72139" lon="4.66962">
        <ele>410</ele>
        <time>2014-08-13T10:09:07Z</time>
      </trkpt>
      <trkpt lat="46.72138" lon="4.66965">
        <ele>410</ele>
        <time>2014-08-13T10:09:13Z</time>
      </trkpt>
      <trkpt lat="46.72134" lon="4.66962">
        <ele>410</ele>
        <time>2014-08-13T10:09:22Z</time>
      </trkpt>
      <trkpt lat="46.72125" lon="4.66952">
        <ele>410</ele>
        <time>2014-08-13T10:09:29Z</time>
      </trkpt>
      <trkpt lat="46.7212" lon="4.66954">
        <ele>410</ele>
        <time>2014-08-13T10:09:33Z</time>
      </trkpt>
      <trkpt lat="46.72115" lon="4.66952">
        <ele>410</ele>
        <time>2014-08-13T10:09:37Z</time>
      </trkpt>
      <trkpt lat="46.7211" lon="4.66952">
        <ele>410</ele>
        <time>2014-08-13T10:09:40Z</time>
      </trkpt>
      <trkpt lat="46.72103" lon="4.66942">
        <ele>410</ele>
        <time>2014-08-13T10:09:46Z</time>
      </trkpt>
      <trkpt lat="46.7209" lon="4.66938">
        <ele>411</ele>
        <time>2014-08-13T10:10:03Z</time>
      </trkpt>
      <trkpt lat="46.72078" lon="4.66924">
        <ele>411</ele>
        <time>2014-08-13T10:10:14Z</time>
      </trkpt>
      <trkpt lat="46.72074" lon="4.66915">
        <ele>411</ele>
        <time>2014-08-13T10:10:20Z</time>
      </trkpt>
      <trkpt lat="46.72064" lon="4.6691">
        <ele>410</ele>
        <time>2014-08-13T10:10:28Z</time>
      </trkpt>
      <trkpt lat="46.72059" lon="4.66909">
        <ele>410</ele>
        <time>2014-08-13T10:10:33Z</time>
      </trkpt>
      <trkpt lat="46.72048" lon="4.66907">
        <ele>410</ele>
        <time>2014-08-13T10:10:42Z</time>
      </trkpt>
      <trkpt lat="46.72044" lon="4.66902">
        <ele>410</ele>
        <time>2014-08-13T10:10:46Z</time>
      </trkpt>
      <trkpt lat="46.72039" lon="4.66903">
        <ele>410</ele>
        <time>2014-08-13T10:10:51Z</time>
      </trkpt>
      <trkpt lat="46.72035" lon="4.66899">
        <ele>410</ele>
        <time>2014-08-13T10:10:57Z</time>
      </trkpt>
      <trkpt lat="46.72032" lon="4.66893">
        <ele>410</ele>
        <time>2014-08-13T10:11:02Z</time>
      </trkpt>
      <trkpt lat="46.72028" lon="4.66889">
        <ele>410</ele>
        <time>2014-08-13T10:11:04Z</time>
      </trkpt>
      <trkpt lat="46.7202" lon="4.6688">
        <ele>410</ele>
        <time>2014-08-13T10:11:14Z</time>
      </trkpt>
      <trkpt lat="46.72015" lon="4.66879">
        <ele>410</ele>
        <time>2014-08-13T10:11:17Z</time>
      </trkpt>
      <trkpt lat="46.72009" lon="4.66872">
        <ele>410</ele>
        <time>2014-08-13T10:11:27Z</time>
      </trkpt>
      <trkpt lat="46.71999" lon="4.6687">
        <ele>408</ele>
        <time>2014-08-13T10:11:36Z</time>
      </trkpt>
      <trkpt lat="46.71995" lon="4.66866">
        <ele>408</ele>
        <time>2014-08-13T10:11:41Z</time>
      </trkpt>
      <trkpt lat="46.7199" lon="4.66862">
        <ele>408</ele>
        <time>2014-08-13T10:11:46Z</time>
      </trkpt>
      <trkpt lat="46.71988" lon="4.66856">
        <ele>408</ele>
        <time>2014-08-13T10:11:51Z</time>
      </trkpt>
      <trkpt lat="46.71977" lon="4.66827">
        <ele>409</ele>
        <time>2014-08-13T10:11:59Z</time>
      </trkpt>
      <trkpt lat="46.71975" lon="4.66823">
        <ele>408</ele>
        <time>2014-08-13T10:12:01Z</time>
      </trkpt>
      <trkpt lat="46.71969" lon="4.66826">
        <ele>408</ele>
        <time>2014-08-13T10:12:10Z</time>
      </trkpt>
      <trkpt lat="46.71959" lon="4.66825">
        <ele>408</ele>
        <time>2014-08-13T10:12:22Z</time>
      </trkpt>
      <trkpt lat="46.71952" lon="4.66814">
        <ele>407</ele>
        <time>2014-08-13T10:12:29Z</time>
      </trkpt>
      <trkpt lat="46.71949" lon="4.66808">
        <ele>407</ele>
        <time>2014-08-13T10:12:34Z</time>
      </trkpt>
      <trkpt lat="46.71947" lon="4.66802">
        <ele>407</ele>
        <time>2014-08-13T10:12:38Z</time>
      </trkpt>
      <trkpt lat="46.71944" lon="4.66796">
        <ele>407</ele>
        <time>2014-08-13T10:12:42Z</time>
      </trkpt>
      <trkpt lat="46.71941" lon="4.66791">
        <ele>407</ele>
        <time>2014-08-13T10:12:46Z</time>
      </trkpt>
      <trkpt lat="46.71939" lon="4.66785">
        <ele>407</ele>
        <time>2014-08-13T10:12:50Z</time>
      </trkpt>
      <trkpt lat="46.71937" lon="4.66779">
        <ele>407</ele>
        <time>2014-08-13T10:12:54Z</time>
      </trkpt>
      <trkpt lat="46.71918" lon="4.66753">
        <ele>406</ele>
        <time>2014-08-13T10:13:13Z</time>
      </trkpt>
      <trkpt lat="46.71916" lon="4.66756">
        <ele>405</ele>
        <time>2014-08-13T10:14:19Z</time>
      </trkpt>
      <trkpt lat="46.71912" lon="4.66751">
        <ele>405</ele>
        <time>2014-08-13T10:14:20Z</time>
      </trkpt>
      <trkpt lat="46.71904" lon="4.66738">
        <ele>404</ele>
        <time>2014-08-13T10:14:25Z</time>
      </trkpt>
      <trkpt lat="46.719" lon="4.66724">
        <ele>404</ele>
        <time>2014-08-13T10:14:34Z</time>
      </trkpt>
      <trkpt lat="46.71895" lon="4.66721">
        <ele>403</ele>
        <time>2014-08-13T10:14:36Z</time>
      </trkpt>
      <trkpt lat="46.71891" lon="4.66708">
        <ele>403</ele>
        <time>2014-08-13T10:14:45Z</time>
      </trkpt>
      <trkpt lat="46.71882" lon="4.667">
        <ele>403</ele>
        <time>2014-08-13T10:14:54Z</time>
      </trkpt>
      <trkpt lat="46.7188" lon="4.66693">
        <ele>403</ele>
        <time>2014-08-13T10:15:01Z</time>
      </trkpt>
      <trkpt lat="46.71876" lon="4.66688">
        <ele>403</ele>
        <time>2014-08-13T10:15:04Z</time>
      </trkpt>
      <trkpt lat="46.71844" lon="4.66659">
        <ele>401</ele>
        <time>2014-08-13T10:15:31Z</time>
      </trkpt>
      <trkpt lat="46.71839" lon="4.66653">
        <ele>401</ele>
        <time>2014-08-13T10:15:35Z</time>
      </trkpt>
      <trkpt lat="46.71829" lon="4.66646">
        <ele>398</ele>
        <time>2014-08-13T10:15:43Z</time>
      </trkpt>
      <trkpt lat="46.7182" lon="4.66637">
        <ele>397</ele>
        <time>2014-08-13T10:15:52Z</time>
      </trkpt>
      <trkpt lat="46.71815" lon="4.66632">
        <ele>397</ele>
        <time>2014-08-13T10:15:55Z</time>
      </trkpt>
      <trkpt lat="46.71803" lon="4.66617">
        <ele>397</ele>
        <time>2014-08-13T10:16:06Z</time>
      </trkpt>
      <trkpt lat="46.71799" lon="4.66615">
        <ele>397</ele>
        <time>2014-08-13T10:16:11Z</time>
      </trkpt>
      <trkpt lat="46.71794" lon="4.66612">
        <ele>397</ele>
        <time>2014-08-13T10:16:14Z</time>
      </trkpt>
      <trkpt lat="46.71787" lon="4.66601">
        <ele>396</ele>
        <time>2014-08-13T10:16:22Z</time>
      </trkpt>
      <trkpt lat="46.71783" lon="4.66597">
        <ele>396</ele>
        <time>2014-08-13T10:16:25Z</time>
      </trkpt>
      <trkpt lat="46.7178" lon="4.66582">
        <ele>398</ele>
        <time>2014-08-13T10:16:32Z</time>
      </trkpt>
      <trkpt lat="46.71775" lon="4.66577">
        <ele>398</ele>
        <time>2014-08-13T10:16:36Z</time>
      </trkpt>
      <trkpt lat="46.7177" lon="4.66574">
        <ele>397</ele>
        <time>2014-08-13T10:16:39Z</time>
      </trkpt>
      <trkpt lat="46.71761" lon="4.6657">
        <ele>397</ele>
        <time>2014-08-13T10:16:45Z</time>
      </trkpt>
      <trkpt lat="46.71757" lon="4.66566">
        <ele>397</ele>
        <time>2014-08-13T10:16:49Z</time>
      </trkpt>
      <trkpt lat="46.71754" lon="4.6656">
        <ele>397</ele>
        <time>2014-08-13T10:16:54Z</time>
      </trkpt>
      <trkpt lat="46.71751" lon="4.66555">
        <ele>398</ele>
        <time>2014-08-13T10:16:58Z</time>
      </trkpt>
      <trkpt lat="46.71747" lon="4.66551">
        <ele>394</ele>
        <time>2014-08-13T10:17:03Z</time>
      </trkpt>
      <trkpt lat="46.71736" lon="4.66539">
        <ele>394</ele>
        <time>2014-08-13T10:17:13Z</time>
      </trkpt>
      <trkpt lat="46.71726" lon="4.66533">
        <ele>394</ele>
        <time>2014-08-13T10:17:21Z</time>
      </trkpt>
      <trkpt lat="46.71716" lon="4.66527">
        <ele>393</ele>
        <time>2014-08-13T10:17:30Z</time>
      </trkpt>
      <trkpt lat="46.71711" lon="4.66525">
        <ele>393</ele>
        <time>2014-08-13T10:17:33Z</time>
      </trkpt>
      <trkpt lat="46.71688" lon="4.66524">
        <ele>392</ele>
        <time>2014-08-13T10:17:58Z</time>
      </trkpt>
      <trkpt lat="46.71681" lon="4.66524">
        <ele>392</ele>
        <time>2014-08-13T10:18:04Z</time>
      </trkpt>
      <trkpt lat="46.71676" lon="4.66521">
        <ele>392</ele>
        <time>2014-08-13T10:18:07Z</time>
      </trkpt>
      <trkpt lat="46.71671" lon="4.66518">
        <ele>392</ele>
        <time>2014-08-13T10:18:11Z</time>
      </trkpt>
      <trkpt lat="46.71655" lon="4.66517">
        <ele>389</ele>
        <time>2014-08-13T10:18:25Z</time>
      </trkpt>
      <trkpt lat="46.7164" lon="4.6652">
        <ele>388</ele>
        <time>2014-08-13T10:18:38Z</time>
      </trkpt>
      <trkpt lat="46.71634" lon="4.66521">
        <ele>388</ele>
        <time>2014-08-13T10:18:42Z</time>
      </trkpt>
      <trkpt lat="46.71629" lon="4.66519">
        <ele>388</ele>
        <time>2014-08-13T10:18:48Z</time>
      </trkpt>
      <trkpt lat="46.71609" lon="4.6651">
        <ele>387</ele>
        <time>2014-08-13T10:19:06Z</time>
      </trkpt>
      <trkpt lat="46.71604" lon="4.66508">
        <ele>386</ele>
        <time>2014-08-13T10:19:09Z</time>
      </trkpt>
      <trkpt lat="46.71599" lon="4.66506">
        <ele>386</ele>
        <time>2014-08-13T10:19:13Z</time>
      </trkpt>
      <trkpt lat="46.71584" lon="4.66505">
        <ele>385</ele>
        <time>2014-08-13T10:19:24Z</time>
      </trkpt>
      <trkpt lat="46.71562" lon="4.66503">
        <ele>384</ele>
        <time>2014-08-13T10:19:39Z</time>
      </trkpt>
      <trkpt lat="46.71557" lon="4.66503">
        <ele>383</ele>
        <time>2014-08-13T10:19:42Z</time>
      </trkpt>
      <trkpt lat="46.71552" lon="4.66502">
        <ele>383</ele>
        <time>2014-08-13T10:19:47Z</time>
      </trkpt>
      <trkpt lat="46.71547" lon="4.66502">
        <ele>383</ele>
        <time>2014-08-13T10:19:51Z</time>
      </trkpt>
      <trkpt lat="46.71531" lon="4.66498">
        <ele>381</ele>
        <time>2014-08-13T10:20:03Z</time>
      </trkpt>
      <trkpt lat="46.71527" lon="4.66494">
        <ele>381</ele>
        <time>2014-08-13T10:20:07Z</time>
      </trkpt>
      <trkpt lat="46.71522" lon="4.66492">
        <ele>381</ele>
        <time>2014-08-13T10:20:10Z</time>
      </trkpt>
      <trkpt lat="46.71523" lon="4.66498">
        <ele>381</ele>
        <time>2014-08-13T10:20:34Z</time>
      </trkpt>
      <trkpt lat="46.71518" lon="4.66504">
        <ele>382</ele>
        <time>2014-08-13T10:21:19Z</time>
      </trkpt>
      <trkpt lat="46.71509" lon="4.6651">
        <ele>381</ele>
        <time>2014-08-13T10:21:27Z</time>
      </trkpt>
      <trkpt lat="46.71504" lon="4.66511">
        <ele>381</ele>
        <time>2014-08-13T10:21:32Z</time>
      </trkpt>
      <trkpt lat="46.71498" lon="4.66511">
        <ele>381</ele>
        <time>2014-08-13T10:21:35Z</time>
      </trkpt>
      <trkpt lat="46.71494" lon="4.66514">
        <ele>381</ele>
        <time>2014-08-13T10:21:39Z</time>
      </trkpt>
      <trkpt lat="46.7148" lon="4.66521">
        <ele>382</ele>
        <time>2014-08-13T10:21:52Z</time>
      </trkpt>
      <trkpt lat="46.71454" lon="4.66546">
        <ele>383</ele>
        <time>2014-08-13T10:22:11Z</time>
      </trkpt>
      <trkpt lat="46.71429" lon="4.6657">
        <ele>384</ele>
        <time>2014-08-13T10:22:39Z</time>
      </trkpt>
      <trkpt lat="46.7143" lon="4.66578">
        <ele>384</ele>
        <time>2014-08-13T10:22:42Z</time>
      </trkpt>
      <trkpt lat="46.71426" lon="4.66583">
        <ele>384</ele>
        <time>2014-08-13T10:22:47Z</time>
      </trkpt>
      <trkpt lat="46.71416" lon="4.66585">
        <ele>384</ele>
        <time>2014-08-13T10:22:52Z</time>
      </trkpt>
      <trkpt lat="46.71411" lon="4.66588">
        <ele>385</ele>
        <time>2014-08-13T10:22:56Z</time>
      </trkpt>
      <trkpt lat="46.71399" lon="4.66602">
        <ele>386</ele>
        <time>2014-08-13T10:23:10Z</time>
      </trkpt>
      <trkpt lat="46.71391" lon="4.6661">
        <ele>386</ele>
        <time>2014-08-13T10:23:15Z</time>
      </trkpt>
      <trkpt lat="46.71388" lon="4.66615">
        <ele>386</ele>
        <time>2014-08-13T10:23:19Z</time>
      </trkpt>
      <trkpt lat="46.71378" lon="4.66622">
        <ele>386</ele>
        <time>2014-08-13T10:23:26Z</time>
      </trkpt>
      <trkpt lat="46.71374" lon="4.66625">
        <ele>387</ele>
        <time>2014-08-13T10:23:30Z</time>
      </trkpt>
      <trkpt lat="46.71369" lon="4.66628">
        <ele>387</ele>
        <time>2014-08-13T10:23:36Z</time>
      </trkpt>
      <trkpt lat="46.71365" lon="4.66631">
        <ele>387</ele>
        <time>2014-08-13T10:23:40Z</time>
      </trkpt>
      <trkpt lat="46.7136" lon="4.66637">
        <ele>387</ele>
        <time>2014-08-13T10:23:45Z</time>
      </trkpt>
      <trkpt lat="46.71356" lon="4.6664">
        <ele>387</ele>
        <time>2014-08-13T10:23:48Z</time>
      </trkpt>
      <trkpt lat="46.71342" lon="4.66648">
        <ele>387</ele>
        <time>2014-08-13T10:24:01Z</time>
      </trkpt>
      <trkpt lat="46.71326" lon="4.66655">
        <ele>390</ele>
        <time>2014-08-13T10:24:14Z</time>
      </trkpt>
      <trkpt lat="46.71309" lon="4.66672">
        <ele>390</ele>
        <time>2014-08-13T10:24:31Z</time>
      </trkpt>
      <trkpt lat="46.71304" lon="4.66676">
        <ele>390</ele>
        <time>2014-08-13T10:24:34Z</time>
      </trkpt>
      <trkpt lat="46.71299" lon="4.6668">
        <ele>390</ele>
        <time>2014-08-13T10:24:39Z</time>
      </trkpt>
      <trkpt lat="46.71293" lon="4.66683">
        <ele>391</ele>
        <time>2014-08-13T10:24:43Z</time>
      </trkpt>
      <trkpt lat="46.71284" lon="4.66688">
        <ele>391</ele>
        <time>2014-08-13T10:24:51Z</time>
      </trkpt>
      <trkpt lat="46.71279" lon="4.6669">
        <ele>391</ele>
        <time>2014-08-13T10:24:55Z</time>
      </trkpt>
      <trkpt lat="46.71274" lon="4.66693">
        <ele>391</ele>
        <time>2014-08-13T10:25:02Z</time>
      </trkpt>
      <trkpt lat="46.71258" lon="4.66699">
        <ele>392</ele>
        <time>2014-08-13T10:25:14Z</time>
      </trkpt>
      <trkpt lat="46.7125" lon="4.6671">
        <ele>392</ele>
        <time>2014-08-13T10:25:26Z</time>
      </trkpt>
      <trkpt lat="46.7124" lon="4.66713">
        <ele>396</ele>
        <time>2014-08-13T10:25:32Z</time>
      </trkpt>
      <trkpt lat="46.7123" lon="4.66713">
        <ele>396</ele>
        <time>2014-08-13T10:25:36Z</time>
      </trkpt>
      <trkpt lat="46.71216" lon="4.66722">
        <ele>396</ele>
        <time>2014-08-13T10:25:49Z</time>
      </trkpt>
      <trkpt lat="46.71208" lon="4.66728">
        <ele>397</ele>
        <time>2014-08-13T10:25:54Z</time>
      </trkpt>
      <trkpt lat="46.71203" lon="4.6673">
        <ele>397</ele>
        <time>2014-08-13T10:26:00Z</time>
      </trkpt>
      <trkpt lat="46.71197" lon="4.66732">
        <ele>397</ele>
        <time>2014-08-13T10:26:12Z</time>
      </trkpt>
      <trkpt lat="46.71192" lon="4.66733">
        <ele>397</ele>
        <time>2014-08-13T10:26:17Z</time>
      </trkpt>
      <trkpt lat="46.71187" lon="4.66734">
        <ele>397</ele>
        <time>2014-08-13T10:26:19Z</time>
      </trkpt>
      <trkpt lat="46.71181" lon="4.66737">
        <ele>397</ele>
        <time>2014-08-13T10:26:22Z</time>
      </trkpt>
      <trkpt lat="46.71177" lon="4.66741">
        <ele>398</ele>
        <time>2014-08-13T10:26:27Z</time>
      </trkpt>
      <trkpt lat="46.71171" lon="4.66743">
        <ele>398</ele>
        <time>2014-08-13T10:26:30Z</time>
      </trkpt>
      <trkpt lat="46.71166" lon="4.66743">
        <ele>399</ele>
        <time>2014-08-13T10:26:34Z</time>
      </trkpt>
      <trkpt lat="46.71162" lon="4.66747">
        <ele>399</ele>
        <time>2014-08-13T10:26:38Z</time>
      </trkpt>
      <trkpt lat="46.71157" lon="4.66747">
        <ele>399</ele>
        <time>2014-08-13T10:26:42Z</time>
      </trkpt>
      <trkpt lat="46.71152" lon="4.66748">
        <ele>399</ele>
        <time>2014-08-13T10:26:47Z</time>
      </trkpt>
      <trkpt lat="46.71147" lon="4.66747">
        <ele>400</ele>
        <time>2014-08-13T10:26:51Z</time>
      </trkpt>
      <trkpt lat="46.71142" lon="4.66747">
        <ele>400</ele>
        <time>2014-08-13T10:26:54Z</time>
      </trkpt>
      <trkpt lat="46.71132" lon="4.66746">
        <ele>400</ele>
        <time>2014-08-13T10:27:05Z</time>
      </trkpt>
      <trkpt lat="46.71127" lon="4.66747">
        <ele>400</ele>
        <time>2014-08-13T10:27:09Z</time>
      </trkpt>
      <trkpt lat="46.71122" lon="4.66749">
        <ele>401</ele>
        <time>2014-08-13T10:27:13Z</time>
      </trkpt>
      <trkpt lat="46.71117" lon="4.66752">
        <ele>398</ele>
        <time>2014-08-13T10:27:17Z</time>
      </trkpt>
      <trkpt lat="46.71112" lon="4.66755">
        <ele>399</ele>
        <time>2014-08-13T10:27:21Z</time>
      </trkpt>
      <trkpt lat="46.71107" lon="4.66751">
        <ele>399</ele>
        <time>2014-08-13T10:27:26Z</time>
      </trkpt>
      <trkpt lat="46.71102" lon="4.6675">
        <ele>401</ele>
        <time>2014-08-13T10:27:29Z</time>
      </trkpt>
      <trkpt lat="46.71093" lon="4.6675">
        <ele>400</ele>
        <time>2014-08-13T10:27:36Z</time>
      </trkpt>
      <trkpt lat="46.71088" lon="4.66747">
        <ele>401</ele>
        <time>2014-08-13T10:27:40Z</time>
      </trkpt>
      <trkpt lat="46.71079" lon="4.66747">
        <ele>401</ele>
        <time>2014-08-13T10:27:48Z</time>
      </trkpt>
      <trkpt lat="46.71069" lon="4.66738">
        <ele>402</ele>
        <time>2014-08-13T10:27:55Z</time>
      </trkpt>
      <trkpt lat="46.71065" lon="4.66734">
        <ele>402</ele>
        <time>2014-08-13T10:27:59Z</time>
      </trkpt>
      <trkpt lat="46.7106" lon="4.66731">
        <ele>402</ele>
        <time>2014-08-13T10:28:03Z</time>
      </trkpt>
      <trkpt lat="46.71055" lon="4.66728">
        <ele>402</ele>
        <time>2014-08-13T10:28:06Z</time>
      </trkpt>
      <trkpt lat="46.7105" lon="4.66724">
        <ele>402</ele>
        <time>2014-08-13T10:28:11Z</time>
      </trkpt>
      <trkpt lat="46.71046" lon="4.66721">
        <ele>402</ele>
        <time>2014-08-13T10:28:15Z</time>
      </trkpt>
      <trkpt lat="46.71042" lon="4.66717">
        <ele>402</ele>
        <time>2014-08-13T10:28:19Z</time>
      </trkpt>
      <trkpt lat="46.71038" lon="4.6672">
        <ele>402</ele>
        <time>2014-08-13T10:28:22Z</time>
      </trkpt>
      <trkpt lat="46.71033" lon="4.6672">
        <ele>402</ele>
        <time>2014-08-13T10:28:26Z</time>
      </trkpt>
      <trkpt lat="46.71029" lon="4.66716">
        <ele>402</ele>
        <time>2014-08-13T10:28:29Z</time>
      </trkpt>
      <trkpt lat="46.71018" lon="4.66713">
        <ele>402</ele>
        <time>2014-08-13T10:28:37Z</time>
      </trkpt>
      <trkpt lat="46.71014" lon="4.66711">
        <ele>402</ele>
        <time>2014-08-13T10:28:40Z</time>
      </trkpt>
      <trkpt lat="46.71009" lon="4.66705">
        <ele>402</ele>
        <time>2014-08-13T10:28:43Z</time>
      </trkpt>
      <trkpt lat="46.70999" lon="4.66703">
        <ele>401</ele>
        <time>2014-08-13T10:28:50Z</time>
      </trkpt>
      <trkpt lat="46.70989" lon="4.66702">
        <ele>401</ele>
        <time>2014-08-13T10:28:58Z</time>
      </trkpt>
      <trkpt lat="46.70984" lon="4.66703">
        <ele>401</ele>
        <time>2014-08-13T10:29:02Z</time>
      </trkpt>
      <trkpt lat="46.70979" lon="4.66702">
        <ele>401</ele>
        <time>2014-08-13T10:29:06Z</time>
      </trkpt>
      <trkpt lat="46.70973" lon="4.667">
        <ele>401</ele>
        <time>2014-08-13T10:29:10Z</time>
      </trkpt>
      <trkpt lat="46.70968" lon="4.66701">
        <ele>401</ele>
        <time>2014-08-13T10:29:15Z</time>
      </trkpt>
      <trkpt lat="46.70963" lon="4.667">
        <ele>401</ele>
        <time>2014-08-13T10:29:20Z</time>
      </trkpt>
      <trkpt lat="46.70958" lon="4.66697">
        <ele>401</ele>
        <time>2014-08-13T10:29:24Z</time>
      </trkpt>
      <trkpt lat="46.7094" lon="4.66688">
        <ele>401</ele>
        <time>2014-08-13T10:29:44Z</time>
      </trkpt>
      <trkpt lat="46.70936" lon="4.66687">
        <ele>401</ele>
        <time>2014-08-13T10:29:49Z</time>
      </trkpt>
      <trkpt lat="46.70931" lon="4.66682">
        <ele>401</ele>
        <time>2014-08-13T10:29:53Z</time>
      </trkpt>
      <trkpt lat="46.70926" lon="4.66679">
        <ele>401</ele>
        <time>2014-08-13T10:29:58Z</time>
      </trkpt>
      <trkpt lat="46.70916" lon="4.66673">
        <ele>400</ele>
        <time>2014-08-13T10:30:06Z</time>
      </trkpt>
      <trkpt lat="46.70911" lon="4.6667">
        <ele>400</ele>
        <time>2014-08-13T10:30:10Z</time>
      </trkpt>
      <trkpt lat="46.70906" lon="4.66665">
        <ele>400</ele>
        <time>2014-08-13T10:30:15Z</time>
      </trkpt>
      <trkpt lat="46.70896" lon="4.66659">
        <ele>399</ele>
        <time>2014-08-13T10:30:23Z</time>
      </trkpt>
      <trkpt lat="46.70891" lon="4.66657">
        <ele>399</ele>
        <time>2014-08-13T10:30:27Z</time>
      </trkpt>
      <trkpt lat="46.70877" lon="4.66651">
        <ele>398</ele>
        <time>2014-08-13T10:30:40Z</time>
      </trkpt>
      <trkpt lat="46.70872" lon="4.6665">
        <ele>398</ele>
        <time>2014-08-13T10:30:44Z</time>
      </trkpt>
      <trkpt lat="46.70867" lon="4.66649">
        <ele>397</ele>
        <time>2014-08-13T10:30:48Z</time>
      </trkpt>
      <trkpt lat="46.70862" lon="4.66648">
        <ele>397</ele>
        <time>2014-08-13T10:30:51Z</time>
      </trkpt>
      <trkpt lat="46.70844" lon="4.66634">
        <ele>397</ele>
        <time>2014-08-13T10:31:03Z</time>
      </trkpt>
      <trkpt lat="46.70839" lon="4.66631">
        <ele>397</ele>
        <time>2014-08-13T10:31:08Z</time>
      </trkpt>
      <trkpt lat="46.70829" lon="4.6663">
        <ele>392</ele>
        <time>2014-08-13T10:31:13Z</time>
      </trkpt>
      <trkpt lat="46.70799" lon="4.66619">
        <ele>391</ele>
        <time>2014-08-13T10:31:45Z</time>
      </trkpt>
      <trkpt lat="46.70795" lon="4.66621">
        <ele>391</ele>
        <time>2014-08-13T10:31:50Z</time>
      </trkpt>
      <trkpt lat="46.7079" lon="4.66618">
        <ele>391</ele>
        <time>2014-08-13T10:31:53Z</time>
      </trkpt>
      <trkpt lat="46.70783" lon="4.66617">
        <ele>390</ele>
        <time>2014-08-13T10:31:56Z</time>
      </trkpt>
      <trkpt lat="46.70777" lon="4.66616">
        <ele>390</ele>
        <time>2014-08-13T10:31:59Z</time>
      </trkpt>
      <trkpt lat="46.70772" lon="4.66614">
        <ele>390</ele>
        <time>2014-08-13T10:32:02Z</time>
      </trkpt>
      <trkpt lat="46.70767" lon="4.66612">
        <ele>390</ele>
        <time>2014-08-13T10:32:06Z</time>
      </trkpt>
      <trkpt lat="46.70762" lon="4.66612">
        <ele>390</ele>
        <time>2014-08-13T10:32:13Z</time>
      </trkpt>
      <trkpt lat="46.70746" lon="4.66615">
        <ele>384</ele>
        <time>2014-08-13T10:32:23Z</time>
      </trkpt>
      <trkpt lat="46.7074" lon="4.66616">
        <ele>384</ele>
        <time>2014-08-13T10:32:26Z</time>
      </trkpt>
      <trkpt lat="46.70735" lon="4.66616">
        <ele>384</ele>
        <time>2014-08-13T10:32:29Z</time>
      </trkpt>
      <trkpt lat="46.7072" lon="4.66612">
        <ele>384</ele>
        <time>2014-08-13T10:32:43Z</time>
      </trkpt>
      <trkpt lat="46.70715" lon="4.66611">
        <ele>383</ele>
        <time>2014-08-13T10:32:47Z</time>
      </trkpt>
      <trkpt lat="46.70706" lon="4.66605">
        <ele>383</ele>
        <time>2014-08-13T10:32:58Z</time>
      </trkpt>
      <trkpt lat="46.70701" lon="4.66601">
        <ele>383</ele>
        <time>2014-08-13T10:33:01Z</time>
      </trkpt>
      <trkpt lat="46.70669" lon="4.66588">
        <ele>381</ele>
        <time>2014-08-13T10:33:23Z</time>
      </trkpt>
      <trkpt lat="46.70654" lon="4.66588">
        <ele>379</ele>
        <time>2014-08-13T10:33:38Z</time>
      </trkpt>
      <trkpt lat="46.70648" lon="4.66588">
        <ele>378</ele>
        <time>2014-08-13T10:33:42Z</time>
      </trkpt>
      <trkpt lat="46.70644" lon="4.66588">
        <ele>377</ele>
        <time>2014-08-13T10:33:46Z</time>
      </trkpt>
      <trkpt lat="46.70638" lon="4.66588">
        <ele>377</ele>
        <time>2014-08-13T10:33:52Z</time>
      </trkpt>
      <trkpt lat="46.70634" lon="4.66587">
        <ele>377</ele>
        <time>2014-08-13T10:33:57Z</time>
      </trkpt>
      <trkpt lat="46.70624" lon="4.66587">
        <ele>376</ele>
        <time>2014-08-13T10:34:04Z</time>
      </trkpt>
      <trkpt lat="46.70619" lon="4.66585">
        <ele>376</ele>
        <time>2014-08-13T10:34:08Z</time>
      </trkpt>
      <trkpt lat="46.70614" lon="4.66585">
        <ele>375</ele>
        <time>2014-08-13T10:34:12Z</time>
      </trkpt>
      <trkpt lat="46.70609" lon="4.66584">
        <ele>375</ele>
        <time>2014-08-13T10:34:16Z</time>
      </trkpt>
      <trkpt lat="46.70611" lon="4.66582">
        <ele>378</ele>
        <time>2014-08-13T10:34:48Z</time>
      </trkpt>
      <trkpt lat="46.70598" lon="4.66584">
        <ele>375</ele>
        <time>2014-08-13T10:35:15Z</time>
      </trkpt>
      <trkpt lat="46.70601" lon="4.66588">
        <ele>375</ele>
        <time>2014-08-13T10:35:20Z</time>
      </trkpt>
      <trkpt lat="46.70605" lon="4.6661">
        <ele>375</ele>
        <time>2014-08-13T10:35:32Z</time>
      </trkpt>
      <trkpt lat="46.706" lon="4.66612">
        <ele>374</ele>
        <time>2014-08-13T10:35:38Z</time>
      </trkpt>
      <trkpt lat="46.70595" lon="4.66609">
        <ele>374</ele>
        <time>2014-08-13T10:35:42Z</time>
      </trkpt>
      <trkpt lat="46.7059" lon="4.66612">
        <ele>374</ele>
        <time>2014-08-13T10:35:51Z</time>
      </trkpt>
      <trkpt lat="46.70574" lon="4.66615">
        <ele>371</ele>
        <time>2014-08-13T10:36:07Z</time>
      </trkpt>
      <trkpt lat="46.70571" lon="4.66621">
        <ele>370</ele>
        <time>2014-08-13T10:36:11Z</time>
      </trkpt>
      <trkpt lat="46.7057" lon="4.66628">
        <ele>370</ele>
        <time>2014-08-13T10:36:16Z</time>
      </trkpt>
      <trkpt lat="46.70565" lon="4.66632">
        <ele>370</ele>
        <time>2014-08-13T10:36:21Z</time>
      </trkpt>
      <trkpt lat="46.70563" lon="4.66645">
        <ele>369</ele>
        <time>2014-08-13T10:36:25Z</time>
      </trkpt>
      <trkpt lat="46.70564" lon="4.66652">
        <ele>369</ele>
        <time>2014-08-13T10:36:29Z</time>
      </trkpt>
      <trkpt lat="46.70575" lon="4.66667">
        <ele>367</ele>
        <time>2014-08-13T10:36:44Z</time>
      </trkpt>
      <trkpt lat="46.70577" lon="4.66673">
        <ele>367</ele>
        <time>2014-08-13T10:36:48Z</time>
      </trkpt>
      <trkpt lat="46.70588" lon="4.66707">
        <ele>369</ele>
        <time>2014-08-13T10:37:07Z</time>
      </trkpt>
      <trkpt lat="46.70591" lon="4.66714">
        <ele>369</ele>
        <time>2014-08-13T10:37:12Z</time>
      </trkpt>
      <trkpt lat="46.70594" lon="4.6672">
        <ele>369</ele>
        <time>2014-08-13T10:37:17Z</time>
      </trkpt>
      <trkpt lat="46.70594" lon="4.66728">
        <ele>368</ele>
        <time>2014-08-13T10:37:21Z</time>
      </trkpt>
      <trkpt lat="46.70593" lon="4.66735">
        <ele>367</ele>
        <time>2014-08-13T10:37:26Z</time>
      </trkpt>
      <trkpt lat="46.70596" lon="4.66741">
        <ele>367</ele>
        <time>2014-08-13T10:37:32Z</time>
      </trkpt>
      <trkpt lat="46.70599" lon="4.66746">
        <ele>367</ele>
        <time>2014-08-13T10:37:36Z</time>
      </trkpt>
      <trkpt lat="46.70609" lon="4.66765">
        <ele>365</ele>
        <time>2014-08-13T10:37:46Z</time>
      </trkpt>
      <trkpt lat="46.70609" lon="4.66768">
        <ele>365</ele>
        <time>2014-08-13T10:37:53Z</time>
      </trkpt>
      <trkpt lat="46.7061" lon="4.66775">
        <ele>365</ele>
        <time>2014-08-13T10:38:00Z</time>
      </trkpt>
      <trkpt lat="46.70611" lon="4.66781">
        <ele>364</ele>
        <time>2014-08-13T10:38:03Z</time>
      </trkpt>
      <trkpt lat="46.70611" lon="4.66791">
        <ele>364</ele>
        <time>2014-08-13T10:38:06Z</time>
      </trkpt>
      <trkpt lat="46.70613" lon="4.66797">
        <ele>364</ele>
        <time>2014-08-13T10:38:09Z</time>
      </trkpt>
      <trkpt lat="46.7062" lon="4.66809">
        <ele>364</ele>
        <time>2014-08-13T10:38:17Z</time>
      </trkpt>
      <trkpt lat="46.70621" lon="4.66816">
        <ele>363</ele>
        <time>2014-08-13T10:38:22Z</time>
      </trkpt>
      <trkpt lat="46.70625" lon="4.66831">
        <ele>363</ele>
        <time>2014-08-13T10:38:30Z</time>
      </trkpt>
      <trkpt lat="46.70631" lon="4.66843">
        <ele>358</ele>
        <time>2014-08-13T10:38:39Z</time>
      </trkpt>
      <trkpt lat="46.70639" lon="4.66852">
        <ele>358</ele>
        <time>2014-08-13T10:38:47Z</time>
      </trkpt>
      <trkpt lat="46.70652" lon="4.66874">
        <ele>357</ele>
        <time>2014-08-13T10:39:04Z</time>
      </trkpt>
      <trkpt lat="46.70656" lon="4.66878">
        <ele>357</ele>
        <time>2014-08-13T10:39:07Z</time>
      </trkpt>
      <trkpt lat="46.70658" lon="4.66884">
        <ele>356</ele>
        <time>2014-08-13T10:39:12Z</time>
      </trkpt>
      <trkpt lat="46.7066" lon="4.6689">
        <ele>356</ele>
        <time>2014-08-13T10:39:16Z</time>
      </trkpt>
      <trkpt lat="46.70664" lon="4.66895">
        <ele>356</ele>
        <time>2014-08-13T10:39:20Z</time>
      </trkpt>
      <trkpt lat="46.70667" lon="4.66901">
        <ele>361</ele>
        <time>2014-08-13T10:39:24Z</time>
      </trkpt>
      <trkpt lat="46.70671" lon="4.66905">
        <ele>360</ele>
        <time>2014-08-13T10:39:28Z</time>
      </trkpt>
      <trkpt lat="46.70675" lon="4.6691">
        <ele>359</ele>
        <time>2014-08-13T10:39:33Z</time>
      </trkpt>
      <trkpt lat="46.70689" lon="4.66922">
        <ele>355</ele>
        <time>2014-08-13T10:39:45Z</time>
      </trkpt>
      <trkpt lat="46.70693" lon="4.66926">
        <ele>356</ele>
        <time>2014-08-13T10:39:51Z</time>
      </trkpt>
      <trkpt lat="46.70702" lon="4.66934">
        <ele>356</ele>
        <time>2014-08-13T10:39:59Z</time>
      </trkpt>
      <trkpt lat="46.70707" lon="4.66937">
        <ele>356</ele>
        <time>2014-08-13T10:40:03Z</time>
      </trkpt>
      <trkpt lat="46.70725" lon="4.66951">
        <ele>357</ele>
        <time>2014-08-13T10:40:20Z</time>
      </trkpt>
      <trkpt lat="46.70728" lon="4.66955">
        <ele>356</ele>
        <time>2014-08-13T10:40:24Z</time>
      </trkpt>
      <trkpt lat="46.70733" lon="4.66959">
        <ele>356</ele>
        <time>2014-08-13T10:40:27Z</time>
      </trkpt>
      <trkpt lat="46.70737" lon="4.66962">
        <ele>356</ele>
        <time>2014-08-13T10:40:31Z</time>
      </trkpt>
      <trkpt lat="46.70741" lon="4.66967">
        <ele>355</ele>
        <time>2014-08-13T10:40:39Z</time>
      </trkpt>
      <trkpt lat="46.70745" lon="4.66971">
        <ele>355</ele>
        <time>2014-08-13T10:40:46Z</time>
      </trkpt>
      <trkpt lat="46.70744" lon="4.66971">
        <ele>355</ele>
        <time>2014-08-13T10:41:14Z</time>
      </trkpt>
      <trkpt lat="46.70734" lon="4.66976">
        <ele>354</ele>
        <time>2014-08-13T10:41:22Z</time>
      </trkpt>
      <trkpt lat="46.70731" lon="4.66971">
        <ele>355</ele>
        <time>2014-08-13T10:41:28Z</time>
      </trkpt>
      <trkpt lat="46.70731" lon="4.66968">
        <ele>355</ele>
        <time>2014-08-13T10:41:45Z</time>
      </trkpt>
      <trkpt lat="46.70728" lon="4.66962">
        <ele>355</ele>
        <time>2014-08-13T10:42:00Z</time>
      </trkpt>
      <trkpt lat="46.70722" lon="4.6695">
        <ele>356</ele>
        <time>2014-08-13T10:42:08Z</time>
      </trkpt>
      <trkpt lat="46.70712" lon="4.66943">
        <ele>356</ele>
        <time>2014-08-13T10:44:58Z</time>
      </trkpt>
      <trkpt lat="46.70721" lon="4.66975">
        <ele>354</ele>
        <time>2014-08-13T10:56:33Z</time>
      </trkpt>
      <trkpt lat="46.70714" lon="4.66957">
        <ele>355</ele>
        <time>2014-08-13T10:58:16Z</time>
      </trkpt>
      <trkpt lat="46.70707" lon="4.6695">
        <ele>355</ele>
        <time>2014-08-13T11:03:41Z</time>
      </trkpt>
      <trkpt lat="46.70707" lon="4.6695">
        <ele>355</ele>
        <time>2014-08-13T11:04:06Z</time>
      </trkpt>
      <trkpt lat="46.70713" lon="4.66961">
        <ele>355</ele>
        <time>2014-08-13T11:04:16Z</time>
      </trkpt>
      <trkpt lat="46.7072" lon="4.66965">
        <ele>355</ele>
        <time>2014-08-13T11:21:38Z</time>
      </trkpt>
      <trkpt lat="46.70718" lon="4.66965">
        <ele>355</ele>
        <time>2014-08-13T11:26:26Z</time>
      </trkpt>
      <trkpt lat="46.7072" lon="4.66952">
        <ele>356</ele>
        <time>2014-08-13T11:26:41Z</time>
      </trkpt>
      <trkpt lat="46.70716" lon="4.6695">
        <ele>356</ele>
        <time>2014-08-13T11:28:27Z</time>
      </trkpt>
      <trkpt lat="46.70719" lon="4.66964">
        <ele>355</ele>
        <time>2014-08-13T11:30:32Z</time>
      </trkpt>
      <trkpt lat="46.70714" lon="4.66965">
        <ele>354</ele>
        <time>2014-08-13T11:30:36Z</time>
      </trkpt>
      <trkpt lat="46.70709" lon="4.66965">
        <ele>354</ele>
        <time>2014-08-13T11:30:40Z</time>
      </trkpt>
      <trkpt lat="46.70704" lon="4.66963">
        <ele>354</ele>
        <time>2014-08-13T11:30:46Z</time>
      </trkpt>
      <trkpt lat="46.707" lon="4.66962">
        <ele>354</ele>
        <time>2014-08-13T11:30:48Z</time>
      </trkpt>
      <trkpt lat="46.70692" lon="4.66955">
        <ele>354</ele>
        <time>2014-08-13T11:30:55Z</time>
      </trkpt>
      <trkpt lat="46.70687" lon="4.66956">
        <ele>353</ele>
        <time>2014-08-13T11:30:58Z</time>
      </trkpt>
      <trkpt lat="46.70682" lon="4.66959">
        <ele>353</ele>
        <time>2014-08-13T11:31:01Z</time>
      </trkpt>
      <trkpt lat="46.70677" lon="4.66957">
        <ele>353</ele>
        <time>2014-08-13T11:31:04Z</time>
      </trkpt>
      <trkpt lat="46.70674" lon="4.66952">
        <ele>353</ele>
        <time>2014-08-13T11:31:07Z</time>
      </trkpt>
      <trkpt lat="46.7067" lon="4.66946">
        <ele>354</ele>
        <time>2014-08-13T11:31:11Z</time>
      </trkpt>
      <trkpt lat="46.70661" lon="4.66939">
        <ele>348</ele>
        <time>2014-08-13T11:31:15Z</time>
      </trkpt>
      <trkpt lat="46.70661" lon="4.66933">
        <ele>350</ele>
        <time>2014-08-13T11:31:20Z</time>
      </trkpt>
      <trkpt lat="46.70663" lon="4.66926">
        <ele>351</ele>
        <time>2014-08-13T11:31:24Z</time>
      </trkpt>
      <trkpt lat="46.70663" lon="4.66922">
        <ele>352</ele>
        <time>2014-08-13T11:31:30Z</time>
      </trkpt>
      <trkpt lat="46.70657" lon="4.66922">
        <ele>351</ele>
        <time>2014-08-13T11:31:35Z</time>
      </trkpt>
      <trkpt lat="46.70648" lon="4.66919">
        <ele>349</ele>
        <time>2014-08-13T11:31:41Z</time>
      </trkpt>
      <trkpt lat="46.70631" lon="4.66905">
        <ele>354</ele>
        <time>2014-08-13T11:31:59Z</time>
      </trkpt>
      <trkpt lat="46.70626" lon="4.66907">
        <ele>354</ele>
        <time>2014-08-13T11:32:04Z</time>
      </trkpt>
      <trkpt lat="46.70622" lon="4.66905">
        <ele>353</ele>
        <time>2014-08-13T11:32:08Z</time>
      </trkpt>
      <trkpt lat="46.70614" lon="4.66894">
        <ele>353</ele>
        <time>2014-08-13T11:32:16Z</time>
      </trkpt>
      <trkpt lat="46.7061" lon="4.66889">
        <ele>353</ele>
        <time>2014-08-13T11:32:20Z</time>
      </trkpt>
      <trkpt lat="46.706" lon="4.66875">
        <ele>354</ele>
        <time>2014-08-13T11:32:32Z</time>
      </trkpt>
      <trkpt lat="46.70596" lon="4.66871">
        <ele>354</ele>
        <time>2014-08-13T11:32:36Z</time>
      </trkpt>
      <trkpt lat="46.70588" lon="4.66861">
        <ele>355</ele>
        <time>2014-08-13T11:32:44Z</time>
      </trkpt>
      <trkpt lat="46.70581" lon="4.66853">
        <ele>354</ele>
        <time>2014-08-13T11:32:53Z</time>
      </trkpt>
      <trkpt lat="46.70576" lon="4.6685">
        <ele>354</ele>
        <time>2014-08-13T11:32:57Z</time>
      </trkpt>
      <trkpt lat="46.70565" lon="4.66846">
        <ele>354</ele>
        <time>2014-08-13T11:33:05Z</time>
      </trkpt>
      <trkpt lat="46.70561" lon="4.66844">
        <ele>354</ele>
        <time>2014-08-13T11:33:10Z</time>
      </trkpt>
      <trkpt lat="46.70551" lon="4.66842">
        <ele>354</ele>
        <time>2014-08-13T11:33:18Z</time>
      </trkpt>
      <trkpt lat="46.70549" lon="4.66835">
        <ele>355</ele>
        <time>2014-08-13T11:33:25Z</time>
      </trkpt>
      <trkpt lat="46.70548" lon="4.66828">
        <ele>360</ele>
        <time>2014-08-13T11:33:30Z</time>
      </trkpt>
      <trkpt lat="46.70543" lon="4.66817">
        <ele>361</ele>
        <time>2014-08-13T11:33:38Z</time>
      </trkpt>
      <trkpt lat="46.70538" lon="4.66814">
        <ele>361</ele>
        <time>2014-08-13T11:33:43Z</time>
      </trkpt>
      <trkpt lat="46.70534" lon="4.66815">
        <ele>361</ele>
        <time>2014-08-13T11:34:06Z</time>
      </trkpt>
      <trkpt lat="46.70519" lon="4.66805">
        <ele>362</ele>
        <time>2014-08-13T11:34:13Z</time>
      </trkpt>
      <trkpt lat="46.70519" lon="4.66816">
        <ele>361</ele>
        <time>2014-08-13T11:34:19Z</time>
      </trkpt>
      <trkpt lat="46.70519" lon="4.66831">
        <ele>361</ele>
        <time>2014-08-13T11:34:25Z</time>
      </trkpt>
      <trkpt lat="46.70519" lon="4.66835">
        <ele>357</ele>
        <time>2014-08-13T11:34:32Z</time>
      </trkpt>
      <trkpt lat="46.70517" lon="4.66841">
        <ele>357</ele>
        <time>2014-08-13T11:34:38Z</time>
      </trkpt>
      <trkpt lat="46.70513" lon="4.66845">
        <ele>357</ele>
        <time>2014-08-13T11:34:47Z</time>
      </trkpt>
      <trkpt lat="46.70509" lon="4.66849">
        <ele>357</ele>
        <time>2014-08-13T11:34:53Z</time>
      </trkpt>
      <trkpt lat="46.70505" lon="4.66854">
        <ele>357</ele>
        <time>2014-08-13T11:34:59Z</time>
      </trkpt>
      <trkpt lat="46.705" lon="4.66855">
        <ele>362</ele>
        <time>2014-08-13T11:35:05Z</time>
      </trkpt>
      <trkpt lat="46.70495" lon="4.66854">
        <ele>362</ele>
        <time>2014-08-13T11:35:12Z</time>
      </trkpt>
      <trkpt lat="46.7049" lon="4.66855">
        <ele>362</ele>
        <time>2014-08-13T11:35:17Z</time>
      </trkpt>
      <trkpt lat="46.70485" lon="4.66854">
        <ele>362</ele>
        <time>2014-08-13T11:35:21Z</time>
      </trkpt>
      <trkpt lat="46.70475" lon="4.66854">
        <ele>363</ele>
        <time>2014-08-13T11:35:30Z</time>
      </trkpt>
      <trkpt lat="46.70473" lon="4.66854">
        <ele>363</ele>
        <time>2014-08-13T11:35:51Z</time>
      </trkpt>
      <trkpt lat="46.70468" lon="4.66855">
        <ele>363</ele>
        <time>2014-08-13T11:35:54Z</time>
      </trkpt>
      <trkpt lat="46.70449" lon="4.66879">
        <ele>364</ele>
        <time>2014-08-13T11:36:15Z</time>
      </trkpt>
      <trkpt lat="46.70444" lon="4.66881">
        <ele>364</ele>
        <time>2014-08-13T11:36:20Z</time>
      </trkpt>
      <trkpt lat="46.70439" lon="4.66884">
        <ele>364</ele>
        <time>2014-08-13T11:36:28Z</time>
      </trkpt>
      <trkpt lat="46.70435" lon="4.66889">
        <ele>364</ele>
        <time>2014-08-13T11:36:35Z</time>
      </trkpt>
      <trkpt lat="46.70431" lon="4.66894">
        <ele>365</ele>
        <time>2014-08-13T11:36:40Z</time>
      </trkpt>
      <trkpt lat="46.70427" lon="4.66898">
        <ele>365</ele>
        <time>2014-08-13T11:36:45Z</time>
      </trkpt>
      <trkpt lat="46.70422" lon="4.66898">
        <ele>365</ele>
        <time>2014-08-13T11:36:51Z</time>
      </trkpt>
      <trkpt lat="46.70419" lon="4.66904">
        <ele>366</ele>
        <time>2014-08-13T11:36:56Z</time>
      </trkpt>
      <trkpt lat="46.70409" lon="4.66921">
        <ele>367</ele>
        <time>2014-08-13T11:37:13Z</time>
      </trkpt>
      <trkpt lat="46.70405" lon="4.66925">
        <ele>366</ele>
        <time>2014-08-13T11:37:18Z</time>
      </trkpt>
      <trkpt lat="46.70396" lon="4.66942">
        <ele>366</ele>
        <time>2014-08-13T11:37:30Z</time>
      </trkpt>
      <trkpt lat="46.70391" lon="4.66944">
        <ele>366</ele>
        <time>2014-08-13T11:37:35Z</time>
      </trkpt>
      <trkpt lat="46.70381" lon="4.66946">
        <ele>366</ele>
        <time>2014-08-13T11:37:47Z</time>
      </trkpt>
      <trkpt lat="46.70376" lon="4.66947">
        <ele>367</ele>
        <time>2014-08-13T11:37:52Z</time>
      </trkpt>
      <trkpt lat="46.70365" lon="4.66953">
        <ele>367</ele>
        <time>2014-08-13T11:38:04Z</time>
      </trkpt>
      <trkpt lat="46.70333" lon="4.66978">
        <ele>374</ele>
        <time>2014-08-13T11:38:34Z</time>
      </trkpt>
      <trkpt lat="46.70328" lon="4.6698">
        <ele>374</ele>
        <time>2014-08-13T11:38:39Z</time>
      </trkpt>
      <trkpt lat="46.70315" lon="4.66993">
        <ele>374</ele>
        <time>2014-08-13T11:38:51Z</time>
      </trkpt>
      <trkpt lat="46.70312" lon="4.66992">
        <ele>375</ele>
        <time>2014-08-13T11:39:00Z</time>
      </trkpt>
      <trkpt lat="46.70307" lon="4.66989">
        <ele>376</ele>
        <time>2014-08-13T11:39:08Z</time>
      </trkpt>
      <trkpt lat="46.70296" lon="4.66992">
        <ele>377</ele>
        <time>2014-08-13T11:39:20Z</time>
      </trkpt>
      <trkpt lat="46.70292" lon="4.66994">
        <ele>378</ele>
        <time>2014-08-13T11:39:26Z</time>
      </trkpt>
      <trkpt lat="46.70287" lon="4.66993">
        <ele>379</ele>
        <time>2014-08-13T11:39:32Z</time>
      </trkpt>
      <trkpt lat="46.70279" lon="4.66989">
        <ele>380</ele>
        <time>2014-08-13T11:39:43Z</time>
      </trkpt>
      <trkpt lat="46.70269" lon="4.66992">
        <ele>381</ele>
        <time>2014-08-13T11:39:51Z</time>
      </trkpt>
      <trkpt lat="46.70264" lon="4.66991">
        <ele>381</ele>
        <time>2014-08-13T11:39:56Z</time>
      </trkpt>
      <trkpt lat="46.7026" lon="4.66988">
        <ele>382</ele>
        <time>2014-08-13T11:40:04Z</time>
      </trkpt>
      <trkpt lat="46.70237" lon="4.66989">
        <ele>386</ele>
        <time>2014-08-13T11:40:28Z</time>
      </trkpt>
      <trkpt lat="46.70202" lon="4.66986">
        <ele>389</ele>
        <time>2014-08-13T11:41:01Z</time>
      </trkpt>
      <trkpt lat="46.70194" lon="4.66984">
        <ele>389</ele>
        <time>2014-08-13T11:41:12Z</time>
      </trkpt>
      <trkpt lat="46.70191" lon="4.66989">
        <ele>389</ele>
        <time>2014-08-13T11:41:18Z</time>
      </trkpt>
      <trkpt lat="46.70185" lon="4.66991">
        <ele>390</ele>
        <time>2014-08-13T11:41:21Z</time>
      </trkpt>
      <trkpt lat="46.70176" lon="4.66993">
        <ele>390</ele>
        <time>2014-08-13T11:41:31Z</time>
      </trkpt>
      <trkpt lat="46.7017" lon="4.66993">
        <ele>390</ele>
        <time>2014-08-13T11:41:34Z</time>
      </trkpt>
      <trkpt lat="46.70166" lon="4.66994">
        <ele>392</ele>
        <time>2014-08-13T11:41:37Z</time>
      </trkpt>
      <trkpt lat="46.7016" lon="4.66995">
        <ele>392</ele>
        <time>2014-08-13T11:41:42Z</time>
      </trkpt>
      <trkpt lat="46.70156" lon="4.66999">
        <ele>392</ele>
        <time>2014-08-13T11:41:46Z</time>
      </trkpt>
      <trkpt lat="46.70152" lon="4.67002">
        <ele>390</ele>
        <time>2014-08-13T11:41:51Z</time>
      </trkpt>
      <trkpt lat="46.70146" lon="4.67002">
        <ele>390</ele>
        <time>2014-08-13T11:41:55Z</time>
      </trkpt>
      <trkpt lat="46.70142" lon="4.67001">
        <ele>390</ele>
        <time>2014-08-13T11:42:02Z</time>
      </trkpt>
      <trkpt lat="46.70116" lon="4.67008">
        <ele>391</ele>
        <time>2014-08-13T11:42:22Z</time>
      </trkpt>
      <trkpt lat="46.70112" lon="4.67012">
        <ele>391</ele>
        <time>2014-08-13T11:42:25Z</time>
      </trkpt>
      <trkpt lat="46.70107" lon="4.67013">
        <ele>391</ele>
        <time>2014-08-13T11:42:29Z</time>
      </trkpt>
      <trkpt lat="46.70093" lon="4.67014">
        <ele>392</ele>
        <time>2014-08-13T11:42:39Z</time>
      </trkpt>
      <trkpt lat="46.70088" lon="4.67014">
        <ele>392</ele>
        <time>2014-08-13T11:42:44Z</time>
      </trkpt>
      <trkpt lat="46.70073" lon="4.67015">
        <ele>394</ele>
        <time>2014-08-13T11:42:56Z</time>
      </trkpt>
      <trkpt lat="46.70063" lon="4.67018">
        <ele>394</ele>
        <time>2014-08-13T11:43:04Z</time>
      </trkpt>
      <trkpt lat="46.70053" lon="4.67025">
        <ele>394</ele>
        <time>2014-08-13T11:43:13Z</time>
      </trkpt>
      <trkpt lat="46.70047" lon="4.67026">
        <ele>394</ele>
        <time>2014-08-13T11:43:17Z</time>
      </trkpt>
      <trkpt lat="46.70037" lon="4.67029">
        <ele>394</ele>
        <time>2014-08-13T11:43:24Z</time>
      </trkpt>
      <trkpt lat="46.70034" lon="4.67035">
        <ele>394</ele>
        <time>2014-08-13T11:43:28Z</time>
      </trkpt>
      <trkpt lat="46.70024" lon="4.6704">
        <ele>394</ele>
        <time>2014-08-13T11:43:36Z</time>
      </trkpt>
      <trkpt lat="46.70013" lon="4.67047">
        <ele>394</ele>
        <time>2014-08-13T11:43:45Z</time>
      </trkpt>
      <trkpt lat="46.70009" lon="4.67048">
        <ele>394</ele>
        <time>2014-08-13T11:43:48Z</time>
      </trkpt>
      <trkpt lat="46.70004" lon="4.67052">
        <ele>394</ele>
        <time>2014-08-13T11:43:52Z</time>
      </trkpt>
      <trkpt lat="46.7" lon="4.67054">
        <ele>395</ele>
        <time>2014-08-13T11:43:56Z</time>
      </trkpt>
      <trkpt lat="46.69996" lon="4.67059">
        <ele>395</ele>
        <time>2014-08-13T11:43:59Z</time>
      </trkpt>
      <trkpt lat="46.69988" lon="4.67068">
        <ele>394</ele>
        <time>2014-08-13T11:44:04Z</time>
      </trkpt>
      <trkpt lat="46.69984" lon="4.67068">
        <ele>394</ele>
        <time>2014-08-13T11:44:08Z</time>
      </trkpt>
      <trkpt lat="46.69974" lon="4.67068">
        <ele>394</ele>
        <time>2014-08-13T11:44:16Z</time>
      </trkpt>
      <trkpt lat="46.6997" lon="4.67065">
        <ele>395</ele>
        <time>2014-08-13T11:44:20Z</time>
      </trkpt>
      <trkpt lat="46.6995" lon="4.6707">
        <ele>394</ele>
        <time>2014-08-13T11:44:37Z</time>
      </trkpt>
      <trkpt lat="46.69946" lon="4.67074">
        <ele>394</ele>
        <time>2014-08-13T11:44:40Z</time>
      </trkpt>
      <trkpt lat="46.69941" lon="4.67078">
        <ele>394</ele>
        <time>2014-08-13T11:44:44Z</time>
      </trkpt>
      <trkpt lat="46.69936" lon="4.67078">
        <ele>394</ele>
        <time>2014-08-13T11:44:48Z</time>
      </trkpt>
      <trkpt lat="46.69931" lon="4.6708">
        <ele>393</ele>
        <time>2014-08-13T11:44:53Z</time>
      </trkpt>
      <trkpt lat="46.69914" lon="4.67082">
        <ele>392</ele>
        <time>2014-08-13T11:45:05Z</time>
      </trkpt>
      <trkpt lat="46.6991" lon="4.67077">
        <ele>393</ele>
        <time>2014-08-13T11:45:13Z</time>
      </trkpt>
      <trkpt lat="46.69905" lon="4.67073">
        <ele>393</ele>
        <time>2014-08-13T11:45:18Z</time>
      </trkpt>
      <trkpt lat="46.69899" lon="4.67068">
        <ele>393</ele>
        <time>2014-08-13T11:45:26Z</time>
      </trkpt>
      <trkpt lat="46.69895" lon="4.67066">
        <ele>394</ele>
        <time>2014-08-13T11:45:33Z</time>
      </trkpt>
      <trkpt lat="46.69886" lon="4.67057">
        <ele>394</ele>
        <time>2014-08-13T11:45:41Z</time>
      </trkpt>
      <trkpt lat="46.6988" lon="4.67052">
        <ele>394</ele>
        <time>2014-08-13T11:45:44Z</time>
      </trkpt>
      <trkpt lat="46.69875" lon="4.6705">
        <ele>394</ele>
        <time>2014-08-13T11:45:48Z</time>
      </trkpt>
      <trkpt lat="46.69866" lon="4.67041">
        <ele>394</ele>
        <time>2014-08-13T11:45:57Z</time>
      </trkpt>
      <trkpt lat="46.69844" lon="4.67009">
        <ele>396</ele>
        <time>2014-08-13T11:46:23Z</time>
      </trkpt>
      <trkpt lat="46.6984" lon="4.67006">
        <ele>397</ele>
        <time>2014-08-13T11:46:30Z</time>
      </trkpt>
      <trkpt lat="46.69829" lon="4.66986">
        <ele>399</ele>
        <time>2014-08-13T11:46:41Z</time>
      </trkpt>
      <trkpt lat="46.69824" lon="4.66973">
        <ele>400</ele>
        <time>2014-08-13T11:46:48Z</time>
      </trkpt>
      <trkpt lat="46.69821" lon="4.66965">
        <ele>400</ele>
        <time>2014-08-13T11:46:52Z</time>
      </trkpt>
      <trkpt lat="46.69819" lon="4.66959">
        <ele>400</ele>
        <time>2014-08-13T11:46:58Z</time>
      </trkpt>
      <trkpt lat="46.69817" lon="4.66952">
        <ele>400</ele>
        <time>2014-08-13T11:47:02Z</time>
      </trkpt>
      <trkpt lat="46.69812" lon="4.66938">
        <ele>400</ele>
        <time>2014-08-13T11:47:11Z</time>
      </trkpt>
      <trkpt lat="46.69806" lon="4.66925">
        <ele>400</ele>
        <time>2014-08-13T11:47:18Z</time>
      </trkpt>
      <trkpt lat="46.69802" lon="4.6692">
        <ele>400</ele>
        <time>2014-08-13T11:47:24Z</time>
      </trkpt>
      <trkpt lat="46.69796" lon="4.66909">
        <ele>401</ele>
        <time>2014-08-13T11:47:34Z</time>
      </trkpt>
      <trkpt lat="46.69792" lon="4.66904">
        <ele>401</ele>
        <time>2014-08-13T11:47:37Z</time>
      </trkpt>
      <trkpt lat="46.69781" lon="4.66888">
        <ele>402</ele>
        <time>2014-08-13T11:47:50Z</time>
      </trkpt>
      <trkpt lat="46.69771" lon="4.6688">
        <ele>402</ele>
        <time>2014-08-13T11:47:57Z</time>
      </trkpt>
      <trkpt lat="46.69759" lon="4.66867">
        <ele>402</ele>
        <time>2014-08-13T11:48:08Z</time>
      </trkpt>
      <trkpt lat="46.69754" lon="4.66864">
        <ele>402</ele>
        <time>2014-08-13T11:48:12Z</time>
      </trkpt>
      <trkpt lat="46.69718" lon="4.66849">
        <ele>404</ele>
        <time>2014-08-13T11:48:45Z</time>
      </trkpt>
      <trkpt lat="46.69713" lon="4.66847">
        <ele>404</ele>
        <time>2014-08-13T11:48:48Z</time>
      </trkpt>
      <trkpt lat="46.69703" lon="4.66847">
        <ele>404</ele>
        <time>2014-08-13T11:48:56Z</time>
      </trkpt>
      <trkpt lat="46.69694" lon="4.66841">
        <ele>405</ele>
        <time>2014-08-13T11:49:01Z</time>
      </trkpt>
      <trkpt lat="46.69686" lon="4.66832">
        <ele>405</ele>
        <time>2014-08-13T11:49:12Z</time>
      </trkpt>
      <trkpt lat="46.69681" lon="4.66834">
        <ele>405</ele>
        <time>2014-08-13T11:49:16Z</time>
      </trkpt>
      <trkpt lat="46.69676" lon="4.6683">
        <ele>405</ele>
        <time>2014-08-13T11:49:20Z</time>
      </trkpt>
      <trkpt lat="46.69656" lon="4.66819">
        <ele>405</ele>
        <time>2014-08-13T11:49:35Z</time>
      </trkpt>
      <trkpt lat="46.6965" lon="4.66821">
        <ele>405</ele>
        <time>2014-08-13T11:49:41Z</time>
      </trkpt>
      <trkpt lat="46.69644" lon="4.66818">
        <ele>405</ele>
        <time>2014-08-13T11:49:45Z</time>
      </trkpt>
      <trkpt lat="46.69639" lon="4.66813">
        <ele>405</ele>
        <time>2014-08-13T11:49:48Z</time>
      </trkpt>
      <trkpt lat="46.69636" lon="4.66807">
        <ele>405</ele>
        <time>2014-08-13T11:49:53Z</time>
      </trkpt>
      <trkpt lat="46.69631" lon="4.66802">
        <ele>405</ele>
        <time>2014-08-13T11:49:58Z</time>
      </trkpt>
      <trkpt lat="46.69627" lon="4.66797">
        <ele>405</ele>
        <time>2014-08-13T11:50:02Z</time>
      </trkpt>
      <trkpt lat="46.69623" lon="4.66796">
        <ele>405</ele>
        <time>2014-08-13T11:50:06Z</time>
      </trkpt>
      <trkpt lat="46.69618" lon="4.66795">
        <ele>405</ele>
        <time>2014-08-13T11:50:11Z</time>
      </trkpt>
      <trkpt lat="46.69573" lon="4.6677">
        <ele>403</ele>
        <time>2014-08-13T11:50:45Z</time>
      </trkpt>
      <trkpt lat="46.69569" lon="4.66767">
        <ele>403</ele>
        <time>2014-08-13T11:50:48Z</time>
      </trkpt>
      <trkpt lat="46.69564" lon="4.66764">
        <ele>403</ele>
        <time>2014-08-13T11:50:51Z</time>
      </trkpt>
      <trkpt lat="46.6954" lon="4.66747">
        <ele>403</ele>
        <time>2014-08-13T11:51:11Z</time>
      </trkpt>
      <trkpt lat="46.69535" lon="4.66745">
        <ele>403</ele>
        <time>2014-08-13T11:51:15Z</time>
      </trkpt>
      <trkpt lat="46.69531" lon="4.66741">
        <ele>403</ele>
        <time>2014-08-13T11:51:22Z</time>
      </trkpt>
      <trkpt lat="46.69528" lon="4.66735">
        <ele>403</ele>
        <time>2014-08-13T11:51:27Z</time>
      </trkpt>
      <trkpt lat="46.69522" lon="4.66734">
        <ele>403</ele>
        <time>2014-08-13T11:51:32Z</time>
      </trkpt>
      <trkpt lat="46.69518" lon="4.66735">
        <ele>402</ele>
        <time>2014-08-13T11:51:41Z</time>
      </trkpt>
      <trkpt lat="46.69513" lon="4.66731">
        <ele>402</ele>
        <time>2014-08-13T11:52:09Z</time>
      </trkpt>
      <trkpt lat="46.69508" lon="4.66731">
        <ele>402</ele>
        <time>2014-08-13T11:52:14Z</time>
      </trkpt>
      <trkpt lat="46.69504" lon="4.66728">
        <ele>402</ele>
        <time>2014-08-13T11:52:17Z</time>
      </trkpt>
      <trkpt lat="46.695" lon="4.66724">
        <ele>402</ele>
        <time>2014-08-13T11:52:22Z</time>
      </trkpt>
      <trkpt lat="46.69496" lon="4.6672">
        <ele>400</ele>
        <time>2014-08-13T11:52:26Z</time>
      </trkpt>
      <trkpt lat="46.69459" lon="4.6669">
        <ele>399</ele>
        <time>2014-08-13T11:52:52Z</time>
      </trkpt>
      <trkpt lat="46.69449" lon="4.66683">
        <ele>399</ele>
        <time>2014-08-13T11:53:00Z</time>
      </trkpt>
      <trkpt lat="46.69437" lon="4.66671">
        <ele>398</ele>
        <time>2014-08-13T11:53:12Z</time>
      </trkpt>
      <trkpt lat="46.69433" lon="4.66667">
        <ele>400</ele>
        <time>2014-08-13T11:53:19Z</time>
      </trkpt>
      <trkpt lat="46.69431" lon="4.66659">
        <ele>400</ele>
        <time>2014-08-13T11:53:23Z</time>
      </trkpt>
      <trkpt lat="46.69426" lon="4.66647">
        <ele>400</ele>
        <time>2014-08-13T11:53:31Z</time>
      </trkpt>
      <trkpt lat="46.69403" lon="4.66627">
        <ele>400</ele>
        <time>2014-08-13T11:53:48Z</time>
      </trkpt>
      <trkpt lat="46.69397" lon="4.66626">
        <ele>400</ele>
        <time>2014-08-13T11:53:52Z</time>
      </trkpt>
      <trkpt lat="46.69393" lon="4.66623">
        <ele>400</ele>
        <time>2014-08-13T11:53:57Z</time>
      </trkpt>
      <trkpt lat="46.69389" lon="4.66618">
        <ele>400</ele>
        <time>2014-08-13T11:54:02Z</time>
      </trkpt>
      <trkpt lat="46.69385" lon="4.66611">
        <ele>400</ele>
        <time>2014-08-13T11:54:06Z</time>
      </trkpt>
      <trkpt lat="46.69371" lon="4.66599">
        <ele>400</ele>
        <time>2014-08-13T11:54:14Z</time>
      </trkpt>
      <trkpt lat="46.69366" lon="4.66599">
        <ele>400</ele>
        <time>2014-08-13T11:54:18Z</time>
      </trkpt>
      <trkpt lat="46.69362" lon="4.66595">
        <ele>400</ele>
        <time>2014-08-13T11:54:24Z</time>
      </trkpt>
      <trkpt lat="46.69358" lon="4.6659">
        <ele>400</ele>
        <time>2014-08-13T11:54:29Z</time>
      </trkpt>
      <trkpt lat="46.69349" lon="4.66586">
        <ele>400</ele>
        <time>2014-08-13T11:54:35Z</time>
      </trkpt>
      <trkpt lat="46.69339" lon="4.66582">
        <ele>401</ele>
        <time>2014-08-13T11:54:44Z</time>
      </trkpt>
      <trkpt lat="46.69323" lon="4.66579">
        <ele>401</ele>
        <time>2014-08-13T11:54:56Z</time>
      </trkpt>
      <trkpt lat="46.69302" lon="4.66575">
        <ele>401</ele>
        <time>2014-08-13T11:55:14Z</time>
      </trkpt>
      <trkpt lat="46.69292" lon="4.66576">
        <ele>401</ele>
        <time>2014-08-13T11:55:20Z</time>
      </trkpt>
      <trkpt lat="46.69287" lon="4.66576">
        <ele>401</ele>
        <time>2014-08-13T11:55:23Z</time>
      </trkpt>
      <trkpt lat="46.69281" lon="4.66576">
        <ele>401</ele>
        <time>2014-08-13T11:55:27Z</time>
      </trkpt>
      <trkpt lat="46.69276" lon="4.66576">
        <ele>401</ele>
        <time>2014-08-13T11:55:31Z</time>
      </trkpt>
      <trkpt lat="46.69271" lon="4.66578">
        <ele>401</ele>
        <time>2014-08-13T11:55:35Z</time>
      </trkpt>
      <trkpt lat="46.69267" lon="4.66578">
        <ele>401</ele>
        <time>2014-08-13T11:55:40Z</time>
      </trkpt>
      <trkpt lat="46.69262" lon="4.66577">
        <ele>400</ele>
        <time>2014-08-13T11:55:44Z</time>
      </trkpt>
      <trkpt lat="46.6925" lon="4.66577">
        <ele>400</ele>
        <time>2014-08-13T11:55:52Z</time>
      </trkpt>
      <trkpt lat="46.6924" lon="4.66576">
        <ele>401</ele>
        <time>2014-08-13T11:56:00Z</time>
      </trkpt>
      <trkpt lat="46.69228" lon="4.66573">
        <ele>401</ele>
        <time>2014-08-13T11:56:08Z</time>
      </trkpt>
      <trkpt lat="46.69205" lon="4.66564">
        <ele>401</ele>
        <time>2014-08-13T11:56:29Z</time>
      </trkpt>
      <trkpt lat="46.692" lon="4.66561">
        <ele>401</ele>
        <time>2014-08-13T11:56:32Z</time>
      </trkpt>
      <trkpt lat="46.6919" lon="4.66557">
        <ele>401</ele>
        <time>2014-08-13T11:56:39Z</time>
      </trkpt>
      <trkpt lat="46.69181" lon="4.66554">
        <ele>401</ele>
        <time>2014-08-13T11:56:46Z</time>
      </trkpt>
      <trkpt lat="46.69177" lon="4.66553">
        <ele>401</ele>
        <time>2014-08-13T11:57:59Z</time>
      </trkpt>
      <trkpt lat="46.69167" lon="4.6655">
        <ele>401</ele>
        <time>2014-08-13T11:58:08Z</time>
      </trkpt>
      <trkpt lat="46.69156" lon="4.66552">
        <ele>400</ele>
        <time>2014-08-13T11:58:16Z</time>
      </trkpt>
      <trkpt lat="46.69126" lon="4.6654">
        <ele>399</ele>
        <time>2014-08-13T11:58:46Z</time>
      </trkpt>
      <trkpt lat="46.69123" lon="4.66533">
        <ele>399</ele>
        <time>2014-08-13T11:58:49Z</time>
      </trkpt>
      <trkpt lat="46.69115" lon="4.66526">
        <ele>399</ele>
        <time>2014-08-13T11:58:55Z</time>
      </trkpt>
      <trkpt lat="46.69105" lon="4.66521">
        <ele>398</ele>
        <time>2014-08-13T11:59:03Z</time>
      </trkpt>
      <trkpt lat="46.69102" lon="4.66515">
        <ele>398</ele>
        <time>2014-08-13T11:59:07Z</time>
      </trkpt>
      <trkpt lat="46.69083" lon="4.6649">
        <ele>396</ele>
        <time>2014-08-13T11:59:27Z</time>
      </trkpt>
      <trkpt lat="46.69078" lon="4.66484">
        <ele>395</ele>
        <time>2014-08-13T11:59:31Z</time>
      </trkpt>
      <trkpt lat="46.69074" lon="4.66481">
        <ele>395</ele>
        <time>2014-08-13T11:59:34Z</time>
      </trkpt>
      <trkpt lat="46.69069" lon="4.66478">
        <ele>395</ele>
        <time>2014-08-13T11:59:37Z</time>
      </trkpt>
      <trkpt lat="46.69065" lon="4.66474">
        <ele>395</ele>
        <time>2014-08-13T11:59:40Z</time>
      </trkpt>
      <trkpt lat="46.6904" lon="4.66449">
        <ele>394</ele>
        <time>2014-08-13T12:00:02Z</time>
      </trkpt>
      <trkpt lat="46.69037" lon="4.66445">
        <ele>394</ele>
        <time>2014-08-13T12:00:07Z</time>
      </trkpt>
      <trkpt lat="46.69034" lon="4.66437">
        <ele>394</ele>
        <time>2014-08-13T12:01:36Z</time>
      </trkpt>
      <trkpt lat="46.6903" lon="4.66432">
        <ele>393</ele>
        <time>2014-08-13T12:01:40Z</time>
      </trkpt>
      <trkpt lat="46.69025" lon="4.6643">
        <ele>393</ele>
        <time>2014-08-13T12:01:43Z</time>
      </trkpt>
      <trkpt lat="46.69012" lon="4.66416">
        <ele>393</ele>
        <time>2014-08-13T12:01:55Z</time>
      </trkpt>
      <trkpt lat="46.69004" lon="4.66407">
        <ele>393</ele>
        <time>2014-08-13T12:02:01Z</time>
      </trkpt>
      <trkpt lat="46.68978" lon="4.66384">
        <ele>391</ele>
        <time>2014-08-13T12:02:25Z</time>
      </trkpt>
      <trkpt lat="46.68968" lon="4.66378">
        <ele>390</ele>
        <time>2014-08-13T12:02:33Z</time>
      </trkpt>
      <trkpt lat="46.68959" lon="4.66369">
        <ele>390</ele>
        <time>2014-08-13T12:02:41Z</time>
      </trkpt>
      <trkpt lat="46.68955" lon="4.66364">
        <ele>390</ele>
        <time>2014-08-13T12:02:45Z</time>
      </trkpt>
      <trkpt lat="46.6895" lon="4.66361">
        <ele>390</ele>
        <time>2014-08-13T12:02:50Z</time>
      </trkpt>
      <trkpt lat="46.68945" lon="4.6636">
        <ele>390</ele>
        <time>2014-08-13T12:02:53Z</time>
      </trkpt>
      <trkpt lat="46.68941" lon="4.66358">
        <ele>390</ele>
        <time>2014-08-13T12:02:56Z</time>
      </trkpt>
      <trkpt lat="46.68935" lon="4.66359">
        <ele>390</ele>
        <time>2014-08-13T12:03:00Z</time>
      </trkpt>
      <trkpt lat="46.68927" lon="4.66351">
        <ele>389</ele>
        <time>2014-08-13T12:03:07Z</time>
      </trkpt>
      <trkpt lat="46.68911" lon="4.66344">
        <ele>387</ele>
        <time>2014-08-13T12:03:19Z</time>
      </trkpt>
      <trkpt lat="46.68907" lon="4.66342">
        <ele>386</ele>
        <time>2014-08-13T12:03:23Z</time>
      </trkpt>
      <trkpt lat="46.68899" lon="4.66334">
        <ele>386</ele>
        <time>2014-08-13T12:03:32Z</time>
      </trkpt>
      <trkpt lat="46.6889" lon="4.66328">
        <ele>387</ele>
        <time>2014-08-13T12:03:38Z</time>
      </trkpt>
      <trkpt lat="46.68884" lon="4.66324">
        <ele>387</ele>
        <time>2014-08-13T12:03:42Z</time>
      </trkpt>
      <trkpt lat="46.68875" lon="4.66318">
        <ele>386</ele>
        <time>2014-08-13T12:03:51Z</time>
      </trkpt>
      <trkpt lat="46.68871" lon="4.66316">
        <ele>386</ele>
        <time>2014-08-13T12:03:54Z</time>
      </trkpt>
      <trkpt lat="46.68866" lon="4.66312">
        <ele>386</ele>
        <time>2014-08-13T12:03:58Z</time>
      </trkpt>
      <trkpt lat="46.68857" lon="4.66306">
        <ele>386</ele>
        <time>2014-08-13T12:04:06Z</time>
      </trkpt>
      <trkpt lat="46.68853" lon="4.66304">
        <ele>386</ele>
        <time>2014-08-13T12:04:11Z</time>
      </trkpt>
      <trkpt lat="46.68848" lon="4.66299">
        <ele>386</ele>
        <time>2014-08-13T12:04:15Z</time>
      </trkpt>
      <trkpt lat="46.68842" lon="4.66296">
        <ele>386</ele>
        <time>2014-08-13T12:04:19Z</time>
      </trkpt>
      <trkpt lat="46.68838" lon="4.66292">
        <ele>386</ele>
        <time>2014-08-13T12:04:23Z</time>
      </trkpt>
      <trkpt lat="46.68828" lon="4.66287">
        <ele>385</ele>
        <time>2014-08-13T12:04:31Z</time>
      </trkpt>
      <trkpt lat="46.68823" lon="4.6629">
        <ele>385</ele>
        <time>2014-08-13T12:04:37Z</time>
      </trkpt>
      <trkpt lat="46.6882" lon="4.66296">
        <ele>385</ele>
        <time>2014-08-13T12:04:41Z</time>
      </trkpt>
      <trkpt lat="46.68819" lon="4.66311">
        <ele>384</ele>
        <time>2014-08-13T12:04:47Z</time>
      </trkpt>
      <trkpt lat="46.68814" lon="4.66313">
        <ele>384</ele>
        <time>2014-08-13T12:04:51Z</time>
      </trkpt>
      <trkpt lat="46.68808" lon="4.66316">
        <ele>384</ele>
        <time>2014-08-13T12:04:55Z</time>
      </trkpt>
      <trkpt lat="46.68803" lon="4.66321">
        <ele>384</ele>
        <time>2014-08-13T12:04:59Z</time>
      </trkpt>
      <trkpt lat="46.68795" lon="4.66329">
        <ele>385</ele>
        <time>2014-08-13T12:05:05Z</time>
      </trkpt>
      <trkpt lat="46.68784" lon="4.66333">
        <ele>385</ele>
        <time>2014-08-13T12:05:14Z</time>
      </trkpt>
      <trkpt lat="46.68779" lon="4.66336">
        <ele>383</ele>
        <time>2014-08-13T12:05:17Z</time>
      </trkpt>
      <trkpt lat="46.68777" lon="4.66342">
        <ele>383</ele>
        <time>2014-08-13T12:05:22Z</time>
      </trkpt>
      <trkpt lat="46.68773" lon="4.66339">
        <ele>383</ele>
        <time>2014-08-13T12:05:36Z</time>
      </trkpt>
      <trkpt lat="46.68769" lon="4.66345">
        <ele>383</ele>
        <time>2014-08-13T12:05:41Z</time>
      </trkpt>
      <trkpt lat="46.68764" lon="4.66348">
        <ele>384</ele>
        <time>2014-08-13T12:05:46Z</time>
      </trkpt>
      <trkpt lat="46.68763" lon="4.66351">
        <ele>383</ele>
        <time>2014-08-13T12:05:53Z</time>
      </trkpt>
      <trkpt lat="46.68756" lon="4.6635">
        <ele>384</ele>
        <time>2014-08-13T12:05:56Z</time>
      </trkpt>
      <trkpt lat="46.68743" lon="4.66352">
        <ele>387</ele>
        <time>2014-08-13T12:06:01Z</time>
      </trkpt>
      <trkpt lat="46.68739" lon="4.66354">
        <ele>387</ele>
        <time>2014-08-13T12:06:04Z</time>
      </trkpt>
      <trkpt lat="46.6873" lon="4.66358">
        <ele>387</ele>
        <time>2014-08-13T12:06:12Z</time>
      </trkpt>
      <trkpt lat="46.68715" lon="4.6636">
        <ele>388</ele>
        <time>2014-08-13T12:06:25Z</time>
      </trkpt>
      <trkpt lat="46.68699" lon="4.66377">
        <ele>388</ele>
        <time>2014-08-13T12:06:40Z</time>
      </trkpt>
      <trkpt lat="46.68695" lon="4.66384">
        <ele>388</ele>
        <time>2014-08-13T12:06:44Z</time>
      </trkpt>
      <trkpt lat="46.68687" lon="4.6639">
        <ele>389</ele>
        <time>2014-08-13T12:06:51Z</time>
      </trkpt>
      <trkpt lat="46.68679" lon="4.66399">
        <ele>389</ele>
        <time>2014-08-13T12:07:00Z</time>
      </trkpt>
      <trkpt lat="46.6867" lon="4.66406">
        <ele>390</ele>
        <time>2014-08-13T12:07:10Z</time>
      </trkpt>
      <trkpt lat="46.68661" lon="4.66415">
        <ele>391</ele>
        <time>2014-08-13T12:07:17Z</time>
      </trkpt>
      <trkpt lat="46.68656" lon="4.6642">
        <ele>391</ele>
        <time>2014-08-13T12:07:21Z</time>
      </trkpt>
      <trkpt lat="46.68652" lon="4.66423">
        <ele>391</ele>
        <time>2014-08-13T12:07:24Z</time>
      </trkpt>
      <trkpt lat="46.68648" lon="4.66428">
        <ele>391</ele>
        <time>2014-08-13T12:07:28Z</time>
      </trkpt>
      <trkpt lat="46.68645" lon="4.66433">
        <ele>391</ele>
        <time>2014-08-13T12:07:32Z</time>
      </trkpt>
      <trkpt lat="46.6864" lon="4.66439">
        <ele>391</ele>
        <time>2014-08-13T12:07:36Z</time>
      </trkpt>
      <trkpt lat="46.68627" lon="4.66449">
        <ele>391</ele>
        <time>2014-08-13T12:07:48Z</time>
      </trkpt>
      <trkpt lat="46.68622" lon="4.66451">
        <ele>391</ele>
        <time>2014-08-13T12:07:52Z</time>
      </trkpt>
      <trkpt lat="46.68617" lon="4.66452">
        <ele>392</ele>
        <time>2014-08-13T12:07:56Z</time>
      </trkpt>
      <trkpt lat="46.68613" lon="4.66457">
        <ele>392</ele>
        <time>2014-08-13T12:08:00Z</time>
      </trkpt>
      <trkpt lat="46.68608" lon="4.66459">
        <ele>392</ele>
        <time>2014-08-13T12:08:06Z</time>
      </trkpt>
      <trkpt lat="46.68593" lon="4.66465">
        <ele>392</ele>
        <time>2014-08-13T12:08:16Z</time>
      </trkpt>
      <trkpt lat="46.68578" lon="4.66468">
        <ele>396</ele>
        <time>2014-08-13T12:08:20Z</time>
      </trkpt>
      <trkpt lat="46.68576" lon="4.66469">
        <ele>396</ele>
        <time>2014-08-13T12:08:22Z</time>
      </trkpt>
      <trkpt lat="46.68575" lon="4.66473">
        <ele>396</ele>
        <time>2014-08-13T12:08:31Z</time>
      </trkpt>
      <trkpt lat="46.68571" lon="4.66478">
        <ele>396</ele>
        <time>2014-08-13T12:08:37Z</time>
      </trkpt>
      <trkpt lat="46.68567" lon="4.66481">
        <ele>396</ele>
        <time>2014-08-13T12:08:41Z</time>
      </trkpt>
      <trkpt lat="46.68558" lon="4.66489">
        <ele>396</ele>
        <time>2014-08-13T12:08:48Z</time>
      </trkpt>
      <trkpt lat="46.68548" lon="4.66495">
        <ele>396</ele>
        <time>2014-08-13T12:08:58Z</time>
      </trkpt>
      <trkpt lat="46.68534" lon="4.66507">
        <ele>395</ele>
        <time>2014-08-13T12:09:04Z</time>
      </trkpt>
      <trkpt lat="46.68532" lon="4.66506">
        <ele>395</ele>
        <time>2014-08-13T12:09:07Z</time>
      </trkpt>
      <trkpt lat="46.68528" lon="4.66503">
        <ele>395</ele>
        <time>2014-08-13T12:09:13Z</time>
      </trkpt>
      <trkpt lat="46.68522" lon="4.66505">
        <ele>395</ele>
        <time>2014-08-13T12:09:18Z</time>
      </trkpt>
      <trkpt lat="46.68507" lon="4.6651">
        <ele>396</ele>
        <time>2014-08-13T12:09:31Z</time>
      </trkpt>
      <trkpt lat="46.68502" lon="4.66512">
        <ele>396</ele>
        <time>2014-08-13T12:09:36Z</time>
      </trkpt>
      <trkpt lat="46.68492" lon="4.66513">
        <ele>397</ele>
        <time>2014-08-13T12:09:44Z</time>
      </trkpt>
      <trkpt lat="46.68487" lon="4.66514">
        <ele>397</ele>
        <time>2014-08-13T12:09:48Z</time>
      </trkpt>
      <trkpt lat="46.68481" lon="4.66516">
        <ele>396</ele>
        <time>2014-08-13T12:09:53Z</time>
      </trkpt>
      <trkpt lat="46.68477" lon="4.66518">
        <ele>396</ele>
        <time>2014-08-13T12:09:57Z</time>
      </trkpt>
      <trkpt lat="46.68479" lon="4.66526">
        <ele>396</ele>
        <time>2014-08-13T12:10:08Z</time>
      </trkpt>
      <trkpt lat="46.68479" lon="4.66534">
        <ele>396</ele>
        <time>2014-08-13T12:10:12Z</time>
      </trkpt>
      <trkpt lat="46.68482" lon="4.66543">
        <ele>395</ele>
        <time>2014-08-13T12:10:26Z</time>
      </trkpt>
      <trkpt lat="46.68481" lon="4.66567">
        <ele>395</ele>
        <time>2014-08-13T12:10:39Z</time>
      </trkpt>
      <trkpt lat="46.68482" lon="4.66574">
        <ele>394</ele>
        <time>2014-08-13T12:10:43Z</time>
      </trkpt>
      <trkpt lat="46.68482" lon="4.66582">
        <ele>394</ele>
        <time>2014-08-13T12:10:48Z</time>
      </trkpt>
      <trkpt lat="46.68483" lon="4.6659">
        <ele>388</ele>
        <time>2014-08-13T12:10:53Z</time>
      </trkpt>
      <trkpt lat="46.68484" lon="4.66604">
        <ele>386</ele>
        <time>2014-08-13T12:11:02Z</time>
      </trkpt>
      <trkpt lat="46.68482" lon="4.66605">
        <ele>386</ele>
        <time>2014-08-13T12:11:18Z</time>
      </trkpt>
      <trkpt lat="46.68483" lon="4.66609">
        <ele>385</ele>
        <time>2014-08-13T12:11:38Z</time>
      </trkpt>
      <trkpt lat="46.68477" lon="4.66505">
        <ele>397</ele>
        <time>2014-08-13T12:12:38Z</time>
      </trkpt>
      <trkpt lat="46.68321" lon="4.66499">
        <ele>396</ele>
        <time>2014-08-13T12:13:38Z</time>
      </trkpt>
      <trkpt lat="46.68153" lon="4.66469">
        <ele>392</ele>
        <time>2014-08-13T12:14:38Z</time>
      </trkpt>
      <trkpt lat="46.67944" lon="4.66561">
        <ele>404</ele>
        <time>2014-08-13T12:15:38Z</time>
      </trkpt>
      <trkpt lat="46.67868" lon="4.66579">
        <ele>410</ele>
        <time>2014-08-13T12:16:38Z</time>
      </trkpt>
      <trkpt lat="46.67787" lon="4.66609">
        <ele>416</ele>
        <time>2014-08-13T12:17:38Z</time>
      </trkpt>
      <trkpt lat="46.67599" lon="4.66535">
        <ele>422</ele>
        <time>2014-08-13T12:18:38Z</time>
      </trkpt>
      <trkpt lat="46.67449" lon="4.66417">
        <ele>417</ele>
        <time>2014-08-13T12:19:38Z</time>
      </trkpt>
      <trkpt lat="46.67375" lon="4.66392">
        <ele>414</ele>
        <time>2014-08-13T12:20:38Z</time>
      </trkpt>
      <trkpt lat="46.67244" lon="4.66328">
        <ele>411</ele>
        <time>2014-08-13T12:21:38Z</time>
      </trkpt>
      <trkpt lat="46.67164" lon="4.66372">
        <ele>414</ele>
        <time>2014-08-13T12:31:59Z</time>
      </trkpt>
      <trkpt lat="46.67161" lon="4.66375">
        <ele>414</ele>
        <time>2014-08-13T12:32:03Z</time>
      </trkpt>
      <trkpt lat="46.67157" lon="4.66381">
        <ele>414</ele>
        <time>2014-08-13T12:32:09Z</time>
      </trkpt>
      <trkpt lat="46.67154" lon="4.66386">
        <ele>414</ele>
        <time>2014-08-13T12:32:13Z</time>
      </trkpt>
      <trkpt lat="46.6715" lon="4.6639">
        <ele>414</ele>
        <time>2014-08-13T12:32:20Z</time>
      </trkpt>
      <trkpt lat="46.67143" lon="4.66409">
        <ele>414</ele>
        <time>2014-08-13T12:32:35Z</time>
      </trkpt>
      <trkpt lat="46.67138" lon="4.66413">
        <ele>414</ele>
        <time>2014-08-13T12:32:38Z</time>
      </trkpt>
      <trkpt lat="46.67134" lon="4.66416">
        <ele>414</ele>
        <time>2014-08-13T12:32:42Z</time>
      </trkpt>
      <trkpt lat="46.67127" lon="4.66424">
        <ele>412</ele>
        <time>2014-08-13T12:32:52Z</time>
      </trkpt>
      <trkpt lat="46.67122" lon="4.66426">
        <ele>412</ele>
        <time>2014-08-13T12:32:58Z</time>
      </trkpt>
      <trkpt lat="46.67119" lon="4.66432">
        <ele>412</ele>
        <time>2014-08-13T12:33:04Z</time>
      </trkpt>
      <trkpt lat="46.67112" lon="4.66441">
        <ele>412</ele>
        <time>2014-08-13T12:33:10Z</time>
      </trkpt>
      <trkpt lat="46.67109" lon="4.66448">
        <ele>412</ele>
        <time>2014-08-13T12:33:14Z</time>
      </trkpt>
      <trkpt lat="46.67102" lon="4.66458">
        <ele>412</ele>
        <time>2014-08-13T12:33:20Z</time>
      </trkpt>
      <trkpt lat="46.67072" lon="4.66489">
        <ele>413</ele>
        <time>2014-08-13T12:33:42Z</time>
      </trkpt>
      <trkpt lat="46.67066" lon="4.66493">
        <ele>413</ele>
        <time>2014-08-13T12:33:45Z</time>
      </trkpt>
      <trkpt lat="46.67058" lon="4.66501">
        <ele>409</ele>
        <time>2014-08-13T12:33:50Z</time>
      </trkpt>
      <trkpt lat="46.67054" lon="4.66502">
        <ele>409</ele>
        <time>2014-08-13T12:34:00Z</time>
      </trkpt>
      <trkpt lat="46.6705" lon="4.66507">
        <ele>409</ele>
        <time>2014-08-13T12:34:03Z</time>
      </trkpt>
      <trkpt lat="46.67049" lon="4.66517">
        <ele>409</ele>
        <time>2014-08-13T12:34:05Z</time>
      </trkpt>
      <trkpt lat="46.67038" lon="4.66531">
        <ele>408</ele>
        <time>2014-08-13T12:34:12Z</time>
      </trkpt>
      <trkpt lat="46.67034" lon="4.66535">
        <ele>408</ele>
        <time>2014-08-13T12:34:17Z</time>
      </trkpt>
      <trkpt lat="46.67031" lon="4.66541">
        <ele>408</ele>
        <time>2014-08-13T12:34:25Z</time>
      </trkpt>
      <trkpt lat="46.67034" lon="4.66544">
        <ele>408</ele>
        <time>2014-08-13T12:34:56Z</time>
      </trkpt>
      <trkpt lat="46.67032" lon="4.6655">
        <ele>407</ele>
        <time>2014-08-13T12:35:02Z</time>
      </trkpt>
      <trkpt lat="46.67029" lon="4.66558">
        <ele>407</ele>
        <time>2014-08-13T12:35:06Z</time>
      </trkpt>
      <trkpt lat="46.67027" lon="4.66573">
        <ele>406</ele>
        <time>2014-08-13T12:35:13Z</time>
      </trkpt>
      <trkpt lat="46.67028" lon="4.66579">
        <ele>406</ele>
        <time>2014-08-13T12:35:19Z</time>
      </trkpt>
      <trkpt lat="46.67025" lon="4.66585">
        <ele>398</ele>
        <time>2014-08-13T12:35:22Z</time>
      </trkpt>
      <trkpt lat="46.67019" lon="4.66597">
        <ele>398</ele>
        <time>2014-08-13T12:35:28Z</time>
      </trkpt>
      <trkpt lat="46.67016" lon="4.66602">
        <ele>398</ele>
        <time>2014-08-13T12:35:33Z</time>
      </trkpt>
      <trkpt lat="46.67005" lon="4.66621">
        <ele>395</ele>
        <time>2014-08-13T12:35:46Z</time>
      </trkpt>
      <trkpt lat="46.66997" lon="4.66629">
        <ele>399</ele>
        <time>2014-08-13T12:35:57Z</time>
      </trkpt>
      <trkpt lat="46.66995" lon="4.66636">
        <ele>398</ele>
        <time>2014-08-13T12:36:01Z</time>
      </trkpt>
      <trkpt lat="46.66991" lon="4.6664">
        <ele>398</ele>
        <time>2014-08-13T12:36:03Z</time>
      </trkpt>
      <trkpt lat="46.66956" lon="4.66672">
        <ele>388</ele>
        <time>2014-08-13T12:36:34Z</time>
      </trkpt>
      <trkpt lat="46.66946" lon="4.66676">
        <ele>388</ele>
        <time>2014-08-13T12:36:43Z</time>
      </trkpt>
      <trkpt lat="46.66942" lon="4.66682">
        <ele>388</ele>
        <time>2014-08-13T12:36:48Z</time>
      </trkpt>
      <trkpt lat="46.66933" lon="4.66688">
        <ele>388</ele>
        <time>2014-08-13T12:36:55Z</time>
      </trkpt>
      <trkpt lat="46.66928" lon="4.66689">
        <ele>389</ele>
        <time>2014-08-13T12:37:00Z</time>
      </trkpt>
      <trkpt lat="46.66923" lon="4.66693">
        <ele>388</ele>
        <time>2014-08-13T12:37:07Z</time>
      </trkpt>
      <trkpt lat="46.6692" lon="4.66699">
        <ele>387</ele>
        <time>2014-08-13T12:37:12Z</time>
      </trkpt>
      <trkpt lat="46.66912" lon="4.66712">
        <ele>387</ele>
        <time>2014-08-13T12:37:18Z</time>
      </trkpt>
      <trkpt lat="46.66908" lon="4.66718">
        <ele>386</ele>
        <time>2014-08-13T12:37:21Z</time>
      </trkpt>
      <trkpt lat="46.66905" lon="4.66713">
        <ele>387</ele>
        <time>2014-08-13T12:37:26Z</time>
      </trkpt>
      <trkpt lat="46.66904" lon="4.66705">
        <ele>388</ele>
        <time>2014-08-13T12:37:31Z</time>
      </trkpt>
      <trkpt lat="46.66899" lon="4.66705">
        <ele>388</ele>
        <time>2014-08-13T12:37:38Z</time>
      </trkpt>
      <trkpt lat="46.66895" lon="4.66706">
        <ele>388</ele>
        <time>2014-08-13T12:37:41Z</time>
      </trkpt>
      <trkpt lat="46.6689" lon="4.66704">
        <ele>388</ele>
        <time>2014-08-13T12:37:46Z</time>
      </trkpt>
      <trkpt lat="46.66885" lon="4.66705">
        <ele>387</ele>
        <time>2014-08-13T12:37:50Z</time>
      </trkpt>
      <trkpt lat="46.66879" lon="4.66707">
        <ele>387</ele>
        <time>2014-08-13T12:37:53Z</time>
      </trkpt>
      <trkpt lat="46.66874" lon="4.66707">
        <ele>387</ele>
        <time>2014-08-13T12:37:56Z</time>
      </trkpt>
      <trkpt lat="46.66859" lon="4.66709">
        <ele>387</ele>
        <time>2014-08-13T12:38:03Z</time>
      </trkpt>
      <trkpt lat="46.66854" lon="4.66708">
        <ele>387</ele>
        <time>2014-08-13T12:38:08Z</time>
      </trkpt>
      <trkpt lat="46.66851" lon="4.66704">
        <ele>387</ele>
        <time>2014-08-13T12:38:16Z</time>
      </trkpt>
      <trkpt lat="46.66845" lon="4.66704">
        <ele>387</ele>
        <time>2014-08-13T12:38:19Z</time>
      </trkpt>
      <trkpt lat="46.66835" lon="4.66702">
        <ele>388</ele>
        <time>2014-08-13T12:38:26Z</time>
      </trkpt>
      <trkpt lat="46.6683" lon="4.66703">
        <ele>385</ele>
        <time>2014-08-13T12:38:30Z</time>
      </trkpt>
      <trkpt lat="46.66825" lon="4.66701">
        <ele>385</ele>
        <time>2014-08-13T12:38:34Z</time>
      </trkpt>
      <trkpt lat="46.66815" lon="4.66699">
        <ele>385</ele>
        <time>2014-08-13T12:38:43Z</time>
      </trkpt>
      <trkpt lat="46.66804" lon="4.66695">
        <ele>384</ele>
        <time>2014-08-13T12:38:51Z</time>
      </trkpt>
      <trkpt lat="46.66799" lon="4.66695">
        <ele>384</ele>
        <time>2014-08-13T12:38:54Z</time>
      </trkpt>
      <trkpt lat="46.66784" lon="4.66695">
        <ele>383</ele>
        <time>2014-08-13T12:39:03Z</time>
      </trkpt>
      <trkpt lat="46.66774" lon="4.66692">
        <ele>383</ele>
        <time>2014-08-13T12:39:10Z</time>
      </trkpt>
      <trkpt lat="46.66754" lon="4.66689">
        <ele>383</ele>
        <time>2014-08-13T12:39:24Z</time>
      </trkpt>
      <trkpt lat="46.66732" lon="4.6668">
        <ele>379</ele>
        <time>2014-08-13T12:39:44Z</time>
      </trkpt>
      <trkpt lat="46.66726" lon="4.66677">
        <ele>378</ele>
        <time>2014-08-13T12:39:48Z</time>
      </trkpt>
      <trkpt lat="46.66721" lon="4.66673">
        <ele>378</ele>
        <time>2014-08-13T12:39:53Z</time>
      </trkpt>
      <trkpt lat="46.66686" lon="4.66654">
        <ele>384</ele>
        <time>2014-08-13T12:40:26Z</time>
      </trkpt>
      <trkpt lat="46.6668" lon="4.66651">
        <ele>383</ele>
        <time>2014-08-13T12:40:29Z</time>
      </trkpt>
      <trkpt lat="46.66671" lon="4.66639">
        <ele>385</ele>
        <time>2014-08-13T12:40:35Z</time>
      </trkpt>
      <trkpt lat="46.66666" lon="4.66636">
        <ele>380</ele>
        <time>2014-08-13T12:40:39Z</time>
      </trkpt>
      <trkpt lat="46.66662" lon="4.66637">
        <ele>380</ele>
        <time>2014-08-13T12:40:44Z</time>
      </trkpt>
      <trkpt lat="46.66649" lon="4.66632">
        <ele>380</ele>
        <time>2014-08-13T12:40:56Z</time>
      </trkpt>
      <trkpt lat="46.66636" lon="4.66627">
        <ele>380</ele>
        <time>2014-08-13T12:41:02Z</time>
      </trkpt>
      <trkpt lat="46.66631" lon="4.66626">
        <ele>380</ele>
        <time>2014-08-13T12:41:06Z</time>
      </trkpt>
      <trkpt lat="46.66612" lon="4.66619">
        <ele>379</ele>
        <time>2014-08-13T12:41:25Z</time>
      </trkpt>
      <trkpt lat="46.66602" lon="4.66615">
        <ele>380</ele>
        <time>2014-08-13T12:41:31Z</time>
      </trkpt>
      <trkpt lat="46.66599" lon="4.66609">
        <ele>380</ele>
        <time>2014-08-13T12:41:36Z</time>
      </trkpt>
      <trkpt lat="46.66595" lon="4.66606">
        <ele>380</ele>
        <time>2014-08-13T12:41:42Z</time>
      </trkpt>
      <trkpt lat="46.66591" lon="4.66601">
        <ele>381</ele>
        <time>2014-08-13T12:41:49Z</time>
      </trkpt>
      <trkpt lat="46.66582" lon="4.66597">
        <ele>380</ele>
        <time>2014-08-13T12:41:59Z</time>
      </trkpt>
      <trkpt lat="46.66577" lon="4.66597">
        <ele>379</ele>
        <time>2014-08-13T12:42:04Z</time>
      </trkpt>
      <trkpt lat="46.66572" lon="4.66596">
        <ele>379</ele>
        <time>2014-08-13T12:42:09Z</time>
      </trkpt>
      <trkpt lat="46.66568" lon="4.66592">
        <ele>379</ele>
        <time>2014-08-13T12:42:14Z</time>
      </trkpt>
      <trkpt lat="46.66562" lon="4.66592">
        <ele>379</ele>
        <time>2014-08-13T12:42:22Z</time>
      </trkpt>
      <trkpt lat="46.6654" lon="4.66591">
        <ele>378</ele>
        <time>2014-08-13T12:42:38Z</time>
      </trkpt>
      <trkpt lat="46.66535" lon="4.66588">
        <ele>379</ele>
        <time>2014-08-13T12:42:43Z</time>
      </trkpt>
      <trkpt lat="46.66525" lon="4.66586">
        <ele>380</ele>
        <time>2014-08-13T12:42:51Z</time>
      </trkpt>
      <trkpt lat="46.66516" lon="4.66592">
        <ele>381</ele>
        <time>2014-08-13T12:42:59Z</time>
      </trkpt>
      <trkpt lat="46.66511" lon="4.66595">
        <ele>381</ele>
        <time>2014-08-13T12:43:04Z</time>
      </trkpt>
      <trkpt lat="46.66506" lon="4.66596">
        <ele>381</ele>
        <time>2014-08-13T12:43:08Z</time>
      </trkpt>
      <trkpt lat="46.66501" lon="4.66597">
        <ele>381</ele>
        <time>2014-08-13T12:43:12Z</time>
      </trkpt>
      <trkpt lat="46.66496" lon="4.66597">
        <ele>382</ele>
        <time>2014-08-13T12:43:17Z</time>
      </trkpt>
      <trkpt lat="46.66491" lon="4.66599">
        <ele>381</ele>
        <time>2014-08-13T12:43:20Z</time>
      </trkpt>
      <trkpt lat="46.6648" lon="4.66605">
        <ele>379</ele>
        <time>2014-08-13T12:43:26Z</time>
      </trkpt>
      <trkpt lat="46.66475" lon="4.66605">
        <ele>379</ele>
        <time>2014-08-13T12:43:30Z</time>
      </trkpt>
      <trkpt lat="46.66469" lon="4.66606">
        <ele>378</ele>
        <time>2014-08-13T12:43:34Z</time>
      </trkpt>
      <trkpt lat="46.66467" lon="4.66603">
        <ele>379</ele>
        <time>2014-08-13T12:43:51Z</time>
      </trkpt>
      <trkpt lat="46.66462" lon="4.66604">
        <ele>378</ele>
        <time>2014-08-13T12:43:57Z</time>
      </trkpt>
      <trkpt lat="46.66458" lon="4.66601">
        <ele>379</ele>
        <time>2014-08-13T12:44:01Z</time>
      </trkpt>
      <trkpt lat="46.66446" lon="4.66601">
        <ele>379</ele>
        <time>2014-08-13T12:44:07Z</time>
      </trkpt>
      <trkpt lat="46.66441" lon="4.666">
        <ele>379</ele>
        <time>2014-08-13T12:44:11Z</time>
      </trkpt>
      <trkpt lat="46.66432" lon="4.66593">
        <ele>381</ele>
        <time>2014-08-13T12:44:24Z</time>
      </trkpt>
      <trkpt lat="46.66428" lon="4.66589">
        <ele>382</ele>
        <time>2014-08-13T12:44:28Z</time>
      </trkpt>
      <trkpt lat="46.66423" lon="4.66587">
        <ele>383</ele>
        <time>2014-08-13T12:44:32Z</time>
      </trkpt>
      <trkpt lat="46.66412" lon="4.66587">
        <ele>382</ele>
        <time>2014-08-13T12:44:39Z</time>
      </trkpt>
      <trkpt lat="46.66391" lon="4.66581">
        <ele>385</ele>
        <time>2014-08-13T12:44:54Z</time>
      </trkpt>
      <trkpt lat="46.66386" lon="4.66579">
        <ele>385</ele>
        <time>2014-08-13T12:44:57Z</time>
      </trkpt>
      <trkpt lat="46.66381" lon="4.66576">
        <ele>385</ele>
        <time>2014-08-13T12:45:00Z</time>
      </trkpt>
      <trkpt lat="46.66376" lon="4.66574">
        <ele>385</ele>
        <time>2014-08-13T12:45:04Z</time>
      </trkpt>
      <trkpt lat="46.66362" lon="4.66565">
        <ele>384</ele>
        <time>2014-08-13T12:45:14Z</time>
      </trkpt>
      <trkpt lat="46.66357" lon="4.66564">
        <ele>383</ele>
        <time>2014-08-13T12:45:19Z</time>
      </trkpt>
      <trkpt lat="46.66353" lon="4.66559">
        <ele>383</ele>
        <time>2014-08-13T12:45:24Z</time>
      </trkpt>
      <trkpt lat="46.66338" lon="4.66552">
        <ele>384</ele>
        <time>2014-08-13T12:45:34Z</time>
      </trkpt>
      <trkpt lat="46.66329" lon="4.66543">
        <ele>379</ele>
        <time>2014-08-13T12:45:42Z</time>
      </trkpt>
      <trkpt lat="46.66299" lon="4.6653">
        <ele>380</ele>
        <time>2014-08-13T12:45:59Z</time>
      </trkpt>
      <trkpt lat="46.66294" lon="4.6653">
        <ele>380</ele>
        <time>2014-08-13T12:46:01Z</time>
      </trkpt>
      <trkpt lat="46.66289" lon="4.66531">
        <ele>379</ele>
        <time>2014-08-13T12:46:04Z</time>
      </trkpt>
      <trkpt lat="46.66286" lon="4.66528">
        <ele>379</ele>
        <time>2014-08-13T12:46:30Z</time>
      </trkpt>
      <trkpt lat="46.66281" lon="4.66526">
        <ele>379</ele>
        <time>2014-08-13T12:46:34Z</time>
      </trkpt>
      <trkpt lat="46.66276" lon="4.66524">
        <ele>380</ele>
        <time>2014-08-13T12:46:38Z</time>
      </trkpt>
      <trkpt lat="46.66268" lon="4.66513">
        <ele>381</ele>
        <time>2014-08-13T12:46:47Z</time>
      </trkpt>
      <trkpt lat="46.66258" lon="4.66513">
        <ele>381</ele>
        <time>2014-08-13T12:46:57Z</time>
      </trkpt>
      <trkpt lat="46.66254" lon="4.6651">
        <ele>382</ele>
        <time>2014-08-13T12:47:03Z</time>
      </trkpt>
      <trkpt lat="46.66242" lon="4.66513">
        <ele>379</ele>
        <time>2014-08-13T12:47:11Z</time>
      </trkpt>
      <trkpt lat="46.66237" lon="4.66513">
        <ele>379</ele>
        <time>2014-08-13T12:47:19Z</time>
      </trkpt>
      <trkpt lat="46.66221" lon="4.66517">
        <ele>377</ele>
        <time>2014-08-13T12:47:30Z</time>
      </trkpt>
      <trkpt lat="46.66217" lon="4.66518">
        <ele>377</ele>
        <time>2014-08-13T12:48:15Z</time>
      </trkpt>
      <trkpt lat="46.66212" lon="4.66516">
        <ele>377</ele>
        <time>2014-08-13T12:48:45Z</time>
      </trkpt>
      <trkpt lat="46.66207" lon="4.66515">
        <ele>377</ele>
        <time>2014-08-13T12:48:51Z</time>
      </trkpt>
      <trkpt lat="46.66197" lon="4.66518">
        <ele>377</ele>
        <time>2014-08-13T12:48:57Z</time>
      </trkpt>
      <trkpt lat="46.66188" lon="4.66518">
        <ele>377</ele>
        <time>2014-08-13T12:49:08Z</time>
      </trkpt>
      <trkpt lat="46.66183" lon="4.66514">
        <ele>378</ele>
        <time>2014-08-13T12:49:11Z</time>
      </trkpt>
      <trkpt lat="46.66177" lon="4.66514">
        <ele>379</ele>
        <time>2014-08-13T12:49:14Z</time>
      </trkpt>
      <trkpt lat="46.66164" lon="4.66522">
        <ele>376</ele>
        <time>2014-08-13T12:49:21Z</time>
      </trkpt>
      <trkpt lat="46.66155" lon="4.66521">
        <ele>376</ele>
        <time>2014-08-13T12:49:28Z</time>
      </trkpt>
      <trkpt lat="46.6615" lon="4.6652">
        <ele>376</ele>
        <time>2014-08-13T12:49:32Z</time>
      </trkpt>
      <trkpt lat="46.66146" lon="4.66525">
        <ele>375</ele>
        <time>2014-08-13T12:49:37Z</time>
      </trkpt>
      <trkpt lat="46.66135" lon="4.66526">
        <ele>374</ele>
        <time>2014-08-13T12:49:45Z</time>
      </trkpt>
      <trkpt lat="46.66123" lon="4.66525">
        <ele>374</ele>
        <time>2014-08-13T12:49:53Z</time>
      </trkpt>
      <trkpt lat="46.66118" lon="4.66522">
        <ele>374</ele>
        <time>2014-08-13T12:49:57Z</time>
      </trkpt>
      <trkpt lat="46.66087" lon="4.66513">
        <ele>376</ele>
        <time>2014-08-13T12:50:22Z</time>
      </trkpt>
      <trkpt lat="46.66082" lon="4.6651">
        <ele>374</ele>
        <time>2014-08-13T12:50:25Z</time>
      </trkpt>
      <trkpt lat="46.66078" lon="4.66508">
        <ele>374</ele>
        <time>2014-08-13T12:50:28Z</time>
      </trkpt>
      <trkpt lat="46.66074" lon="4.66503">
        <ele>374</ele>
        <time>2014-08-13T12:50:35Z</time>
      </trkpt>
      <trkpt lat="46.66069" lon="4.66501">
        <ele>373</ele>
        <time>2014-08-13T12:50:39Z</time>
      </trkpt>
      <trkpt lat="46.66059" lon="4.665">
        <ele>379</ele>
        <time>2014-08-13T12:50:45Z</time>
      </trkpt>
      <trkpt lat="46.66054" lon="4.66499">
        <ele>379</ele>
        <time>2014-08-13T12:50:51Z</time>
      </trkpt>
      <trkpt lat="46.66048" lon="4.66501">
        <ele>370</ele>
        <time>2014-08-13T12:50:57Z</time>
      </trkpt>
      <trkpt lat="46.66044" lon="4.66499">
        <ele>378</ele>
        <time>2014-08-13T12:51:00Z</time>
      </trkpt>
      <trkpt lat="46.66037" lon="4.66498">
        <ele>378</ele>
        <time>2014-08-13T12:51:03Z</time>
      </trkpt>
      <trkpt lat="46.66033" lon="4.665">
        <ele>373</ele>
        <time>2014-08-13T12:51:07Z</time>
      </trkpt>
      <trkpt lat="46.66028" lon="4.66505">
        <ele>369</ele>
        <time>2014-08-13T12:51:11Z</time>
      </trkpt>
      <trkpt lat="46.66022" lon="4.66508">
        <ele>368</ele>
        <time>2014-08-13T12:51:14Z</time>
      </trkpt>
      <trkpt lat="46.66018" lon="4.66509">
        <ele>368</ele>
        <time>2014-08-13T12:51:20Z</time>
      </trkpt>
      <trkpt lat="46.66012" lon="4.66505">
        <ele>368</ele>
        <time>2014-08-13T12:51:28Z</time>
      </trkpt>
      <trkpt lat="46.66008" lon="4.66502">
        <ele>369</ele>
        <time>2014-08-13T12:51:31Z</time>
      </trkpt>
      <trkpt lat="46.65998" lon="4.66497">
        <ele>369</ele>
        <time>2014-08-13T12:51:39Z</time>
      </trkpt>
      <trkpt lat="46.65996" lon="4.66491">
        <ele>369</ele>
        <time>2014-08-13T12:51:44Z</time>
      </trkpt>
      <trkpt lat="46.65986" lon="4.66483">
        <ele>369</ele>
        <time>2014-08-13T12:51:51Z</time>
      </trkpt>
      <trkpt lat="46.65983" lon="4.6647">
        <ele>370</ele>
        <time>2014-08-13T12:52:00Z</time>
      </trkpt>
      <trkpt lat="46.65978" lon="4.66466">
        <ele>370</ele>
        <time>2014-08-13T12:52:05Z</time>
      </trkpt>
      <trkpt lat="46.65976" lon="4.66458">
        <ele>371</ele>
        <time>2014-08-13T12:52:10Z</time>
      </trkpt>
      <trkpt lat="46.6597" lon="4.66455">
        <ele>371</ele>
        <time>2014-08-13T12:52:13Z</time>
      </trkpt>
      <trkpt lat="46.65965" lon="4.66454">
        <ele>370</ele>
        <time>2014-08-13T12:52:15Z</time>
      </trkpt>
      <trkpt lat="46.65959" lon="4.66453">
        <ele>370</ele>
        <time>2014-08-13T12:52:18Z</time>
      </trkpt>
      <trkpt lat="46.65954" lon="4.6645">
        <ele>369</ele>
        <time>2014-08-13T12:52:21Z</time>
      </trkpt>
      <trkpt lat="46.65946" lon="4.66443">
        <ele>369</ele>
        <time>2014-08-13T12:52:28Z</time>
      </trkpt>
      <trkpt lat="46.65942" lon="4.66439">
        <ele>369</ele>
        <time>2014-08-13T12:52:32Z</time>
      </trkpt>
      <trkpt lat="46.65936" lon="4.66417">
        <ele>369</ele>
        <time>2014-08-13T12:52:45Z</time>
      </trkpt>
      <trkpt lat="46.6593" lon="4.66412">
        <ele>372</ele>
        <time>2014-08-13T12:52:57Z</time>
      </trkpt>
      <trkpt lat="46.65928" lon="4.66406">
        <ele>373</ele>
        <time>2014-08-13T12:53:01Z</time>
      </trkpt>
      <trkpt lat="46.65922" lon="4.66395">
        <ele>374</ele>
        <time>2014-08-13T12:53:10Z</time>
      </trkpt>
      <trkpt lat="46.6592" lon="4.66388">
        <ele>375</ele>
        <time>2014-08-13T12:53:14Z</time>
      </trkpt>
      <trkpt lat="46.65916" lon="4.66385">
        <ele>365</ele>
        <time>2014-08-13T12:53:17Z</time>
      </trkpt>
      <trkpt lat="46.6591" lon="4.66384">
        <ele>365</ele>
        <time>2014-08-13T12:53:20Z</time>
      </trkpt>
      <trkpt lat="46.65905" lon="4.6638">
        <ele>365</ele>
        <time>2014-08-13T12:53:24Z</time>
      </trkpt>
      <trkpt lat="46.65901" lon="4.66376">
        <ele>365</ele>
        <time>2014-08-13T12:53:28Z</time>
      </trkpt>
      <trkpt lat="46.65897" lon="4.66371">
        <ele>365</ele>
        <time>2014-08-13T12:53:32Z</time>
      </trkpt>
      <trkpt lat="46.65894" lon="4.66366">
        <ele>365</ele>
        <time>2014-08-13T12:53:36Z</time>
      </trkpt>
      <trkpt lat="46.6589" lon="4.66359">
        <ele>365</ele>
        <time>2014-08-13T12:53:40Z</time>
      </trkpt>
      <trkpt lat="46.65882" lon="4.66348">
        <ele>365</ele>
        <time>2014-08-13T12:53:49Z</time>
      </trkpt>
      <trkpt lat="46.65867" lon="4.66341">
        <ele>362</ele>
        <time>2014-08-13T12:53:57Z</time>
      </trkpt>
      <trkpt lat="46.65863" lon="4.66337">
        <ele>362</ele>
        <time>2014-08-13T12:54:01Z</time>
      </trkpt>
      <trkpt lat="46.65858" lon="4.66334">
        <ele>361</ele>
        <time>2014-08-13T12:54:05Z</time>
      </trkpt>
      <trkpt lat="46.65856" lon="4.66326">
        <ele>366</ele>
        <time>2014-08-13T12:54:10Z</time>
      </trkpt>
      <trkpt lat="46.65852" lon="4.66323">
        <ele>365</ele>
        <time>2014-08-13T12:54:14Z</time>
      </trkpt>
      <trkpt lat="46.65848" lon="4.66317">
        <ele>365</ele>
        <time>2014-08-13T12:54:21Z</time>
      </trkpt>
      <trkpt lat="46.65846" lon="4.6631">
        <ele>366</ele>
        <time>2014-08-13T12:54:25Z</time>
      </trkpt>
      <trkpt lat="46.65846" lon="4.66303">
        <ele>367</ele>
        <time>2014-08-13T12:54:30Z</time>
      </trkpt>
      <trkpt lat="46.65844" lon="4.66297">
        <ele>368</ele>
        <time>2014-08-13T12:54:33Z</time>
      </trkpt>
      <trkpt lat="46.65834" lon="4.66281">
        <ele>369</ele>
        <time>2014-08-13T12:54:43Z</time>
      </trkpt>
      <trkpt lat="46.65829" lon="4.66276">
        <ele>361</ele>
        <time>2014-08-13T12:54:48Z</time>
      </trkpt>
      <trkpt lat="46.65822" lon="4.66265">
        <ele>363</ele>
        <time>2014-08-13T12:54:56Z</time>
      </trkpt>
      <trkpt lat="46.65817" lon="4.66262">
        <ele>362</ele>
        <time>2014-08-13T12:55:02Z</time>
      </trkpt>
      <trkpt lat="46.65812" lon="4.66258">
        <ele>362</ele>
        <time>2014-08-13T12:55:06Z</time>
      </trkpt>
      <trkpt lat="46.65804" lon="4.66251">
        <ele>361</ele>
        <time>2014-08-13T12:55:12Z</time>
      </trkpt>
      <trkpt lat="46.65796" lon="4.66245">
        <ele>372</ele>
        <time>2014-08-13T12:55:19Z</time>
      </trkpt>
      <trkpt lat="46.65786" lon="4.66246">
        <ele>371</ele>
        <time>2014-08-13T12:55:28Z</time>
      </trkpt>
      <trkpt lat="46.65783" lon="4.6624">
        <ele>371</ele>
        <time>2014-08-13T12:55:31Z</time>
      </trkpt>
      <trkpt lat="46.65778" lon="4.66237">
        <ele>370</ele>
        <time>2014-08-13T12:55:36Z</time>
      </trkpt>
      <trkpt lat="46.65773" lon="4.66237">
        <ele>369</ele>
        <time>2014-08-13T12:55:39Z</time>
      </trkpt>
      <trkpt lat="46.65758" lon="4.66233">
        <ele>368</ele>
        <time>2014-08-13T12:55:51Z</time>
      </trkpt>
      <trkpt lat="46.65753" lon="4.6623">
        <ele>368</ele>
        <time>2014-08-13T12:56:07Z</time>
      </trkpt>
      <trkpt lat="46.65747" lon="4.6623">
        <ele>364</ele>
        <time>2014-08-13T12:56:11Z</time>
      </trkpt>
      <trkpt lat="46.65743" lon="4.66227">
        <ele>365</ele>
        <time>2014-08-13T12:56:16Z</time>
      </trkpt>
      <trkpt lat="46.65738" lon="4.66225">
        <ele>365</ele>
        <time>2014-08-13T12:56:21Z</time>
      </trkpt>
      <trkpt lat="46.65733" lon="4.66224">
        <ele>366</ele>
        <time>2014-08-13T12:56:27Z</time>
      </trkpt>
      <trkpt lat="46.65718" lon="4.66216">
        <ele>367</ele>
        <time>2014-08-13T12:56:41Z</time>
      </trkpt>
      <trkpt lat="46.65715" lon="4.66208">
        <ele>368</ele>
        <time>2014-08-13T12:56:46Z</time>
      </trkpt>
      <trkpt lat="46.65715" lon="4.66198">
        <ele>370</ele>
        <time>2014-08-13T12:56:49Z</time>
      </trkpt>
      <trkpt lat="46.65711" lon="4.66193">
        <ele>370</ele>
        <time>2014-08-13T12:56:54Z</time>
      </trkpt>
      <trkpt lat="46.65682" lon="4.66183">
        <ele>370</ele>
        <time>2014-08-13T12:57:23Z</time>
      </trkpt>
      <trkpt lat="46.65673" lon="4.66179">
        <ele>371</ele>
        <time>2014-08-13T12:57:34Z</time>
      </trkpt>
      <trkpt lat="46.65668" lon="4.66178">
        <ele>372</ele>
        <time>2014-08-13T12:57:39Z</time>
      </trkpt>
      <trkpt lat="46.65663" lon="4.66175">
        <ele>369</ele>
        <time>2014-08-13T12:57:44Z</time>
      </trkpt>
      <trkpt lat="46.65658" lon="4.66173">
        <ele>368</ele>
        <time>2014-08-13T12:57:48Z</time>
      </trkpt>
      <trkpt lat="46.65653" lon="4.6617">
        <ele>367</ele>
        <time>2014-08-13T12:57:52Z</time>
      </trkpt>
      <trkpt lat="46.65638" lon="4.66173">
        <ele>363</ele>
        <time>2014-08-13T12:58:08Z</time>
      </trkpt>
      <trkpt lat="46.65633" lon="4.66174">
        <ele>362</ele>
        <time>2014-08-13T12:58:11Z</time>
      </trkpt>
      <trkpt lat="46.65629" lon="4.66176">
        <ele>361</ele>
        <time>2014-08-13T12:58:15Z</time>
      </trkpt>
      <trkpt lat="46.65623" lon="4.66175">
        <ele>360</ele>
        <time>2014-08-13T12:58:19Z</time>
      </trkpt>
      <trkpt lat="46.65618" lon="4.66174">
        <ele>360</ele>
        <time>2014-08-13T12:58:25Z</time>
      </trkpt>
      <trkpt lat="46.65605" lon="4.66166">
        <ele>367</ele>
        <time>2014-08-13T12:58:38Z</time>
      </trkpt>
      <trkpt lat="46.656" lon="4.66161">
        <ele>366</ele>
        <time>2014-08-13T12:58:41Z</time>
      </trkpt>
      <trkpt lat="46.65594" lon="4.66158">
        <ele>365</ele>
        <time>2014-08-13T12:58:44Z</time>
      </trkpt>
      <trkpt lat="46.65591" lon="4.66153">
        <ele>365</ele>
        <time>2014-08-13T12:58:48Z</time>
      </trkpt>
      <trkpt lat="46.65587" lon="4.66148">
        <ele>367</ele>
        <time>2014-08-13T12:58:53Z</time>
      </trkpt>
      <trkpt lat="46.65581" lon="4.66145">
        <ele>359</ele>
        <time>2014-08-13T12:58:57Z</time>
      </trkpt>
      <trkpt lat="46.65577" lon="4.6614">
        <ele>359</ele>
        <time>2014-08-13T12:59:01Z</time>
      </trkpt>
      <trkpt lat="46.65573" lon="4.66134">
        <ele>359</ele>
        <time>2014-08-13T12:59:05Z</time>
      </trkpt>
      <trkpt lat="46.65567" lon="4.66132">
        <ele>359</ele>
        <time>2014-08-13T12:59:09Z</time>
      </trkpt>
      <trkpt lat="46.6556" lon="4.66122">
        <ele>360</ele>
        <time>2014-08-13T12:59:18Z</time>
      </trkpt>
      <trkpt lat="46.65555" lon="4.66119">
        <ele>359</ele>
        <time>2014-08-13T12:59:22Z</time>
      </trkpt>
      <trkpt lat="46.65551" lon="4.66115">
        <ele>359</ele>
        <time>2014-08-13T12:59:26Z</time>
      </trkpt>
      <trkpt lat="46.65546" lon="4.66111">
        <ele>359</ele>
        <time>2014-08-13T12:59:30Z</time>
      </trkpt>
      <trkpt lat="46.65543" lon="4.66107">
        <ele>359</ele>
        <time>2014-08-13T12:59:34Z</time>
      </trkpt>
      <trkpt lat="46.65522" lon="4.66082">
        <ele>364</ele>
        <time>2014-08-13T12:59:54Z</time>
      </trkpt>
      <trkpt lat="46.65518" lon="4.66078">
        <ele>363</ele>
        <time>2014-08-13T12:59:58Z</time>
      </trkpt>
      <trkpt lat="46.65513" lon="4.66073">
        <ele>362</ele>
        <time>2014-08-13T13:00:03Z</time>
      </trkpt>
      <trkpt lat="46.65501" lon="4.66057">
        <ele>365</ele>
        <time>2014-08-13T13:00:15Z</time>
      </trkpt>
      <trkpt lat="46.65498" lon="4.66051">
        <ele>353</ele>
        <time>2014-08-13T13:00:19Z</time>
      </trkpt>
      <trkpt lat="46.65489" lon="4.66036">
        <ele>354</ele>
        <time>2014-08-13T13:00:32Z</time>
      </trkpt>
      <trkpt lat="46.65483" lon="4.66024">
        <ele>355</ele>
        <time>2014-08-13T13:00:38Z</time>
      </trkpt>
      <trkpt lat="46.65479" lon="4.66012">
        <ele>356</ele>
        <time>2014-08-13T13:00:45Z</time>
      </trkpt>
      <trkpt lat="46.65477" lon="4.66006">
        <ele>356</ele>
        <time>2014-08-13T13:00:49Z</time>
      </trkpt>
      <trkpt lat="46.65473" lon="4.66001">
        <ele>355</ele>
        <time>2014-08-13T13:00:52Z</time>
      </trkpt>
      <trkpt lat="46.6547" lon="4.65996">
        <ele>359</ele>
        <time>2014-08-13T13:00:56Z</time>
      </trkpt>
      <trkpt lat="46.6547" lon="4.65988">
        <ele>360</ele>
        <time>2014-08-13T13:01:01Z</time>
      </trkpt>
      <trkpt lat="46.65467" lon="4.65982">
        <ele>359</ele>
        <time>2014-08-13T13:01:04Z</time>
      </trkpt>
      <trkpt lat="46.65462" lon="4.65968">
        <ele>359</ele>
        <time>2014-08-13T13:01:11Z</time>
      </trkpt>
      <trkpt lat="46.65459" lon="4.65963">
        <ele>358</ele>
        <time>2014-08-13T13:01:15Z</time>
      </trkpt>
      <trkpt lat="46.65454" lon="4.65949">
        <ele>358</ele>
        <time>2014-08-13T13:01:23Z</time>
      </trkpt>
      <trkpt lat="46.6545" lon="4.65945">
        <ele>358</ele>
        <time>2014-08-13T13:01:27Z</time>
      </trkpt>
      <trkpt lat="46.65446" lon="4.65941">
        <ele>357</ele>
        <time>2014-08-13T13:01:30Z</time>
      </trkpt>
      <trkpt lat="46.65442" lon="4.65936">
        <ele>356</ele>
        <time>2014-08-13T13:01:36Z</time>
      </trkpt>
      <trkpt lat="46.65438" lon="4.65933">
        <ele>355</ele>
        <time>2014-08-13T13:01:40Z</time>
      </trkpt>
      <trkpt lat="46.65432" lon="4.65918">
        <ele>353</ele>
        <time>2014-08-13T13:01:49Z</time>
      </trkpt>
      <trkpt lat="46.65426" lon="4.65907">
        <ele>355</ele>
        <time>2014-08-13T13:01:57Z</time>
      </trkpt>
      <trkpt lat="46.65425" lon="4.65899">
        <ele>358</ele>
        <time>2014-08-13T13:02:01Z</time>
      </trkpt>
      <trkpt lat="46.65424" lon="4.65891">
        <ele>359</ele>
        <time>2014-08-13T13:02:05Z</time>
      </trkpt>
      <trkpt lat="46.65422" lon="4.65869">
        <ele>361</ele>
        <time>2014-08-13T13:02:16Z</time>
      </trkpt>
      <trkpt lat="46.65421" lon="4.65861">
        <ele>361</ele>
        <time>2014-08-13T13:02:23Z</time>
      </trkpt>
      <trkpt lat="46.65412" lon="4.65827">
        <ele>351</ele>
        <time>2014-08-13T13:02:46Z</time>
      </trkpt>
      <trkpt lat="46.65409" lon="4.65823">
        <ele>349</ele>
        <time>2014-08-13T13:02:53Z</time>
      </trkpt>
      <trkpt lat="46.65406" lon="4.65817">
        <ele>348</ele>
        <time>2014-08-13T13:02:57Z</time>
      </trkpt>
      <trkpt lat="46.65404" lon="4.6581">
        <ele>347</ele>
        <time>2014-08-13T13:03:00Z</time>
      </trkpt>
      <trkpt lat="46.65402" lon="4.65803">
        <ele>346</ele>
        <time>2014-08-13T13:03:03Z</time>
      </trkpt>
      <trkpt lat="46.654" lon="4.65796">
        <ele>346</ele>
        <time>2014-08-13T13:03:06Z</time>
      </trkpt>
      <trkpt lat="46.65395" lon="4.65792">
        <ele>345</ele>
        <time>2014-08-13T13:03:10Z</time>
      </trkpt>
      <trkpt lat="46.65397" lon="4.65784">
        <ele>346</ele>
        <time>2014-08-13T13:03:15Z</time>
      </trkpt>
      <trkpt lat="46.65393" lon="4.6577">
        <ele>346</ele>
        <time>2014-08-13T13:03:22Z</time>
      </trkpt>
      <trkpt lat="46.65391" lon="4.65764">
        <ele>346</ele>
        <time>2014-08-13T13:03:27Z</time>
      </trkpt>
      <trkpt lat="46.6539" lon="4.65757">
        <ele>347</ele>
        <time>2014-08-13T13:03:33Z</time>
      </trkpt>
      <trkpt lat="46.65386" lon="4.65706">
        <ele>345</ele>
        <time>2014-08-13T13:04:04Z</time>
      </trkpt>
      <trkpt lat="46.65386" lon="4.65698">
        <ele>345</ele>
        <time>2014-08-13T13:04:08Z</time>
      </trkpt>
      <trkpt lat="46.65386" lon="4.6569">
        <ele>345</ele>
        <time>2014-08-13T13:04:12Z</time>
      </trkpt>
      <trkpt lat="46.65388" lon="4.65675">
        <ele>346</ele>
        <time>2014-08-13T13:04:25Z</time>
      </trkpt>
      <trkpt lat="46.65388" lon="4.65667">
        <ele>346</ele>
        <time>2014-08-13T13:04:30Z</time>
      </trkpt>
      <trkpt lat="46.65383" lon="4.65644">
        <ele>342</ele>
        <time>2014-08-13T13:05:01Z</time>
      </trkpt>
      <trkpt lat="46.65385" lon="4.65642">
        <ele>342</ele>
        <time>2014-08-13T13:05:07Z</time>
      </trkpt>
      <trkpt lat="46.65383" lon="4.65636">
        <ele>341</ele>
        <time>2014-08-13T13:05:22Z</time>
      </trkpt>
      <trkpt lat="46.65387" lon="4.6561">
        <ele>341</ele>
        <time>2014-08-13T13:05:54Z</time>
      </trkpt>
      <trkpt lat="46.65393" lon="4.65575">
        <ele>339</ele>
        <time>2014-08-13T13:06:17Z</time>
      </trkpt>
      <trkpt lat="46.65389" lon="4.65547">
        <ele>336</ele>
        <time>2014-08-13T13:06:34Z</time>
      </trkpt>
      <trkpt lat="46.65387" lon="4.65539">
        <ele>336</ele>
        <time>2014-08-13T13:06:38Z</time>
      </trkpt>
      <trkpt lat="46.65381" lon="4.6551">
        <ele>334</ele>
        <time>2014-08-13T13:06:54Z</time>
      </trkpt>
      <trkpt lat="46.65368" lon="4.65498">
        <ele>333</ele>
        <time>2014-08-13T13:07:03Z</time>
      </trkpt>
      <trkpt lat="46.65363" lon="4.65496">
        <ele>332</ele>
        <time>2014-08-13T13:07:06Z</time>
      </trkpt>
      <trkpt lat="46.65349" lon="4.6549">
        <ele>329</ele>
        <time>2014-08-13T13:07:17Z</time>
      </trkpt>
      <trkpt lat="46.65345" lon="4.65492">
        <ele>327</ele>
        <time>2014-08-13T13:07:26Z</time>
      </trkpt>
      <trkpt lat="46.65339" lon="4.65493">
        <ele>325</ele>
        <time>2014-08-13T13:07:29Z</time>
      </trkpt>
      <trkpt lat="46.65337" lon="4.65488">
        <ele>326</ele>
        <time>2014-08-13T13:07:41Z</time>
      </trkpt>
      <trkpt lat="46.65336" lon="4.65487">
        <ele>326</ele>
        <time>2014-08-13T13:08:01Z</time>
      </trkpt>
      <trkpt lat="46.65331" lon="4.65484">
        <ele>319</ele>
        <time>2014-08-13T13:08:04Z</time>
      </trkpt>
      <trkpt lat="46.65326" lon="4.65481">
        <ele>319</ele>
        <time>2014-08-13T13:08:07Z</time>
      </trkpt>
      <trkpt lat="46.65321" lon="4.6548">
        <ele>318</ele>
        <time>2014-08-13T13:08:10Z</time>
      </trkpt>
      <trkpt lat="46.65317" lon="4.65475">
        <ele>318</ele>
        <time>2014-08-13T13:08:14Z</time>
      </trkpt>
      <trkpt lat="46.65305" lon="4.65462">
        <ele>318</ele>
        <time>2014-08-13T13:08:24Z</time>
      </trkpt>
      <trkpt lat="46.65295" lon="4.65457">
        <ele>318</ele>
        <time>2014-08-13T13:08:35Z</time>
      </trkpt>
      <trkpt lat="46.6529" lon="4.65456">
        <ele>318</ele>
        <time>2014-08-13T13:08:40Z</time>
      </trkpt>
      <trkpt lat="46.65286" lon="4.65456">
        <ele>317</ele>
        <time>2014-08-13T13:08:44Z</time>
      </trkpt>
      <trkpt lat="46.65274" lon="4.65453">
        <ele>316</ele>
        <time>2014-08-13T13:08:50Z</time>
      </trkpt>
      <trkpt lat="46.65269" lon="4.6545">
        <ele>316</ele>
        <time>2014-08-13T13:08:54Z</time>
      </trkpt>
      <trkpt lat="46.65243" lon="4.65441">
        <ele>309</ele>
        <time>2014-08-13T13:09:13Z</time>
      </trkpt>
      <trkpt lat="46.6524" lon="4.65436">
        <ele>309</ele>
        <time>2014-08-13T13:09:16Z</time>
      </trkpt>
      <trkpt lat="46.65235" lon="4.65433">
        <ele>309</ele>
        <time>2014-08-13T13:09:22Z</time>
      </trkpt>
      <trkpt lat="46.65224" lon="4.65433">
        <ele>308</ele>
        <time>2014-08-13T13:09:31Z</time>
      </trkpt>
      <trkpt lat="46.65219" lon="4.65435">
        <ele>307</ele>
        <time>2014-08-13T13:09:34Z</time>
      </trkpt>
      <trkpt lat="46.65214" lon="4.65433">
        <ele>307</ele>
        <time>2014-08-13T13:09:39Z</time>
      </trkpt>
      <trkpt lat="46.6521" lon="4.65434">
        <ele>307</ele>
        <time>2014-08-13T13:09:47Z</time>
      </trkpt>
      <trkpt lat="46.652" lon="4.65429">
        <ele>306</ele>
        <time>2014-08-13T13:09:55Z</time>
      </trkpt>
      <trkpt lat="46.65195" lon="4.65431">
        <ele>306</ele>
        <time>2014-08-13T13:09:58Z</time>
      </trkpt>
      <trkpt lat="46.65185" lon="4.65429">
        <ele>306</ele>
        <time>2014-08-13T13:10:07Z</time>
      </trkpt>
      <trkpt lat="46.6518" lon="4.6543">
        <ele>306</ele>
        <time>2014-08-13T13:10:11Z</time>
      </trkpt>
      <trkpt lat="46.65171" lon="4.65434">
        <ele>305</ele>
        <time>2014-08-13T13:10:18Z</time>
      </trkpt>
      <trkpt lat="46.65152" lon="4.65446">
        <ele>300</ele>
        <time>2014-08-13T13:10:39Z</time>
      </trkpt>
      <trkpt lat="46.65147" lon="4.65446">
        <ele>299</ele>
        <time>2014-08-13T13:10:42Z</time>
      </trkpt>
      <trkpt lat="46.65142" lon="4.65445">
        <ele>299</ele>
        <time>2014-08-13T13:10:45Z</time>
      </trkpt>
      <trkpt lat="46.65139" lon="4.6545">
        <ele>299</ele>
        <time>2014-08-13T13:10:48Z</time>
      </trkpt>
      <trkpt lat="46.65141" lon="4.65454">
        <ele>298</ele>
        <time>2014-08-13T13:10:55Z</time>
      </trkpt>
      <trkpt lat="46.6514" lon="4.65452">
        <ele>299</ele>
        <time>2014-08-13T13:11:21Z</time>
      </trkpt>
      <trkpt lat="46.65136" lon="4.65453">
        <ele>298</ele>
        <time>2014-08-13T13:11:32Z</time>
      </trkpt>
      <trkpt lat="46.65136" lon="4.65449">
        <ele>299</ele>
        <time>2014-08-13T13:11:56Z</time>
      </trkpt>
      <trkpt lat="46.65139" lon="4.65446">
        <ele>299</ele>
        <time>2014-08-13T13:12:08Z</time>
      </trkpt>
      <trkpt lat="46.65144" lon="4.65443">
        <ele>299</ele>
        <time>2014-08-13T13:12:31Z</time>
      </trkpt>
      <trkpt lat="46.65146" lon="4.65447">
        <ele>299</ele>
        <time>2014-08-13T13:13:03Z</time>
      </trkpt>
      <trkpt lat="46.65146" lon="4.65454">
        <ele>299</ele>
        <time>2014-08-13T13:13:11Z</time>
      </trkpt>
      <trkpt lat="46.65147" lon="4.65459">
        <ele>298</ele>
        <time>2014-08-13T13:13:27Z</time>
      </trkpt>
      <trkpt lat="46.6515" lon="4.65461">
        <ele>298</ele>
        <time>2014-08-13T13:13:38Z</time>
      </trkpt>
      <trkpt lat="46.65147" lon="4.65465">
        <ele>298</ele>
        <time>2014-08-13T13:13:59Z</time>
      </trkpt>
      <trkpt lat="46.65143" lon="4.6546">
        <ele>298</ele>
        <time>2014-08-13T13:15:42Z</time>
      </trkpt>
      <trkpt lat="46.6514" lon="4.65455">
        <ele>298</ele>
        <time>2014-08-13T13:17:18Z</time>
      </trkpt>
      <trkpt lat="46.65138" lon="4.65454">
        <ele>298</ele>
        <time>2014-08-13T13:22:39Z</time>
      </trkpt>
      <trkpt lat="46.65144" lon="4.65451">
        <ele>299</ele>
        <time>2014-08-13T13:24:10Z</time>
      </trkpt>
      <trkpt lat="46.6514" lon="4.65445">
        <ele>299</ele>
        <time>2014-08-13T13:24:26Z</time>
      </trkpt>
      <trkpt lat="46.65135" lon="4.65446">
        <ele>299</ele>
        <time>2014-08-13T13:26:23Z</time>
      </trkpt>
      <trkpt lat="46.65138" lon="4.6545">
        <ele>299</ele>
        <time>2014-08-13T13:29:10Z</time>
      </trkpt>
      <trkpt lat="46.6514" lon="4.65454">
        <ele>298</ele>
        <time>2014-08-13T13:30:08Z</time>
      </trkpt>
      <trkpt lat="46.65135" lon="4.65459">
        <ele>298</ele>
        <time>2014-08-13T13:30:17Z</time>
      </trkpt>
      <trkpt lat="46.65134" lon="4.65463">
        <ele>298</ele>
        <time>2014-08-13T13:30:24Z</time>
      </trkpt>
      <trkpt lat="46.65135" lon="4.65465">
        <ele>298</ele>
        <time>2014-08-13T13:30:46Z</time>
      </trkpt>
      <trkpt lat="46.65139" lon="4.65468">
        <ele>297</ele>
        <time>2014-08-13T13:30:51Z</time>
      </trkpt>
      <trkpt lat="46.65139" lon="4.65462">
        <ele>298</ele>
        <time>2014-08-13T13:31:14Z</time>
      </trkpt>
      <trkpt lat="46.65139" lon="4.65454">
        <ele>298</ele>
        <time>2014-08-13T13:31:30Z</time>
      </trkpt>
      <trkpt lat="46.65135" lon="4.65451">
        <ele>298</ele>
        <time>2014-08-13T13:31:39Z</time>
      </trkpt>
      <trkpt lat="46.65106" lon="4.65446">
        <ele>298</ele>
        <time>2014-08-13T13:31:59Z</time>
      </trkpt>
      <trkpt lat="46.65101" lon="4.6545">
        <ele>297</ele>
        <time>2014-08-13T13:32:04Z</time>
      </trkpt>
      <trkpt lat="46.65083" lon="4.65483">
        <ele>289</ele>
        <time>2014-08-13T13:32:25Z</time>
      </trkpt>
      <trkpt lat="46.65072" lon="4.65495">
        <ele>289</ele>
        <time>2014-08-13T13:32:42Z</time>
      </trkpt>
      <trkpt lat="46.65068" lon="4.65491">
        <ele>289</ele>
        <time>2014-08-13T13:32:52Z</time>
      </trkpt>
      <trkpt lat="46.65059" lon="4.65484">
        <ele>289</ele>
        <time>2014-08-13T13:33:01Z</time>
      </trkpt>
      <trkpt lat="46.65056" lon="4.65485">
        <ele>289</ele>
        <time>2014-08-13T13:33:09Z</time>
      </trkpt>
      <trkpt lat="46.65053" lon="4.65488">
        <ele>288</ele>
        <time>2014-08-13T13:33:28Z</time>
      </trkpt>
      <trkpt lat="46.65049" lon="4.65482">
        <ele>288</ele>
        <time>2014-08-13T13:33:30Z</time>
      </trkpt>
      <trkpt lat="46.65035" lon="4.6547">
        <ele>288</ele>
        <time>2014-08-13T13:33:38Z</time>
      </trkpt>
      <trkpt lat="46.65031" lon="4.6547">
        <ele>288</ele>
        <time>2014-08-13T13:33:45Z</time>
      </trkpt>
      <trkpt lat="46.65027" lon="4.65475">
        <ele>287</ele>
        <time>2014-08-13T13:33:51Z</time>
      </trkpt>
      <trkpt lat="46.65028" lon="4.65471">
        <ele>287</ele>
        <time>2014-08-13T13:34:42Z</time>
      </trkpt>
      <trkpt lat="46.65026" lon="4.6547">
        <ele>287</ele>
        <time>2014-08-13T13:35:01Z</time>
      </trkpt>
      <trkpt lat="46.65021" lon="4.65471">
        <ele>287</ele>
        <time>2014-08-13T13:35:13Z</time>
      </trkpt>
      <trkpt lat="46.65016" lon="4.65468">
        <ele>287</ele>
        <time>2014-08-13T13:35:18Z</time>
      </trkpt>
      <trkpt lat="46.65006" lon="4.65458">
        <ele>287</ele>
        <time>2014-08-13T13:35:34Z</time>
      </trkpt>
      <trkpt lat="46.65007" lon="4.65452">
        <ele>287</ele>
        <time>2014-08-13T13:35:40Z</time>
      </trkpt>
      <trkpt lat="46.65002" lon="4.65453">
        <ele>287</ele>
        <time>2014-08-13T13:35:43Z</time>
      </trkpt>
      <trkpt lat="46.64996" lon="4.65454">
        <ele>283</ele>
        <time>2014-08-13T13:35:46Z</time>
      </trkpt>
      <trkpt lat="46.64975" lon="4.65447">
        <ele>283</ele>
        <time>2014-08-13T13:36:00Z</time>
      </trkpt>
      <trkpt lat="46.6497" lon="4.65447">
        <ele>283</ele>
        <time>2014-08-13T13:36:06Z</time>
      </trkpt>
      <trkpt lat="46.6496" lon="4.65446">
        <ele>283</ele>
        <time>2014-08-13T13:36:13Z</time>
      </trkpt>
      <trkpt lat="46.64946" lon="4.6544">
        <ele>283</ele>
        <time>2014-08-13T13:36:30Z</time>
      </trkpt>
      <trkpt lat="46.64936" lon="4.65435">
        <ele>283</ele>
        <time>2014-08-13T13:36:41Z</time>
      </trkpt>
      <trkpt lat="46.64931" lon="4.65431">
        <ele>283</ele>
        <time>2014-08-13T13:36:45Z</time>
      </trkpt>
      <trkpt lat="46.64927" lon="4.65429">
        <ele>283</ele>
        <time>2014-08-13T13:36:50Z</time>
      </trkpt>
      <trkpt lat="46.64922" lon="4.65428">
        <ele>283</ele>
        <time>2014-08-13T13:36:54Z</time>
      </trkpt>
      <trkpt lat="46.64912" lon="4.65426">
        <ele>285</ele>
        <time>2014-08-13T13:37:02Z</time>
      </trkpt>
      <trkpt lat="46.64902" lon="4.65423">
        <ele>286</ele>
        <time>2014-08-13T13:37:11Z</time>
      </trkpt>
      <trkpt lat="46.64897" lon="4.65423">
        <ele>286</ele>
        <time>2014-08-13T13:37:16Z</time>
      </trkpt>
      <trkpt lat="46.64892" lon="4.65423">
        <ele>287</ele>
        <time>2014-08-13T13:37:21Z</time>
      </trkpt>
      <trkpt lat="46.64887" lon="4.65425">
        <ele>287</ele>
        <time>2014-08-13T13:37:26Z</time>
      </trkpt>
      <trkpt lat="46.64882" lon="4.65423">
        <ele>288</ele>
        <time>2014-08-13T13:37:31Z</time>
      </trkpt>
      <trkpt lat="46.64878" lon="4.65422">
        <ele>288</ele>
        <time>2014-08-13T13:37:35Z</time>
      </trkpt>
      <trkpt lat="46.64873" lon="4.65422">
        <ele>289</ele>
        <time>2014-08-13T13:37:39Z</time>
      </trkpt>
      <trkpt lat="46.64869" lon="4.65419">
        <ele>290</ele>
        <time>2014-08-13T13:37:43Z</time>
      </trkpt>
      <trkpt lat="46.64864" lon="4.65416">
        <ele>296</ele>
        <time>2014-08-13T13:37:47Z</time>
      </trkpt>
      <trkpt lat="46.64861" lon="4.65421">
        <ele>291</ele>
        <time>2014-08-13T13:37:53Z</time>
      </trkpt>
      <trkpt lat="46.64846" lon="4.65428">
        <ele>293</ele>
        <time>2014-08-13T13:38:07Z</time>
      </trkpt>
      <trkpt lat="46.64841" lon="4.6543">
        <ele>293</ele>
        <time>2014-08-13T13:38:12Z</time>
      </trkpt>
      <trkpt lat="46.64837" lon="4.65435">
        <ele>293</ele>
        <time>2014-08-13T13:38:17Z</time>
      </trkpt>
      <trkpt lat="46.64832" lon="4.6544">
        <ele>302</ele>
        <time>2014-08-13T13:38:21Z</time>
      </trkpt>
      <trkpt lat="46.64829" lon="4.65446">
        <ele>302</ele>
        <time>2014-08-13T13:38:25Z</time>
      </trkpt>
      <trkpt lat="46.64825" lon="4.65449">
        <ele>302</ele>
        <time>2014-08-13T13:38:33Z</time>
      </trkpt>
      <trkpt lat="46.64818" lon="4.6546">
        <ele>302</ele>
        <time>2014-08-13T13:38:41Z</time>
      </trkpt>
      <trkpt lat="46.64812" lon="4.6547">
        <ele>302</ele>
        <time>2014-08-13T13:38:48Z</time>
      </trkpt>
      <trkpt lat="46.64802" lon="4.65485">
        <ele>302</ele>
        <time>2014-08-13T13:39:04Z</time>
      </trkpt>
      <trkpt lat="46.64799" lon="4.65491">
        <ele>302</ele>
        <time>2014-08-13T13:39:08Z</time>
      </trkpt>
      <trkpt lat="46.64795" lon="4.65496">
        <ele>303</ele>
        <time>2014-08-13T13:39:12Z</time>
      </trkpt>
      <trkpt lat="46.64784" lon="4.65513">
        <ele>299</ele>
        <time>2014-08-13T13:39:24Z</time>
      </trkpt>
      <trkpt lat="46.6478" lon="4.65517">
        <ele>299</ele>
        <time>2014-08-13T13:39:30Z</time>
      </trkpt>
      <trkpt lat="46.64775" lon="4.65521">
        <ele>300</ele>
        <time>2014-08-13T13:39:35Z</time>
      </trkpt>
      <trkpt lat="46.64772" lon="4.65526">
        <ele>300</ele>
        <time>2014-08-13T13:39:40Z</time>
      </trkpt>
      <trkpt lat="46.6476" lon="4.6555">
        <ele>299</ele>
        <time>2014-08-13T13:39:57Z</time>
      </trkpt>
      <trkpt lat="46.64738" lon="4.65602">
        <ele>302</ele>
        <time>2014-08-13T13:40:29Z</time>
      </trkpt>
      <trkpt lat="46.64718" lon="4.65636">
        <ele>302</ele>
        <time>2014-08-13T13:41:00Z</time>
      </trkpt>
      <trkpt lat="46.64715" lon="4.65642">
        <ele>303</ele>
        <time>2014-08-13T13:41:05Z</time>
      </trkpt>
      <trkpt lat="46.64711" lon="4.65647">
        <ele>303</ele>
        <time>2014-08-13T13:41:10Z</time>
      </trkpt>
      <trkpt lat="46.64707" lon="4.65651">
        <ele>303</ele>
        <time>2014-08-13T13:41:14Z</time>
      </trkpt>
      <trkpt lat="46.64702" lon="4.65655">
        <ele>304</ele>
        <time>2014-08-13T13:41:19Z</time>
      </trkpt>
      <trkpt lat="46.64698" lon="4.65659">
        <ele>304</ele>
        <time>2014-08-13T13:41:24Z</time>
      </trkpt>
      <trkpt lat="46.64694" lon="4.65665">
        <ele>304</ele>
        <time>2014-08-13T13:41:28Z</time>
      </trkpt>
      <trkpt lat="46.64672" lon="4.65705">
        <ele>300</ele>
        <time>2014-08-13T13:41:59Z</time>
      </trkpt>
      <trkpt lat="46.64669" lon="4.6571">
        <ele>300</ele>
        <time>2014-08-13T13:42:03Z</time>
      </trkpt>
      <trkpt lat="46.64657" lon="4.65724">
        <ele>307</ele>
        <time>2014-08-13T13:42:20Z</time>
      </trkpt>
      <trkpt lat="46.64648" lon="4.65729">
        <ele>307</ele>
        <time>2014-08-13T13:42:32Z</time>
      </trkpt>
      <trkpt lat="46.64644" lon="4.65733">
        <ele>307</ele>
        <time>2014-08-13T13:42:36Z</time>
      </trkpt>
      <trkpt lat="46.6464" lon="4.65739">
        <ele>307</ele>
        <time>2014-08-13T13:42:41Z</time>
      </trkpt>
      <trkpt lat="46.64629" lon="4.65751">
        <ele>304</ele>
        <time>2014-08-13T13:42:56Z</time>
      </trkpt>
      <trkpt lat="46.6462" lon="4.65761">
        <ele>305</ele>
        <time>2014-08-13T13:43:03Z</time>
      </trkpt>
      <trkpt lat="46.64616" lon="4.65765">
        <ele>305</ele>
        <time>2014-08-13T13:43:06Z</time>
      </trkpt>
      <trkpt lat="46.64608" lon="4.65774">
        <ele>305</ele>
        <time>2014-08-13T13:43:15Z</time>
      </trkpt>
      <trkpt lat="46.64581" lon="4.65791">
        <ele>312</ele>
        <time>2014-08-13T13:43:38Z</time>
      </trkpt>
      <trkpt lat="46.64577" lon="4.65795">
        <ele>312</ele>
        <time>2014-08-13T13:43:41Z</time>
      </trkpt>
      <trkpt lat="46.64568" lon="4.65806">
        <ele>312</ele>
        <time>2014-08-13T13:43:50Z</time>
      </trkpt>
      <trkpt lat="46.64544" lon="4.65822">
        <ele>314</ele>
        <time>2014-08-13T13:44:14Z</time>
      </trkpt>
      <trkpt lat="46.6454" lon="4.65826">
        <ele>314</ele>
        <time>2014-08-13T13:44:18Z</time>
      </trkpt>
      <trkpt lat="46.64535" lon="4.65831">
        <ele>314</ele>
        <time>2014-08-13T13:44:22Z</time>
      </trkpt>
      <trkpt lat="46.64527" lon="4.65831">
        <ele>315</ele>
        <time>2014-08-13T13:44:33Z</time>
      </trkpt>
      <trkpt lat="46.64522" lon="4.65834">
        <ele>312</ele>
        <time>2014-08-13T13:44:39Z</time>
      </trkpt>
      <trkpt lat="46.64517" lon="4.65833">
        <ele>316</ele>
        <time>2014-08-13T13:44:43Z</time>
      </trkpt>
      <trkpt lat="46.64513" lon="4.65836">
        <ele>314</ele>
        <time>2014-08-13T13:44:47Z</time>
      </trkpt>
      <trkpt lat="46.64507" lon="4.65848">
        <ele>313</ele>
        <time>2014-08-13T13:44:54Z</time>
      </trkpt>
      <trkpt lat="46.64502" lon="4.65851">
        <ele>313</ele>
        <time>2014-08-13T13:44:59Z</time>
      </trkpt>
      <trkpt lat="46.64497" lon="4.65853">
        <ele>318</ele>
        <time>2014-08-13T13:45:04Z</time>
      </trkpt>
      <trkpt lat="46.64493" lon="4.65856">
        <ele>318</ele>
        <time>2014-08-13T13:45:11Z</time>
      </trkpt>
      <trkpt lat="46.64488" lon="4.65856">
        <ele>318</ele>
        <time>2014-08-13T13:45:15Z</time>
      </trkpt>
      <trkpt lat="46.64482" lon="4.65856">
        <ele>318</ele>
        <time>2014-08-13T13:45:19Z</time>
      </trkpt>
      <trkpt lat="46.64476" lon="4.65857">
        <ele>319</ele>
        <time>2014-08-13T13:45:23Z</time>
      </trkpt>
      <trkpt lat="46.64471" lon="4.65858">
        <ele>319</ele>
        <time>2014-08-13T13:45:28Z</time>
      </trkpt>
      <trkpt lat="46.64437" lon="4.65867">
        <ele>321</ele>
        <time>2014-08-13T13:45:59Z</time>
      </trkpt>
      <trkpt lat="46.64433" lon="4.6587">
        <ele>321</ele>
        <time>2014-08-13T13:46:04Z</time>
      </trkpt>
      <trkpt lat="46.64429" lon="4.65872">
        <ele>321</ele>
        <time>2014-08-13T13:46:08Z</time>
      </trkpt>
      <trkpt lat="46.64393" lon="4.65883">
        <ele>329</ele>
        <time>2014-08-13T13:46:40Z</time>
      </trkpt>
      <trkpt lat="46.64388" lon="4.65885">
        <ele>329</ele>
        <time>2014-08-13T13:46:45Z</time>
      </trkpt>
      <trkpt lat="46.64378" lon="4.65889">
        <ele>330</ele>
        <time>2014-08-13T13:46:55Z</time>
      </trkpt>
      <trkpt lat="46.64373" lon="4.6589">
        <ele>330</ele>
        <time>2014-08-13T13:46:59Z</time>
      </trkpt>
      <trkpt lat="46.64367" lon="4.65891">
        <ele>331</ele>
        <time>2014-08-13T13:47:04Z</time>
      </trkpt>
      <trkpt lat="46.64362" lon="4.6589">
        <ele>331</ele>
        <time>2014-08-13T13:47:09Z</time>
      </trkpt>
      <trkpt lat="46.64357" lon="4.65891">
        <ele>332</ele>
        <time>2014-08-13T13:47:13Z</time>
      </trkpt>
      <trkpt lat="46.64353" lon="4.65894">
        <ele>332</ele>
        <time>2014-08-13T13:47:17Z</time>
      </trkpt>
      <trkpt lat="46.64344" lon="4.65902">
        <ele>332</ele>
        <time>2014-08-13T13:47:23Z</time>
      </trkpt>
      <trkpt lat="46.6434" lon="4.65899">
        <ele>333</ele>
        <time>2014-08-13T13:47:28Z</time>
      </trkpt>
      <trkpt lat="46.64335" lon="4.65899">
        <ele>333</ele>
        <time>2014-08-13T13:47:33Z</time>
      </trkpt>
      <trkpt lat="46.64331" lon="4.65897">
        <ele>337</ele>
        <time>2014-08-13T13:47:42Z</time>
      </trkpt>
      <trkpt lat="46.64333" lon="4.65893">
        <ele>338</ele>
        <time>2014-08-13T13:47:55Z</time>
      </trkpt>
      <trkpt lat="46.64334" lon="4.65887">
        <ele>333</ele>
        <time>2014-08-13T13:48:01Z</time>
      </trkpt>
      <trkpt lat="46.64331" lon="4.65887">
        <ele>338</ele>
        <time>2014-08-13T13:49:21Z</time>
      </trkpt>
      <trkpt lat="46.64325" lon="4.65892">
        <ele>338</ele>
        <time>2014-08-13T13:49:55Z</time>
      </trkpt>
      <trkpt lat="46.64321" lon="4.65896">
        <ele>338</ele>
        <time>2014-08-13T13:50:03Z</time>
      </trkpt>
      <trkpt lat="46.64316" lon="4.65898">
        <ele>338</ele>
        <time>2014-08-13T13:50:08Z</time>
      </trkpt>
      <trkpt lat="46.64293" lon="4.65913">
        <ele>339</ele>
        <time>2014-08-13T13:50:27Z</time>
      </trkpt>
      <trkpt lat="46.64283" lon="4.65919">
        <ele>336</ele>
        <time>2014-08-13T13:50:38Z</time>
      </trkpt>
      <trkpt lat="46.64278" lon="4.65921">
        <ele>337</ele>
        <time>2014-08-13T13:50:41Z</time>
      </trkpt>
      <trkpt lat="46.64279" lon="4.65929">
        <ele>336</ele>
        <time>2014-08-13T13:50:45Z</time>
      </trkpt>
      <trkpt lat="46.64279" lon="4.65936">
        <ele>336</ele>
        <time>2014-08-13T13:50:48Z</time>
      </trkpt>
      <trkpt lat="46.64275" lon="4.65936">
        <ele>336</ele>
        <time>2014-08-13T13:50:51Z</time>
      </trkpt>
      <trkpt lat="46.64234" lon="4.65932">
        <ele>340</ele>
        <time>2014-08-13T13:51:22Z</time>
      </trkpt>
      <trkpt lat="46.64219" lon="4.65935">
        <ele>340</ele>
        <time>2014-08-13T13:51:34Z</time>
      </trkpt>
      <trkpt lat="46.64214" lon="4.65933">
        <ele>340</ele>
        <time>2014-08-13T13:51:39Z</time>
      </trkpt>
      <trkpt lat="46.64199" lon="4.65931">
        <ele>341</ele>
        <time>2014-08-13T13:51:51Z</time>
      </trkpt>
      <trkpt lat="46.64188" lon="4.65932">
        <ele>341</ele>
        <time>2014-08-13T13:52:00Z</time>
      </trkpt>
      <trkpt lat="46.64183" lon="4.65932">
        <ele>341</ele>
        <time>2014-08-13T13:52:04Z</time>
      </trkpt>
      <trkpt lat="46.64178" lon="4.65933">
        <ele>341</ele>
        <time>2014-08-13T13:52:08Z</time>
      </trkpt>
      <trkpt lat="46.64174" lon="4.6593">
        <ele>341</ele>
        <time>2014-08-13T13:52:13Z</time>
      </trkpt>
      <trkpt lat="46.64165" lon="4.65926">
        <ele>342</ele>
        <time>2014-08-13T13:52:19Z</time>
      </trkpt>
      <trkpt lat="46.64163" lon="4.65928">
        <ele>341</ele>
        <time>2014-08-13T13:52:38Z</time>
      </trkpt>
      <trkpt lat="46.64161" lon="4.65924">
        <ele>342</ele>
        <time>2014-08-13T13:53:01Z</time>
      </trkpt>
      <trkpt lat="46.64132" lon="4.65905">
        <ele>340</ele>
        <time>2014-08-13T13:53:25Z</time>
      </trkpt>
      <trkpt lat="46.64122" lon="4.65899">
        <ele>340</ele>
        <time>2014-08-13T13:53:33Z</time>
      </trkpt>
      <trkpt lat="46.64118" lon="4.65897">
        <ele>340</ele>
        <time>2014-08-13T13:53:36Z</time>
      </trkpt>
      <trkpt lat="46.64113" lon="4.65893">
        <ele>340</ele>
        <time>2014-08-13T13:53:40Z</time>
      </trkpt>
      <trkpt lat="46.64104" lon="4.65887">
        <ele>340</ele>
        <time>2014-08-13T13:53:49Z</time>
      </trkpt>
      <trkpt lat="46.64091" lon="4.6588">
        <ele>340</ele>
        <time>2014-08-13T13:54:00Z</time>
      </trkpt>
      <trkpt lat="46.64088" lon="4.65886">
        <ele>339</ele>
        <time>2014-08-13T13:54:07Z</time>
      </trkpt>
      <trkpt lat="46.64083" lon="4.65887">
        <ele>337</ele>
        <time>2014-08-13T13:54:12Z</time>
      </trkpt>
      <trkpt lat="46.64061" lon="4.65897">
        <ele>337</ele>
        <time>2014-08-13T13:54:22Z</time>
      </trkpt>
      <trkpt lat="46.64057" lon="4.65904">
        <ele>337</ele>
        <time>2014-08-13T13:54:29Z</time>
      </trkpt>
      <trkpt lat="46.64052" lon="4.65907">
        <ele>337</ele>
        <time>2014-08-13T13:54:33Z</time>
      </trkpt>
      <trkpt lat="46.64048" lon="4.65911">
        <ele>337</ele>
        <time>2014-08-13T13:54:37Z</time>
      </trkpt>
      <trkpt lat="46.64036" lon="4.65926">
        <ele>337</ele>
        <time>2014-08-13T13:54:50Z</time>
      </trkpt>
      <trkpt lat="46.64032" lon="4.6593">
        <ele>337</ele>
        <time>2014-08-13T13:54:55Z</time>
      </trkpt>
      <trkpt lat="46.64004" lon="4.65948">
        <ele>338</ele>
        <time>2014-08-13T13:55:22Z</time>
      </trkpt>
      <trkpt lat="46.6398" lon="4.65942">
        <ele>339</ele>
        <time>2014-08-13T13:55:46Z</time>
      </trkpt>
      <trkpt lat="46.63976" lon="4.65937">
        <ele>339</ele>
        <time>2014-08-13T13:55:50Z</time>
      </trkpt>
      <trkpt lat="46.6397" lon="4.65936">
        <ele>339</ele>
        <time>2014-08-13T13:55:54Z</time>
      </trkpt>
      <trkpt lat="46.63964" lon="4.65936">
        <ele>340</ele>
        <time>2014-08-13T13:55:57Z</time>
      </trkpt>
      <trkpt lat="46.63959" lon="4.65936">
        <ele>340</ele>
        <time>2014-08-13T13:56:00Z</time>
      </trkpt>
      <trkpt lat="46.6395" lon="4.65932">
        <ele>340</ele>
        <time>2014-08-13T13:56:08Z</time>
      </trkpt>
      <trkpt lat="46.63934" lon="4.65923">
        <ele>341</ele>
        <time>2014-08-13T13:56:19Z</time>
      </trkpt>
      <trkpt lat="46.6393" lon="4.65918">
        <ele>341</ele>
        <time>2014-08-13T13:56:24Z</time>
      </trkpt>
      <trkpt lat="46.63926" lon="4.65916">
        <ele>340</ele>
        <time>2014-08-13T13:56:28Z</time>
      </trkpt>
      <trkpt lat="46.63917" lon="4.65912">
        <ele>340</ele>
        <time>2014-08-13T13:56:36Z</time>
      </trkpt>
      <trkpt lat="46.63892" lon="4.65908">
        <ele>343</ele>
        <time>2014-08-13T13:57:02Z</time>
      </trkpt>
      <trkpt lat="46.63887" lon="4.65907">
        <ele>343</ele>
        <time>2014-08-13T13:57:06Z</time>
      </trkpt>
      <trkpt lat="46.63873" lon="4.65913">
        <ele>344</ele>
        <time>2014-08-13T13:57:16Z</time>
      </trkpt>
      <trkpt lat="46.63859" lon="4.65906">
        <ele>345</ele>
        <time>2014-08-13T13:57:30Z</time>
      </trkpt>
      <trkpt lat="46.63845" lon="4.65898">
        <ele>346</ele>
        <time>2014-08-13T13:57:43Z</time>
      </trkpt>
      <trkpt lat="46.63815" lon="4.65896">
        <ele>348</ele>
        <time>2014-08-13T13:58:14Z</time>
      </trkpt>
      <trkpt lat="46.6379" lon="4.65902">
        <ele>349</ele>
        <time>2014-08-13T13:58:34Z</time>
      </trkpt>
      <trkpt lat="46.63779" lon="4.65907">
        <ele>349</ele>
        <time>2014-08-13T13:58:43Z</time>
      </trkpt>
      <trkpt lat="46.63775" lon="4.65911">
        <ele>349</ele>
        <time>2014-08-13T13:58:48Z</time>
      </trkpt>
      <trkpt lat="46.63771" lon="4.65915">
        <ele>350</ele>
        <time>2014-08-13T13:58:52Z</time>
      </trkpt>
      <trkpt lat="46.63762" lon="4.65921">
        <ele>351</ele>
        <time>2014-08-13T13:58:59Z</time>
      </trkpt>
      <trkpt lat="46.63757" lon="4.65922">
        <ele>351</ele>
        <time>2014-08-13T13:59:04Z</time>
      </trkpt>
      <trkpt lat="46.63728" lon="4.65926">
        <ele>351</ele>
        <time>2014-08-13T13:59:26Z</time>
      </trkpt>
      <trkpt lat="46.63724" lon="4.6593">
        <ele>351</ele>
        <time>2014-08-13T13:59:31Z</time>
      </trkpt>
      <trkpt lat="46.63693" lon="4.65935">
        <ele>351</ele>
        <time>2014-08-13T14:00:00Z</time>
      </trkpt>
      <trkpt lat="46.63677" lon="4.65935">
        <ele>351</ele>
        <time>2014-08-13T14:00:13Z</time>
      </trkpt>
      <trkpt lat="46.63673" lon="4.65938">
        <ele>351</ele>
        <time>2014-08-13T14:00:18Z</time>
      </trkpt>
      <trkpt lat="46.63663" lon="4.65935">
        <ele>348</ele>
        <time>2014-08-13T14:00:27Z</time>
      </trkpt>
      <trkpt lat="46.63657" lon="4.65934">
        <ele>348</ele>
        <time>2014-08-13T14:00:31Z</time>
      </trkpt>
      <trkpt lat="46.63613" lon="4.65943">
        <ele>345</ele>
        <time>2014-08-13T14:01:01Z</time>
      </trkpt>
      <trkpt lat="46.63609" lon="4.65949">
        <ele>344</ele>
        <time>2014-08-13T14:01:05Z</time>
      </trkpt>
      <trkpt lat="46.63605" lon="4.65954">
        <ele>344</ele>
        <time>2014-08-13T14:01:09Z</time>
      </trkpt>
      <trkpt lat="46.63599" lon="4.65966">
        <ele>344</ele>
        <time>2014-08-13T14:01:16Z</time>
      </trkpt>
      <trkpt lat="46.63595" lon="4.6598">
        <ele>343</ele>
        <time>2014-08-13T14:01:25Z</time>
      </trkpt>
      <trkpt lat="46.63588" lon="4.66015">
        <ele>343</ele>
        <time>2014-08-13T14:01:46Z</time>
      </trkpt>
      <trkpt lat="46.63585" lon="4.6602">
        <ele>343</ele>
        <time>2014-08-13T14:01:49Z</time>
      </trkpt>
      <trkpt lat="46.63578" lon="4.66033">
        <ele>337</ele>
        <time>2014-08-13T14:01:57Z</time>
      </trkpt>
      <trkpt lat="46.6356" lon="4.66058">
        <ele>337</ele>
        <time>2014-08-13T14:02:22Z</time>
      </trkpt>
      <trkpt lat="46.63543" lon="4.66064">
        <ele>336</ele>
        <time>2014-08-13T14:02:33Z</time>
      </trkpt>
      <trkpt lat="46.63533" lon="4.66061">
        <ele>335</ele>
        <time>2014-08-13T14:02:41Z</time>
      </trkpt>
      <trkpt lat="46.63528" lon="4.6606">
        <ele>334</ele>
        <time>2014-08-13T14:02:46Z</time>
      </trkpt>
      <trkpt lat="46.63523" lon="4.6606">
        <ele>334</ele>
        <time>2014-08-13T14:02:50Z</time>
      </trkpt>
      <trkpt lat="46.63503" lon="4.66062">
        <ele>333</ele>
        <time>2014-08-13T14:03:07Z</time>
      </trkpt>
      <trkpt lat="46.63498" lon="4.66062">
        <ele>327</ele>
        <time>2014-08-13T14:03:10Z</time>
      </trkpt>
      <trkpt lat="46.63488" lon="4.66061">
        <ele>326</ele>
        <time>2014-08-13T14:03:16Z</time>
      </trkpt>
      <trkpt lat="46.63478" lon="4.66061">
        <ele>326</ele>
        <time>2014-08-13T14:03:23Z</time>
      </trkpt>
      <trkpt lat="46.63473" lon="4.66063">
        <ele>325</ele>
        <time>2014-08-13T14:03:27Z</time>
      </trkpt>
      <trkpt lat="46.63463" lon="4.66066">
        <ele>324</ele>
        <time>2014-08-13T14:03:34Z</time>
      </trkpt>
      <trkpt lat="46.63457" lon="4.66077">
        <ele>324</ele>
        <time>2014-08-13T14:03:43Z</time>
      </trkpt>
      <trkpt lat="46.63449" lon="4.66086">
        <ele>324</ele>
        <time>2014-08-13T14:03:53Z</time>
      </trkpt>
      <trkpt lat="46.63439" lon="4.66094">
        <ele>324</ele>
        <time>2014-08-13T14:04:02Z</time>
      </trkpt>
      <trkpt lat="46.63435" lon="4.66097">
        <ele>323</ele>
        <time>2014-08-13T14:04:05Z</time>
      </trkpt>
      <trkpt lat="46.63431" lon="4.66113">
        <ele>324</ele>
        <time>2014-08-13T14:04:15Z</time>
      </trkpt>
      <trkpt lat="46.63428" lon="4.66118">
        <ele>324</ele>
        <time>2014-08-13T14:04:19Z</time>
      </trkpt>
      <trkpt lat="46.63422" lon="4.66129">
        <ele>324</ele>
        <time>2014-08-13T14:04:25Z</time>
      </trkpt>
      <trkpt lat="46.63413" lon="4.66136">
        <ele>318</ele>
        <time>2014-08-13T14:04:31Z</time>
      </trkpt>
      <trkpt lat="46.634" lon="4.66146">
        <ele>318</ele>
        <time>2014-08-13T14:04:45Z</time>
      </trkpt>
      <trkpt lat="46.63403" lon="4.6615">
        <ele>318</ele>
        <time>2014-08-13T14:04:55Z</time>
      </trkpt>
      <trkpt lat="46.63397" lon="4.66152">
        <ele>318</ele>
        <time>2014-08-13T14:05:21Z</time>
      </trkpt>
      <trkpt lat="46.63388" lon="4.66155">
        <ele>317</ele>
        <time>2014-08-13T14:05:28Z</time>
      </trkpt>
      <trkpt lat="46.63384" lon="4.66157">
        <ele>317</ele>
        <time>2014-08-13T14:05:31Z</time>
      </trkpt>
      <trkpt lat="46.63379" lon="4.66157">
        <ele>316</ele>
        <time>2014-08-13T14:05:35Z</time>
      </trkpt>
      <trkpt lat="46.63368" lon="4.66154">
        <ele>315</ele>
        <time>2014-08-13T14:05:44Z</time>
      </trkpt>
      <trkpt lat="46.63364" lon="4.66158">
        <ele>315</ele>
        <time>2014-08-13T14:05:48Z</time>
      </trkpt>
      <trkpt lat="46.63359" lon="4.66162">
        <ele>315</ele>
        <time>2014-08-13T14:05:53Z</time>
      </trkpt>
      <trkpt lat="46.63335" lon="4.66173">
        <ele>313</ele>
        <time>2014-08-13T14:06:14Z</time>
      </trkpt>
      <trkpt lat="46.633" lon="4.66188">
        <ele>311</ele>
        <time>2014-08-13T14:06:44Z</time>
      </trkpt>
      <trkpt lat="46.63295" lon="4.66191">
        <ele>311</ele>
        <time>2014-08-13T14:06:49Z</time>
      </trkpt>
      <trkpt lat="46.63291" lon="4.66195">
        <ele>311</ele>
        <time>2014-08-13T14:06:55Z</time>
      </trkpt>
      <trkpt lat="46.63286" lon="4.66194">
        <ele>311</ele>
        <time>2014-08-13T14:07:00Z</time>
      </trkpt>
      <trkpt lat="46.6328" lon="4.66196">
        <ele>311</ele>
        <time>2014-08-13T14:07:03Z</time>
      </trkpt>
      <trkpt lat="46.63275" lon="4.66198">
        <ele>311</ele>
        <time>2014-08-13T14:07:06Z</time>
      </trkpt>
      <trkpt lat="46.63272" lon="4.66205">
        <ele>311</ele>
        <time>2014-08-13T14:07:10Z</time>
      </trkpt>
      <trkpt lat="46.63268" lon="4.66206">
        <ele>310</ele>
        <time>2014-08-13T14:07:19Z</time>
      </trkpt>
      <trkpt lat="46.63265" lon="4.66203">
        <ele>311</ele>
        <time>2014-08-13T14:07:28Z</time>
      </trkpt>
      <trkpt lat="46.63262" lon="4.6621">
        <ele>310</ele>
        <time>2014-08-13T14:07:40Z</time>
      </trkpt>
      <trkpt lat="46.63253" lon="4.66219">
        <ele>310</ele>
        <time>2014-08-13T14:07:45Z</time>
      </trkpt>
      <trkpt lat="46.63257" lon="4.66211">
        <ele>310</ele>
        <time>2014-08-13T14:07:48Z</time>
      </trkpt>
      <trkpt lat="46.63254" lon="4.66213">
        <ele>310</ele>
        <time>2014-08-13T14:08:13Z</time>
      </trkpt>
      <trkpt lat="46.6325" lon="4.66215">
        <ele>310</ele>
        <time>2014-08-13T14:08:22Z</time>
      </trkpt>
      <trkpt lat="46.63245" lon="4.66217">
        <ele>310</ele>
        <time>2014-08-13T14:08:30Z</time>
      </trkpt>
      <trkpt lat="46.6324" lon="4.66219">
        <ele>310</ele>
        <time>2014-08-13T14:08:34Z</time>
      </trkpt>
      <trkpt lat="46.63235" lon="4.66222">
        <ele>310</ele>
        <time>2014-08-13T14:08:38Z</time>
      </trkpt>
      <trkpt lat="46.63231" lon="4.66228">
        <ele>309</ele>
        <time>2014-08-13T14:08:42Z</time>
      </trkpt>
      <trkpt lat="46.6323" lon="4.66234">
        <ele>309</ele>
        <time>2014-08-13T14:08:50Z</time>
      </trkpt>
      <trkpt lat="46.6322" lon="4.66241">
        <ele>309</ele>
        <time>2014-08-13T14:08:57Z</time>
      </trkpt>
      <trkpt lat="46.63207" lon="4.66251">
        <ele>308</ele>
        <time>2014-08-13T14:09:09Z</time>
      </trkpt>
      <trkpt lat="46.63202" lon="4.6625">
        <ele>308</ele>
        <time>2014-08-13T14:09:13Z</time>
      </trkpt>
      <trkpt lat="46.63193" lon="4.66257">
        <ele>308</ele>
        <time>2014-08-13T14:09:20Z</time>
      </trkpt>
      <trkpt lat="46.63188" lon="4.66261">
        <ele>308</ele>
        <time>2014-08-13T14:09:25Z</time>
      </trkpt>
      <trkpt lat="46.63173" lon="4.66282">
        <ele>308</ele>
        <time>2014-08-13T14:09:39Z</time>
      </trkpt>
      <trkpt lat="46.63169" lon="4.66288">
        <ele>307</ele>
        <time>2014-08-13T14:09:45Z</time>
      </trkpt>
      <trkpt lat="46.63165" lon="4.66294">
        <ele>308</ele>
        <time>2014-08-13T14:09:49Z</time>
      </trkpt>
      <trkpt lat="46.63162" lon="4.66299">
        <ele>308</ele>
        <time>2014-08-13T14:09:53Z</time>
      </trkpt>
      <trkpt lat="46.63158" lon="4.66305">
        <ele>308</ele>
        <time>2014-08-13T14:09:57Z</time>
      </trkpt>
      <trkpt lat="46.63155" lon="4.66311">
        <ele>308</ele>
        <time>2014-08-13T14:10:00Z</time>
      </trkpt>
      <trkpt lat="46.63152" lon="4.6631">
        <ele>308</ele>
        <time>2014-08-13T14:10:06Z</time>
      </trkpt>
      <trkpt lat="46.6315" lon="4.66316">
        <ele>308</ele>
        <time>2014-08-13T14:10:09Z</time>
      </trkpt>
      <trkpt lat="46.63145" lon="4.6633">
        <ele>308</ele>
        <time>2014-08-13T14:10:14Z</time>
      </trkpt>
      <trkpt lat="46.63141" lon="4.66334">
        <ele>308</ele>
        <time>2014-08-13T14:10:18Z</time>
      </trkpt>
      <trkpt lat="46.63133" lon="4.66342">
        <ele>308</ele>
        <time>2014-08-13T14:10:27Z</time>
      </trkpt>
      <trkpt lat="46.63117" lon="4.66367">
        <ele>309</ele>
        <time>2014-08-13T14:10:40Z</time>
      </trkpt>
      <trkpt lat="46.63115" lon="4.66372">
        <ele>309</ele>
        <time>2014-08-13T14:10:44Z</time>
      </trkpt>
      <trkpt lat="46.6311" lon="4.66374">
        <ele>309</ele>
        <time>2014-08-13T14:10:49Z</time>
      </trkpt>
      <trkpt lat="46.63106" lon="4.66377">
        <ele>309</ele>
        <time>2014-08-13T14:10:52Z</time>
      </trkpt>
      <trkpt lat="46.631" lon="4.66387">
        <ele>310</ele>
        <time>2014-08-13T14:11:03Z</time>
      </trkpt>
      <trkpt lat="46.63096" lon="4.66392">
        <ele>310</ele>
        <time>2014-08-13T14:11:08Z</time>
      </trkpt>
      <trkpt lat="46.63074" lon="4.66413">
        <ele>313</ele>
        <time>2014-08-13T14:11:28Z</time>
      </trkpt>
      <trkpt lat="46.6307" lon="4.66418">
        <ele>314</ele>
        <time>2014-08-13T14:11:34Z</time>
      </trkpt>
      <trkpt lat="46.63065" lon="4.66418">
        <ele>315</ele>
        <time>2014-08-13T14:11:38Z</time>
      </trkpt>
      <trkpt lat="46.63063" lon="4.66426">
        <ele>315</ele>
        <time>2014-08-13T14:11:42Z</time>
      </trkpt>
      <trkpt lat="46.63059" lon="4.6643">
        <ele>315</ele>
        <time>2014-08-13T14:11:45Z</time>
      </trkpt>
      <trkpt lat="46.6305" lon="4.66434">
        <ele>316</ele>
        <time>2014-08-13T14:11:53Z</time>
      </trkpt>
      <trkpt lat="46.63045" lon="4.66441">
        <ele>316</ele>
        <time>2014-08-13T14:11:58Z</time>
      </trkpt>
      <trkpt lat="46.63041" lon="4.66447">
        <ele>316</ele>
        <time>2014-08-13T14:12:01Z</time>
      </trkpt>
      <trkpt lat="46.63036" lon="4.66449">
        <ele>316</ele>
        <time>2014-08-13T14:12:07Z</time>
      </trkpt>
      <trkpt lat="46.63031" lon="4.6645">
        <ele>317</ele>
        <time>2014-08-13T14:12:12Z</time>
      </trkpt>
      <trkpt lat="46.63023" lon="4.66457">
        <ele>317</ele>
        <time>2014-08-13T14:12:22Z</time>
      </trkpt>
      <trkpt lat="46.63015" lon="4.66466">
        <ele>317</ele>
        <time>2014-08-13T14:12:33Z</time>
      </trkpt>
      <trkpt lat="46.63006" lon="4.66475">
        <ele>318</ele>
        <time>2014-08-13T14:12:39Z</time>
      </trkpt>
      <trkpt lat="46.63002" lon="4.66476">
        <ele>318</ele>
        <time>2014-08-13T14:12:42Z</time>
      </trkpt>
      <trkpt lat="46.62997" lon="4.66476">
        <ele>319</ele>
        <time>2014-08-13T14:12:45Z</time>
      </trkpt>
      <trkpt lat="46.62995" lon="4.66483">
        <ele>320</ele>
        <time>2014-08-13T14:12:51Z</time>
      </trkpt>
      <trkpt lat="46.62991" lon="4.66487">
        <ele>320</ele>
        <time>2014-08-13T14:12:55Z</time>
      </trkpt>
      <trkpt lat="46.62986" lon="4.66488">
        <ele>320</ele>
        <time>2014-08-13T14:12:59Z</time>
      </trkpt>
      <trkpt lat="46.62947" lon="4.66511">
        <ele>323</ele>
        <time>2014-08-13T14:13:32Z</time>
      </trkpt>
      <trkpt lat="46.62944" lon="4.66518">
        <ele>323</ele>
        <time>2014-08-13T14:13:36Z</time>
      </trkpt>
      <trkpt lat="46.62939" lon="4.6652">
        <ele>323</ele>
        <time>2014-08-13T14:13:42Z</time>
      </trkpt>
      <trkpt lat="46.62935" lon="4.66524">
        <ele>323</ele>
        <time>2014-08-13T14:13:47Z</time>
      </trkpt>
      <trkpt lat="46.62931" lon="4.66527">
        <ele>323</ele>
        <time>2014-08-13T14:13:50Z</time>
      </trkpt>
      <trkpt lat="46.62922" lon="4.66535">
        <ele>324</ele>
        <time>2014-08-13T14:13:58Z</time>
      </trkpt>
      <trkpt lat="46.62915" lon="4.66545">
        <ele>323</ele>
        <time>2014-08-13T14:14:06Z</time>
      </trkpt>
      <trkpt lat="46.62911" lon="4.66551">
        <ele>324</ele>
        <time>2014-08-13T14:14:10Z</time>
      </trkpt>
      <trkpt lat="46.62906" lon="4.66553">
        <ele>324</ele>
        <time>2014-08-13T14:14:15Z</time>
      </trkpt>
      <trkpt lat="46.62903" lon="4.66557">
        <ele>324</ele>
        <time>2014-08-13T14:14:19Z</time>
      </trkpt>
      <trkpt lat="46.62889" lon="4.6657">
        <ele>324</ele>
        <time>2014-08-13T14:14:34Z</time>
      </trkpt>
      <trkpt lat="46.62885" lon="4.66573">
        <ele>324</ele>
        <time>2014-08-13T14:14:38Z</time>
      </trkpt>
      <trkpt lat="46.62877" lon="4.66581">
        <ele>324</ele>
        <time>2014-08-13T14:14:45Z</time>
      </trkpt>
      <trkpt lat="46.62873" lon="4.66585">
        <ele>328</ele>
        <time>2014-08-13T14:14:50Z</time>
      </trkpt>
      <trkpt lat="46.62869" lon="4.66587">
        <ele>328</ele>
        <time>2014-08-13T14:14:54Z</time>
      </trkpt>
      <trkpt lat="46.62865" lon="4.66592">
        <ele>328</ele>
        <time>2014-08-13T14:14:58Z</time>
      </trkpt>
      <trkpt lat="46.62856" lon="4.66598">
        <ele>328</ele>
        <time>2014-08-13T14:15:08Z</time>
      </trkpt>
      <trkpt lat="46.62851" lon="4.66596">
        <ele>328</ele>
        <time>2014-08-13T14:15:11Z</time>
      </trkpt>
      <trkpt lat="46.62846" lon="4.66597">
        <ele>328</ele>
        <time>2014-08-13T14:15:14Z</time>
      </trkpt>
      <trkpt lat="46.62811" lon="4.66613">
        <ele>330</ele>
        <time>2014-08-13T14:15:41Z</time>
      </trkpt>
      <trkpt lat="46.62784" lon="4.66627">
        <ele>332</ele>
        <time>2014-08-13T14:16:04Z</time>
      </trkpt>
      <trkpt lat="46.62776" lon="4.66632">
        <ele>332</ele>
        <time>2014-08-13T14:16:13Z</time>
      </trkpt>
      <trkpt lat="46.62776" lon="4.66625">
        <ele>332</ele>
        <time>2014-08-13T14:16:31Z</time>
      </trkpt>
      <trkpt lat="46.62772" lon="4.66627">
        <ele>332</ele>
        <time>2014-08-13T14:16:34Z</time>
      </trkpt>
      <trkpt lat="46.62754" lon="4.66637">
        <ele>333</ele>
        <time>2014-08-13T14:16:45Z</time>
      </trkpt>
      <trkpt lat="46.62749" lon="4.66639">
        <ele>335</ele>
        <time>2014-08-13T14:16:50Z</time>
      </trkpt>
      <trkpt lat="46.62745" lon="4.66643">
        <ele>335</ele>
        <time>2014-08-13T14:16:54Z</time>
      </trkpt>
      <trkpt lat="46.62724" lon="4.66643">
        <ele>335</ele>
        <time>2014-08-13T14:17:08Z</time>
      </trkpt>
      <trkpt lat="46.62714" lon="4.66644">
        <ele>335</ele>
        <time>2014-08-13T14:17:18Z</time>
      </trkpt>
      <trkpt lat="46.62709" lon="4.66648">
        <ele>335</ele>
        <time>2014-08-13T14:17:22Z</time>
      </trkpt>
      <trkpt lat="46.62688" lon="4.6665">
        <ele>335</ele>
        <time>2014-08-13T14:17:38Z</time>
      </trkpt>
      <trkpt lat="46.62686" lon="4.66644">
        <ele>335</ele>
        <time>2014-08-13T14:17:43Z</time>
      </trkpt>
      <trkpt lat="46.6268" lon="4.66642">
        <ele>335</ele>
        <time>2014-08-13T14:17:47Z</time>
      </trkpt>
      <trkpt lat="46.62669" lon="4.66645">
        <ele>336</ele>
        <time>2014-08-13T14:17:54Z</time>
      </trkpt>
      <trkpt lat="46.62665" lon="4.66649">
        <ele>337</ele>
        <time>2014-08-13T14:17:58Z</time>
      </trkpt>
      <trkpt lat="46.6266" lon="4.66651">
        <ele>337</ele>
        <time>2014-08-13T14:18:01Z</time>
      </trkpt>
      <trkpt lat="46.62646" lon="4.66658">
        <ele>337</ele>
        <time>2014-08-13T14:18:09Z</time>
      </trkpt>
      <trkpt lat="46.62641" lon="4.66656">
        <ele>337</ele>
        <time>2014-08-13T14:18:18Z</time>
      </trkpt>
      <trkpt lat="46.6263" lon="4.66659">
        <ele>337</ele>
        <time>2014-08-13T14:18:26Z</time>
      </trkpt>
      <trkpt lat="46.62624" lon="4.66656">
        <ele>337</ele>
        <time>2014-08-13T14:18:30Z</time>
      </trkpt>
      <trkpt lat="46.6262" lon="4.66651">
        <ele>337</ele>
        <time>2014-08-13T14:18:34Z</time>
      </trkpt>
      <trkpt lat="46.62616" lon="4.66649">
        <ele>338</ele>
        <time>2014-08-13T14:18:39Z</time>
      </trkpt>
      <trkpt lat="46.62611" lon="4.66651">
        <ele>338</ele>
        <time>2014-08-13T14:18:43Z</time>
      </trkpt>
      <trkpt lat="46.62607" lon="4.66655">
        <ele>338</ele>
        <time>2014-08-13T14:18:47Z</time>
      </trkpt>
      <trkpt lat="46.62602" lon="4.66654">
        <ele>339</ele>
        <time>2014-08-13T14:18:51Z</time>
      </trkpt>
      <trkpt lat="46.62597" lon="4.66654">
        <ele>339</ele>
        <time>2014-08-13T14:18:54Z</time>
      </trkpt>
      <trkpt lat="46.62588" lon="4.66652">
        <ele>339</ele>
        <time>2014-08-13T14:19:01Z</time>
      </trkpt>
      <trkpt lat="46.62563" lon="4.6665">
        <ele>339</ele>
        <time>2014-08-13T14:19:24Z</time>
      </trkpt>
      <trkpt lat="46.62556" lon="4.66652">
        <ele>339</ele>
        <time>2014-08-13T14:19:26Z</time>
      </trkpt>
      <trkpt lat="46.62551" lon="4.66652">
        <ele>339</ele>
        <time>2014-08-13T14:19:29Z</time>
      </trkpt>
      <trkpt lat="46.62545" lon="4.66651">
        <ele>339</ele>
        <time>2014-08-13T14:19:37Z</time>
      </trkpt>
      <trkpt lat="46.6253" lon="4.66651">
        <ele>339</ele>
        <time>2014-08-13T14:19:49Z</time>
      </trkpt>
      <trkpt lat="46.62525" lon="4.66653">
        <ele>339</ele>
        <time>2014-08-13T14:19:53Z</time>
      </trkpt>
      <trkpt lat="46.6252" lon="4.66653">
        <ele>339</ele>
        <time>2014-08-13T14:19:58Z</time>
      </trkpt>
      <trkpt lat="46.62515" lon="4.66652">
        <ele>340</ele>
        <time>2014-08-13T14:20:03Z</time>
      </trkpt>
      <trkpt lat="46.62509" lon="4.66653">
        <ele>340</ele>
        <time>2014-08-13T14:20:07Z</time>
      </trkpt>
      <trkpt lat="46.62499" lon="4.66656">
        <ele>339</ele>
        <time>2014-08-13T14:20:15Z</time>
      </trkpt>
      <trkpt lat="46.62495" lon="4.66659">
        <ele>340</ele>
        <time>2014-08-13T14:20:19Z</time>
      </trkpt>
      <trkpt lat="46.6249" lon="4.66659">
        <ele>339</ele>
        <time>2014-08-13T14:20:23Z</time>
      </trkpt>
      <trkpt lat="46.62484" lon="4.66658">
        <ele>338</ele>
        <time>2014-08-13T14:20:27Z</time>
      </trkpt>
      <trkpt lat="46.6248" lon="4.66658">
        <ele>338</ele>
        <time>2014-08-13T14:20:31Z</time>
      </trkpt>
      <trkpt lat="46.62465" lon="4.6666">
        <ele>337</ele>
        <time>2014-08-13T14:20:43Z</time>
      </trkpt>
      <trkpt lat="46.62455" lon="4.6666">
        <ele>336</ele>
        <time>2014-08-13T14:20:50Z</time>
      </trkpt>
      <trkpt lat="46.62451" lon="4.66662">
        <ele>336</ele>
        <time>2014-08-13T14:20:53Z</time>
      </trkpt>
      <trkpt lat="46.62414" lon="4.66658">
        <ele>334</ele>
        <time>2014-08-13T14:21:21Z</time>
      </trkpt>
      <trkpt lat="46.62409" lon="4.66657">
        <ele>334</ele>
        <time>2014-08-13T14:21:25Z</time>
      </trkpt>
      <trkpt lat="46.62404" lon="4.66659">
        <ele>333</ele>
        <time>2014-08-13T14:21:30Z</time>
      </trkpt>
      <trkpt lat="46.62399" lon="4.66662">
        <ele>333</ele>
        <time>2014-08-13T14:21:34Z</time>
      </trkpt>
      <trkpt lat="46.62395" lon="4.66658">
        <ele>332</ele>
        <time>2014-08-13T14:21:39Z</time>
      </trkpt>
      <trkpt lat="46.6239" lon="4.66659">
        <ele>332</ele>
        <time>2014-08-13T14:21:44Z</time>
      </trkpt>
      <trkpt lat="46.62379" lon="4.6666">
        <ele>331</ele>
        <time>2014-08-13T14:21:53Z</time>
      </trkpt>
      <trkpt lat="46.62369" lon="4.66655">
        <ele>330</ele>
        <time>2014-08-13T14:22:00Z</time>
      </trkpt>
      <trkpt lat="46.62364" lon="4.66655">
        <ele>330</ele>
        <time>2014-08-13T14:22:04Z</time>
      </trkpt>
      <trkpt lat="46.62358" lon="4.66655">
        <ele>330</ele>
        <time>2014-08-13T14:22:09Z</time>
      </trkpt>
      <trkpt lat="46.62354" lon="4.66655">
        <ele>330</ele>
        <time>2014-08-13T14:22:13Z</time>
      </trkpt>
      <trkpt lat="46.62349" lon="4.66655">
        <ele>330</ele>
        <time>2014-08-13T14:22:19Z</time>
      </trkpt>
      <trkpt lat="46.62339" lon="4.66653">
        <ele>330</ele>
        <time>2014-08-13T14:22:25Z</time>
      </trkpt>
      <trkpt lat="46.62334" lon="4.66652">
        <ele>330</ele>
        <time>2014-08-13T14:22:29Z</time>
      </trkpt>
      <trkpt lat="46.62324" lon="4.66647">
        <ele>327</ele>
        <time>2014-08-13T14:22:40Z</time>
      </trkpt>
      <trkpt lat="46.6232" lon="4.66648">
        <ele>326</ele>
        <time>2014-08-13T14:22:44Z</time>
      </trkpt>
      <trkpt lat="46.62285" lon="4.66658">
        <ele>325</ele>
        <time>2014-08-13T14:23:19Z</time>
      </trkpt>
      <trkpt lat="46.62268" lon="4.66657">
        <ele>325</ele>
        <time>2014-08-13T14:23:30Z</time>
      </trkpt>
      <trkpt lat="46.62264" lon="4.66652">
        <ele>325</ele>
        <time>2014-08-13T14:23:34Z</time>
      </trkpt>
      <trkpt lat="46.6226" lon="4.66649">
        <ele>325</ele>
        <time>2014-08-13T14:23:36Z</time>
      </trkpt>
      <trkpt lat="46.62241" lon="4.66643">
        <ele>325</ele>
        <time>2014-08-13T14:23:52Z</time>
      </trkpt>
      <trkpt lat="46.62235" lon="4.66643">
        <ele>325</ele>
        <time>2014-08-13T14:23:56Z</time>
      </trkpt>
      <trkpt lat="46.62225" lon="4.66637">
        <ele>325</ele>
        <time>2014-08-13T14:24:06Z</time>
      </trkpt>
      <trkpt lat="46.6222" lon="4.66637">
        <ele>325</ele>
        <time>2014-08-13T14:24:10Z</time>
      </trkpt>
      <trkpt lat="46.62216" lon="4.66635">
        <ele>325</ele>
        <time>2014-08-13T14:24:15Z</time>
      </trkpt>
      <trkpt lat="46.62211" lon="4.66635">
        <ele>325</ele>
        <time>2014-08-13T14:24:20Z</time>
      </trkpt>
      <trkpt lat="46.62191" lon="4.66626">
        <ele>325</ele>
        <time>2014-08-13T14:24:38Z</time>
      </trkpt>
      <trkpt lat="46.62186" lon="4.66623">
        <ele>325</ele>
        <time>2014-08-13T14:24:42Z</time>
      </trkpt>
      <trkpt lat="46.62177" lon="4.66619">
        <ele>324</ele>
        <time>2014-08-13T14:24:48Z</time>
      </trkpt>
      <trkpt lat="46.62172" lon="4.66617">
        <ele>324</ele>
        <time>2014-08-13T14:24:53Z</time>
      </trkpt>
      <trkpt lat="46.62167" lon="4.66618">
        <ele>324</ele>
        <time>2014-08-13T14:24:58Z</time>
      </trkpt>
      <trkpt lat="46.62162" lon="4.66616">
        <ele>325</ele>
        <time>2014-08-13T14:25:04Z</time>
      </trkpt>
      <trkpt lat="46.62147" lon="4.66611">
        <ele>324</ele>
        <time>2014-08-13T14:25:16Z</time>
      </trkpt>
      <trkpt lat="46.62141" lon="4.66608">
        <ele>324</ele>
        <time>2014-08-13T14:25:20Z</time>
      </trkpt>
      <trkpt lat="46.62135" lon="4.66608">
        <ele>324</ele>
        <time>2014-08-13T14:25:24Z</time>
      </trkpt>
      <trkpt lat="46.6213" lon="4.66607">
        <ele>324</ele>
        <time>2014-08-13T14:25:28Z</time>
      </trkpt>
      <trkpt lat="46.62105" lon="4.66604">
        <ele>324</ele>
        <time>2014-08-13T14:25:45Z</time>
      </trkpt>
      <trkpt lat="46.62095" lon="4.66602">
        <ele>323</ele>
        <time>2014-08-13T14:25:54Z</time>
      </trkpt>
      <trkpt lat="46.62092" lon="4.66603">
        <ele>323</ele>
        <time>2014-08-13T14:26:01Z</time>
      </trkpt>
      <trkpt lat="46.62088" lon="4.66608">
        <ele>323</ele>
        <time>2014-08-13T14:26:43Z</time>
      </trkpt>
      <trkpt lat="46.62084" lon="4.6661">
        <ele>323</ele>
        <time>2014-08-13T14:26:46Z</time>
      </trkpt>
      <trkpt lat="46.62079" lon="4.66608">
        <ele>320</ele>
        <time>2014-08-13T14:26:50Z</time>
      </trkpt>
      <trkpt lat="46.62064" lon="4.66612">
        <ele>320</ele>
        <time>2014-08-13T14:27:05Z</time>
      </trkpt>
      <trkpt lat="46.62059" lon="4.66612">
        <ele>320</ele>
        <time>2014-08-13T14:27:09Z</time>
      </trkpt>
      <trkpt lat="46.62049" lon="4.66613">
        <ele>319</ele>
        <time>2014-08-13T14:27:18Z</time>
      </trkpt>
      <trkpt lat="46.62043" lon="4.66614">
        <ele>319</ele>
        <time>2014-08-13T14:27:22Z</time>
      </trkpt>
      <trkpt lat="46.62038" lon="4.66614">
        <ele>319</ele>
        <time>2014-08-13T14:27:26Z</time>
      </trkpt>
      <trkpt lat="46.62033" lon="4.66612">
        <ele>318</ele>
        <time>2014-08-13T14:27:30Z</time>
      </trkpt>
      <trkpt lat="46.62028" lon="4.66611">
        <ele>318</ele>
        <time>2014-08-13T14:27:33Z</time>
      </trkpt>
      <trkpt lat="46.62023" lon="4.6661">
        <ele>318</ele>
        <time>2014-08-13T14:27:37Z</time>
      </trkpt>
      <trkpt lat="46.61993" lon="4.66618">
        <ele>310</ele>
        <time>2014-08-13T14:28:06Z</time>
      </trkpt>
      <trkpt lat="46.61988" lon="4.66618">
        <ele>310</ele>
        <time>2014-08-13T14:28:10Z</time>
      </trkpt>
      <trkpt lat="46.61984" lon="4.66617">
        <ele>310</ele>
        <time>2014-08-13T14:28:14Z</time>
      </trkpt>
      <trkpt lat="46.6198" lon="4.66622">
        <ele>310</ele>
        <time>2014-08-13T14:28:18Z</time>
      </trkpt>
      <trkpt lat="46.61977" lon="4.66626">
        <ele>310</ele>
        <time>2014-08-13T14:28:22Z</time>
      </trkpt>
      <trkpt lat="46.61967" lon="4.66633">
        <ele>310</ele>
        <time>2014-08-13T14:28:31Z</time>
      </trkpt>
      <trkpt lat="46.61942" lon="4.6664">
        <ele>308</ele>
        <time>2014-08-13T14:28:57Z</time>
      </trkpt>
      <trkpt lat="46.61944" lon="4.66637">
        <ele>308</ele>
        <time>2014-08-13T14:29:35Z</time>
      </trkpt>
      <trkpt lat="46.61941" lon="4.66638">
        <ele>308</ele>
        <time>2014-08-13T14:29:54Z</time>
      </trkpt>
      <trkpt lat="46.61936" lon="4.66639">
        <ele>307</ele>
        <time>2014-08-13T14:29:58Z</time>
      </trkpt>
      <trkpt lat="46.61931" lon="4.6664">
        <ele>307</ele>
        <time>2014-08-13T14:30:02Z</time>
      </trkpt>
      <trkpt lat="46.61926" lon="4.66642">
        <ele>307</ele>
        <time>2014-08-13T14:30:06Z</time>
      </trkpt>
      <trkpt lat="46.61916" lon="4.66646">
        <ele>300</ele>
        <time>2014-08-13T14:30:14Z</time>
      </trkpt>
      <trkpt lat="46.61911" lon="4.66649">
        <ele>301</ele>
        <time>2014-08-13T14:30:18Z</time>
      </trkpt>
      <trkpt lat="46.61908" lon="4.66653">
        <ele>301</ele>
        <time>2014-08-13T14:30:22Z</time>
      </trkpt>
      <trkpt lat="46.61895" lon="4.66663">
        <ele>300</ele>
        <time>2014-08-13T14:30:36Z</time>
      </trkpt>
      <trkpt lat="46.6189" lon="4.66663">
        <ele>299</ele>
        <time>2014-08-13T14:30:40Z</time>
      </trkpt>
      <trkpt lat="46.6188" lon="4.66658">
        <ele>298</ele>
        <time>2014-08-13T14:30:46Z</time>
      </trkpt>
      <trkpt lat="46.61875" lon="4.66658">
        <ele>298</ele>
        <time>2014-08-13T14:30:51Z</time>
      </trkpt>
      <trkpt lat="46.6187" lon="4.6666">
        <ele>298</ele>
        <time>2014-08-13T14:30:56Z</time>
      </trkpt>
      <trkpt lat="46.61826" lon="4.66648">
        <ele>293</ele>
        <time>2014-08-13T14:31:30Z</time>
      </trkpt>
      <trkpt lat="46.61817" lon="4.66639">
        <ele>292</ele>
        <time>2014-08-13T14:31:38Z</time>
      </trkpt>
      <trkpt lat="46.61812" lon="4.66634">
        <ele>292</ele>
        <time>2014-08-13T14:31:42Z</time>
      </trkpt>
      <trkpt lat="46.61808" lon="4.66629">
        <ele>292</ele>
        <time>2014-08-13T14:31:45Z</time>
      </trkpt>
      <trkpt lat="46.61811" lon="4.66624">
        <ele>291</ele>
        <time>2014-08-13T14:32:43Z</time>
      </trkpt>
      <trkpt lat="46.61813" lon="4.66617">
        <ele>291</ele>
        <time>2014-08-13T14:32:50Z</time>
      </trkpt>
      <trkpt lat="46.6181" lon="4.6661">
        <ele>290</ele>
        <time>2014-08-13T14:32:53Z</time>
      </trkpt>
      <trkpt lat="46.61807" lon="4.66603">
        <ele>290</ele>
        <time>2014-08-13T14:32:57Z</time>
      </trkpt>
      <trkpt lat="46.61808" lon="4.66595">
        <ele>290</ele>
        <time>2014-08-13T14:33:03Z</time>
      </trkpt>
      <trkpt lat="46.61809" lon="4.66592">
        <ele>289</ele>
        <time>2014-08-13T14:33:09Z</time>
      </trkpt>
      <trkpt lat="46.61812" lon="4.66584">
        <ele>289</ele>
        <time>2014-08-13T14:33:19Z</time>
      </trkpt>
      <trkpt lat="46.61812" lon="4.66577">
        <ele>284</ele>
        <time>2014-08-13T14:33:23Z</time>
      </trkpt>
      <trkpt lat="46.61811" lon="4.66566">
        <ele>283</ele>
        <time>2014-08-13T14:33:37Z</time>
      </trkpt>
      <trkpt lat="46.61806" lon="4.66554">
        <ele>283</ele>
        <time>2014-08-13T14:33:45Z</time>
      </trkpt>
      <trkpt lat="46.6179" lon="4.66533">
        <ele>282</ele>
        <time>2014-08-13T14:34:03Z</time>
      </trkpt>
      <trkpt lat="46.61787" lon="4.66526">
        <ele>281</ele>
        <time>2014-08-13T14:34:14Z</time>
      </trkpt>
      <trkpt lat="46.61783" lon="4.66522">
        <ele>281</ele>
        <time>2014-08-13T14:34:17Z</time>
      </trkpt>
      <trkpt lat="46.61779" lon="4.66518">
        <ele>280</ele>
        <time>2014-08-13T14:34:21Z</time>
      </trkpt>
      <trkpt lat="46.61775" lon="4.66514">
        <ele>280</ele>
        <time>2014-08-13T14:34:27Z</time>
      </trkpt>
      <trkpt lat="46.61755" lon="4.66494">
        <ele>275</ele>
        <time>2014-08-13T14:34:52Z</time>
      </trkpt>
      <trkpt lat="46.61747" lon="4.66488">
        <ele>273</ele>
        <time>2014-08-13T14:35:01Z</time>
      </trkpt>
      <trkpt lat="46.61743" lon="4.66484">
        <ele>272</ele>
        <time>2014-08-13T14:35:07Z</time>
      </trkpt>
      <trkpt lat="46.61739" lon="4.6648">
        <ele>272</ele>
        <time>2014-08-13T14:35:11Z</time>
      </trkpt>
      <trkpt lat="46.61736" lon="4.66475">
        <ele>271</ele>
        <time>2014-08-13T14:35:16Z</time>
      </trkpt>
      <trkpt lat="46.61732" lon="4.6647">
        <ele>270</ele>
        <time>2014-08-13T14:35:19Z</time>
      </trkpt>
      <trkpt lat="46.61696" lon="4.66433">
        <ele>267</ele>
        <time>2014-08-13T14:35:47Z</time>
      </trkpt>
      <trkpt lat="46.61693" lon="4.66427">
        <ele>267</ele>
        <time>2014-08-13T14:35:51Z</time>
      </trkpt>
      <trkpt lat="46.61689" lon="4.66422">
        <ele>266</ele>
        <time>2014-08-13T14:35:55Z</time>
      </trkpt>
      <trkpt lat="46.61669" lon="4.664">
        <ele>261</ele>
        <time>2014-08-13T14:36:16Z</time>
      </trkpt>
      <trkpt lat="46.61665" lon="4.66387">
        <ele>257</ele>
        <time>2014-08-13T14:36:25Z</time>
      </trkpt>
      <trkpt lat="46.61661" lon="4.66384">
        <ele>257</ele>
        <time>2014-08-13T14:36:31Z</time>
      </trkpt>
      <trkpt lat="46.61654" lon="4.66372">
        <ele>255</ele>
        <time>2014-08-13T14:36:41Z</time>
      </trkpt>
      <trkpt lat="46.61652" lon="4.66372">
        <ele>255</ele>
        <time>2014-08-13T14:36:46Z</time>
      </trkpt>
      <trkpt lat="46.61651" lon="4.66365">
        <ele>255</ele>
        <time>2014-08-13T14:36:51Z</time>
      </trkpt>
      <trkpt lat="46.61646" lon="4.66353">
        <ele>254</ele>
        <time>2014-08-13T14:36:58Z</time>
      </trkpt>
      <trkpt lat="46.61644" lon="4.6634">
        <ele>254</ele>
        <time>2014-08-13T14:37:09Z</time>
      </trkpt>
      <trkpt lat="46.61641" lon="4.66326">
        <ele>248</ele>
        <time>2014-08-13T14:37:17Z</time>
      </trkpt>
      <trkpt lat="46.61637" lon="4.66322">
        <ele>248</ele>
        <time>2014-08-13T14:37:20Z</time>
      </trkpt>
      <trkpt lat="46.61637" lon="4.66318">
        <ele>248</ele>
        <time>2014-08-13T14:37:30Z</time>
      </trkpt>
      <trkpt lat="46.61633" lon="4.66315">
        <ele>247</ele>
        <time>2014-08-13T14:37:40Z</time>
      </trkpt>
      <trkpt lat="46.6162" lon="4.66303">
        <ele>246</ele>
        <time>2014-08-13T14:37:52Z</time>
      </trkpt>
      <trkpt lat="46.61615" lon="4.66303">
        <ele>246</ele>
        <time>2014-08-13T14:37:57Z</time>
      </trkpt>
      <trkpt lat="46.6161" lon="4.66304">
        <ele>246</ele>
        <time>2014-08-13T14:38:03Z</time>
      </trkpt>
      <trkpt lat="46.61604" lon="4.66304">
        <ele>246</ele>
        <time>2014-08-13T14:38:07Z</time>
      </trkpt>
      <trkpt lat="46.61599" lon="4.66303">
        <ele>245</ele>
        <time>2014-08-13T14:38:11Z</time>
      </trkpt>
      <trkpt lat="46.61595" lon="4.66308">
        <ele>246</ele>
        <time>2014-08-13T14:38:15Z</time>
      </trkpt>
      <trkpt lat="46.61591" lon="4.66313">
        <ele>246</ele>
        <time>2014-08-13T14:38:19Z</time>
      </trkpt>
      <trkpt lat="46.61586" lon="4.66314">
        <ele>246</ele>
        <time>2014-08-13T14:38:23Z</time>
      </trkpt>
      <trkpt lat="46.61582" lon="4.66311">
        <ele>243</ele>
        <time>2014-08-13T14:38:27Z</time>
      </trkpt>
      <trkpt lat="46.61578" lon="4.66308">
        <ele>243</ele>
        <time>2014-08-13T14:38:34Z</time>
      </trkpt>
      <trkpt lat="46.61569" lon="4.66306">
        <ele>242</ele>
        <time>2014-08-13T14:38:58Z</time>
      </trkpt>
      <trkpt lat="46.61565" lon="4.66302">
        <ele>242</ele>
        <time>2014-08-13T14:39:03Z</time>
      </trkpt>
      <trkpt lat="46.61549" lon="4.66298">
        <ele>242</ele>
        <time>2014-08-13T14:39:17Z</time>
      </trkpt>
      <trkpt lat="46.61547" lon="4.66292">
        <ele>241</ele>
        <time>2014-08-13T14:39:21Z</time>
      </trkpt>
      <trkpt lat="46.61545" lon="4.66285">
        <ele>241</ele>
        <time>2014-08-13T14:39:28Z</time>
      </trkpt>
      <trkpt lat="46.61542" lon="4.6629">
        <ele>241</ele>
        <time>2014-08-13T14:39:34Z</time>
      </trkpt>
      <trkpt lat="46.6154" lon="4.66298">
        <ele>241</ele>
        <time>2014-08-13T14:39:39Z</time>
      </trkpt>
      <trkpt lat="46.6154" lon="4.66305">
        <ele>242</ele>
        <time>2014-08-13T14:39:43Z</time>
      </trkpt>
      <trkpt lat="46.61537" lon="4.66311">
        <ele>242</ele>
        <time>2014-08-13T14:39:48Z</time>
      </trkpt>
      <trkpt lat="46.61527" lon="4.66312">
        <ele>242</ele>
        <time>2014-08-13T14:39:57Z</time>
      </trkpt>
      <trkpt lat="46.61522" lon="4.66312">
        <ele>242</ele>
        <time>2014-08-13T14:40:00Z</time>
      </trkpt>
      <trkpt lat="46.61517" lon="4.66312">
        <ele>242</ele>
        <time>2014-08-13T14:40:03Z</time>
      </trkpt>
      <trkpt lat="46.61511" lon="4.66311">
        <ele>242</ele>
        <time>2014-08-13T14:40:08Z</time>
      </trkpt>
      <trkpt lat="46.61508" lon="4.66315">
        <ele>242</ele>
        <time>2014-08-13T14:40:12Z</time>
      </trkpt>
      <trkpt lat="46.61504" lon="4.66321">
        <ele>242</ele>
        <time>2014-08-13T14:40:16Z</time>
      </trkpt>
      <trkpt lat="46.61493" lon="4.66322">
        <ele>241</ele>
        <time>2014-08-13T14:40:27Z</time>
      </trkpt>
      <trkpt lat="46.61484" lon="4.66329">
        <ele>241</ele>
        <time>2014-08-13T14:40:36Z</time>
      </trkpt>
      <trkpt lat="46.61481" lon="4.66334">
        <ele>243</ele>
        <time>2014-08-13T14:40:40Z</time>
      </trkpt>
      <trkpt lat="46.61473" lon="4.66344">
        <ele>243</ele>
        <time>2014-08-13T14:40:51Z</time>
      </trkpt>
      <trkpt lat="46.6147" lon="4.66344">
        <ele>243</ele>
        <time>2014-08-13T14:41:14Z</time>
      </trkpt>
      <trkpt lat="46.61465" lon="4.66342">
        <ele>243</ele>
        <time>2014-08-13T14:41:17Z</time>
      </trkpt>
      <trkpt lat="46.6146" lon="4.66344">
        <ele>242</ele>
        <time>2014-08-13T14:41:21Z</time>
      </trkpt>
      <trkpt lat="46.61457" lon="4.66349">
        <ele>242</ele>
        <time>2014-08-13T14:41:28Z</time>
      </trkpt>
      <trkpt lat="46.61458" lon="4.66352">
        <ele>242</ele>
        <time>2014-08-13T14:41:33Z</time>
      </trkpt>
      <trkpt lat="46.6146" lon="4.66355">
        <ele>243</ele>
        <time>2014-08-13T14:41:45Z</time>
      </trkpt>
      <trkpt lat="46.61439" lon="4.66338">
        <ele>241</ele>
        <time>2014-08-13T14:42:40Z</time>
      </trkpt>
      <trkpt lat="46.61443" lon="4.66347">
        <ele>242</ele>
        <time>2014-08-13T14:42:56Z</time>
      </trkpt>
      <trkpt lat="46.61451" lon="4.6634">
        <ele>242</ele>
        <time>2014-08-13T14:43:01Z</time>
      </trkpt>
      <trkpt lat="46.61457" lon="4.66341">
        <ele>242</ele>
        <time>2014-08-13T14:43:17Z</time>
      </trkpt>
      <trkpt lat="46.61454" lon="4.66331">
        <ele>239</ele>
        <time>2014-08-13T14:43:43Z</time>
      </trkpt>
      <trkpt lat="46.61459" lon="4.66328">
        <ele>239</ele>
        <time>2014-08-13T14:44:58Z</time>
      </trkpt>
      <trkpt lat="46.61461" lon="4.66344">
        <ele>242</ele>
        <time>2014-08-13T14:49:33Z</time>
      </trkpt>
      <trkpt lat="46.61463" lon="4.66341">
        <ele>242</ele>
        <time>2014-08-13T14:50:06Z</time>
      </trkpt>
      <trkpt lat="46.6146" lon="4.66335">
        <ele>242</ele>
        <time>2014-08-13T14:50:09Z</time>
      </trkpt>
      <trkpt lat="46.61456" lon="4.66333">
        <ele>239</ele>
        <time>2014-08-13T14:50:12Z</time>
      </trkpt>
      <trkpt lat="46.61454" lon="4.66327">
        <ele>239</ele>
        <time>2014-08-13T14:50:18Z</time>
      </trkpt>
      <trkpt lat="46.61448" lon="4.66324">
        <ele>239</ele>
        <time>2014-08-13T14:50:23Z</time>
      </trkpt>
      <trkpt lat="46.61447" lon="4.66317">
        <ele>239</ele>
        <time>2014-08-13T14:50:29Z</time>
      </trkpt>
      <trkpt lat="46.61443" lon="4.66312">
        <ele>239</ele>
        <time>2014-08-13T14:50:33Z</time>
      </trkpt>
      <trkpt lat="46.61442" lon="4.66305">
        <ele>238</ele>
        <time>2014-08-13T14:50:37Z</time>
      </trkpt>
      <trkpt lat="46.61441" lon="4.66298">
        <ele>238</ele>
        <time>2014-08-13T14:50:44Z</time>
      </trkpt>
      <trkpt lat="46.61444" lon="4.66301">
        <ele>238</ele>
        <time>2014-08-13T14:50:55Z</time>
      </trkpt>
      <trkpt lat="46.61447" lon="4.66309">
        <ele>239</ele>
        <time>2014-08-13T14:50:58Z</time>
      </trkpt>
      <trkpt lat="46.61449" lon="4.66324">
        <ele>239</ele>
        <time>2014-08-13T14:51:04Z</time>
      </trkpt>
      <trkpt lat="46.61445" lon="4.66329">
        <ele>239</ele>
        <time>2014-08-13T14:51:08Z</time>
      </trkpt>
      <trkpt lat="46.6144" lon="4.66331">
        <ele>239</ele>
        <time>2014-08-13T14:51:11Z</time>
      </trkpt>
      <trkpt lat="46.61435" lon="4.66334">
        <ele>241</ele>
        <time>2014-08-13T14:51:16Z</time>
      </trkpt>
      <trkpt lat="46.61431" lon="4.66337">
        <ele>241</ele>
        <time>2014-08-13T14:51:25Z</time>
      </trkpt>
      <trkpt lat="46.61436" lon="4.66341">
        <ele>241</ele>
        <time>2014-08-13T14:51:52Z</time>
      </trkpt>
      <trkpt lat="46.61441" lon="4.66342">
        <ele>242</ele>
        <time>2014-08-13T14:52:03Z</time>
      </trkpt>
      <trkpt lat="46.61441" lon="4.66345">
        <ele>242</ele>
        <time>2014-08-13T14:52:09Z</time>
      </trkpt>
      <trkpt lat="46.61439" lon="4.66351">
        <ele>242</ele>
        <time>2014-08-13T14:52:26Z</time>
      </trkpt>
      <trkpt lat="46.6144" lon="4.66351">
        <ele>242</ele>
        <time>2014-08-13T14:52:43Z</time>
      </trkpt>
      <trkpt lat="46.61438" lon="4.66346">
        <ele>241</ele>
        <time>2014-08-13T14:53:03Z</time>
      </trkpt>
      <trkpt lat="46.61435" lon="4.6634">
        <ele>241</ele>
        <time>2014-08-13T14:53:08Z</time>
      </trkpt>
      <trkpt lat="46.61435" lon="4.66325">
        <ele>239</ele>
        <time>2014-08-13T14:53:18Z</time>
      </trkpt>
      <trkpt lat="46.61437" lon="4.66318">
        <ele>239</ele>
        <time>2014-08-13T14:53:23Z</time>
      </trkpt>
      <trkpt lat="46.61437" lon="4.66311">
        <ele>238</ele>
        <time>2014-08-13T14:53:29Z</time>
      </trkpt>
      <trkpt lat="46.61434" lon="4.66306">
        <ele>238</ele>
        <time>2014-08-13T14:53:37Z</time>
      </trkpt>
      <trkpt lat="46.61429" lon="4.66304">
        <ele>238</ele>
        <time>2014-08-13T14:53:43Z</time>
      </trkpt>
      <trkpt lat="46.6142" lon="4.66287">
        <ele>237</ele>
        <time>2014-08-13T14:53:52Z</time>
      </trkpt>
      <trkpt lat="46.61416" lon="4.66272">
        <ele>234</ele>
        <time>2014-08-13T14:54:01Z</time>
      </trkpt>
      <trkpt lat="46.61414" lon="4.66266">
        <ele>234</ele>
        <time>2014-08-13T14:54:06Z</time>
      </trkpt>
      <trkpt lat="46.6141" lon="4.66259">
        <ele>234</ele>
        <time>2014-08-13T14:54:11Z</time>
      </trkpt>
      <trkpt lat="46.61405" lon="4.66255">
        <ele>234</ele>
        <time>2014-08-13T14:54:14Z</time>
      </trkpt>
      <trkpt lat="46.61399" lon="4.66254">
        <ele>234</ele>
        <time>2014-08-13T14:54:18Z</time>
      </trkpt>
      <trkpt lat="46.61394" lon="4.66254">
        <ele>234</ele>
        <time>2014-08-13T14:54:22Z</time>
      </trkpt>
      <trkpt lat="46.61388" lon="4.66258">
        <ele>234</ele>
        <time>2014-08-13T14:54:31Z</time>
      </trkpt>
      <trkpt lat="46.61383" lon="4.66254">
        <ele>234</ele>
        <time>2014-08-13T14:54:36Z</time>
      </trkpt>
      <trkpt lat="46.61374" lon="4.66251">
        <ele>234</ele>
        <time>2014-08-13T14:54:45Z</time>
      </trkpt>
      <trkpt lat="46.61369" lon="4.66251">
        <ele>233</ele>
        <time>2014-08-13T14:54:50Z</time>
      </trkpt>
      <trkpt lat="46.61366" lon="4.66251">
        <ele>233</ele>
        <time>2014-08-13T14:54:57Z</time>
      </trkpt>
      <trkpt lat="46.61366" lon="4.6624">
        <ele>232</ele>
        <time>2014-08-13T14:55:09Z</time>
      </trkpt>
      <trkpt lat="46.61367" lon="4.66233">
        <ele>232</ele>
        <time>2014-08-13T14:55:14Z</time>
      </trkpt>
      <trkpt lat="46.6137" lon="4.66219">
        <ele>232</ele>
        <time>2014-08-13T14:55:23Z</time>
      </trkpt>
      <trkpt lat="46.6137" lon="4.66215">
        <ele>232</ele>
        <time>2014-08-13T14:55:30Z</time>
      </trkpt>
      <trkpt lat="46.61368" lon="4.66209">
        <ele>232</ele>
        <time>2014-08-13T14:55:41Z</time>
      </trkpt>
      <trkpt lat="46.61365" lon="4.66203">
        <ele>232</ele>
        <time>2014-08-13T14:55:44Z</time>
      </trkpt>
      <trkpt lat="46.61363" lon="4.66196">
        <ele>232</ele>
        <time>2014-08-13T14:55:52Z</time>
      </trkpt>
      <trkpt lat="46.61361" lon="4.66182">
        <ele>232</ele>
        <time>2014-08-13T14:56:01Z</time>
      </trkpt>
      <trkpt lat="46.61358" lon="4.66176">
        <ele>232</ele>
        <time>2014-08-13T14:56:05Z</time>
      </trkpt>
      <trkpt lat="46.61355" lon="4.66169">
        <ele>231</ele>
        <time>2014-08-13T14:56:11Z</time>
      </trkpt>
      <trkpt lat="46.61352" lon="4.66164">
        <ele>231</ele>
        <time>2014-08-13T14:56:17Z</time>
      </trkpt>
      <trkpt lat="46.61354" lon="4.66177">
        <ele>231</ele>
        <time>2014-08-13T14:56:26Z</time>
      </trkpt>
    </trkseg>
  </trk>
</gpx>